Wetterdaten: aktuell Montag, 23.09.2019 18:50
Datum Zeit Temp. A. Temp. A. min Temp. A. max Feuchte A. Luftdruck Regen Wind Richtung Richtung Sonnenschein UV Solar Windben
23.09.2019 18:50 18,3 C 18,3 C 18,3 C 73 % 1016,1 hPa 0,0 l/m 1,6 km/h (1 Bft) SW 225 0 min 0,0 UV-I 21 W/m 1,6 km/h (1 Bft)
23.09.2019 18:49 18,3 C 18,3 C 18,3 C 73 % 1016,2 hPa 0,0 l/m 3,2 km/h (1 Bft) SW 225 0 min 0,0 UV-I 21 W/m 4,8 km/h (1 Bft)
23.09.2019 18:48 18,3 C 18,3 C 18,3 C 73 % 1016,1 hPa 0,0 l/m 3,2 km/h (1 Bft) S 180 0 min 0,0 UV-I 21 W/m 4,8 km/h (1 Bft)
23.09.2019 18:47 18,3 C 18,3 C 18,3 C 73 % 1016,1 hPa 0,0 l/m 3,2 km/h (1 Bft) SW 225 0 min 0,0 UV-I 23 W/m 6,4 km/h (2 Bft)
23.09.2019 18:46 18,3 C 18,2 C 18,3 C 73 % 1016,1 hPa 0,0 l/m 3,2 km/h (1 Bft) S-SW 202 0 min 0,0 UV-I 23 W/m 4,8 km/h (1 Bft)
23.09.2019 18:45 18,3 C 18,2 C 18,3 C 73 % 1016,0 hPa 0,0 l/m 1,6 km/h (1 Bft) SW 225 0 min 0,0 UV-I 25 W/m 6,4 km/h (2 Bft)
23.09.2019 18:44 18,3 C 18,2 C 18,3 C 73 % 1016,1 hPa 0,0 l/m 0,0 km/h (0 Bft) N 0 0 min 0,0 UV-I 26 W/m 0,0 km/h (0 Bft)
23.09.2019 18:43 18,2 C 18,2 C 18,3 C 73 % 1016,1 hPa 0,0 l/m 0,0 km/h (0 Bft) N 0 0 min 0,0 UV-I 28 W/m 0,0 km/h (0 Bft)
23.09.2019 18:42 18,3 C 18,3 C 18,3 C 74 % 1016,0 hPa 0,0 l/m 0,0 km/h (0 Bft) SW 225 0 min 0,0 UV-I 30 W/m 3,2 km/h (1 Bft)
23.09.2019 18:41 18,3 C 18,3 C 18,3 C 75 % 1016,0 hPa 0,0 l/m 0,0 km/h (0 Bft) N 0 0 min 0,0 UV-I 32 W/m 0,0 km/h (0 Bft)
23.09.2019 18:40 18,3 C 18,2 C 18,3 C 74 % 1016,0 hPa 0,0 l/m 0,0 km/h (0 Bft) N 0 0 min 0,0 UV-I 32 W/m 0,0 km/h (0 Bft)
23.09.2019 18:39 18,3 C 18,3 C 18,3 C 74 % 1016,0 hPa 0,0 l/m 0,0 km/h (0 Bft) N 0 0 min 0,0 UV-I 32 W/m 0,0 km/h (0 Bft)
23.09.2019 18:38 18,3 C 18,2 C 18,3 C 74 % 1016,0 hPa 0,0 l/m 0,0 km/h (0 Bft) SW 225 0 min 0,0 UV-I 32 W/m 1,6 km/h (1 Bft)
23.09.2019 18:37 18,3 C 18,3 C 18,3 C 73 % 1016,0 hPa 0,0 l/m 3,2 km/h (1 Bft) SW 225 0 min 0,0 UV-I 32 W/m 6,4 km/h (2 Bft)
23.09.2019 18:36 18,3 C 18,3 C 18,3 C 73 % 1016,0 hPa 0,0 l/m 3,2 km/h (1 Bft) S-SW 202 0 min 0,0 UV-I 32 W/m 6,4 km/h (2 Bft)
23.09.2019 18:35 18,3 C 18,2 C 18,3 C 74 % 1016,0 hPa 0,0 l/m 1,6 km/h (1 Bft) SW 225 0 min 0,0 UV-I 32 W/m 4,8 km/h (1 Bft)
23.09.2019 18:34 18,3 C 18,2 C 18,3 C 73 % 1016,0 hPa 0,0 l/m 1,6 km/h (1 Bft) S-SW 202 0 min 0,0 UV-I 32 W/m 4,8 km/h (1 Bft)
23.09.2019 18:33 18,3 C 18,3 C 18,3 C 74 % 1016,0 hPa 0,0 l/m 4,8 km/h (1 Bft) S-SW 202 0 min 0,0 UV-I 33 W/m 6,4 km/h (2 Bft)
23.09.2019 18:32 18,3 C 18,3 C 18,3 C 75 % 1016,0 hPa 0,0 l/m 1,6 km/h (1 Bft) SW 225 0 min 0,0 UV-I 33 W/m 4,8 km/h (1 Bft)
23.09.2019 18:31 18,3 C 18,2 C 18,3 C 74 % 1015,9 hPa 0,0 l/m 3,2 km/h (1 Bft) W-SW 247 0 min 0,0 UV-I 33 W/m 6,4 km/h (2 Bft)
23.09.2019 18:30 18,3 C 18,3 C 18,3 C 74 % 1016,0 hPa 0,0 l/m 1,6 km/h (1 Bft) S-SW 202 0 min 0,0 UV-I 35 W/m 4,8 km/h (1 Bft)
23.09.2019 18:29 18,3 C 18,3 C 18,3 C 75 % 1016,0 hPa 0,0 l/m 1,6 km/h (1 Bft) W 270 0 min 0,0 UV-I 37 W/m 4,8 km/h (1 Bft)
23.09.2019 18:28 18,3 C 18,3 C 18,3 C 74 % 1015,9 hPa 0,0 l/m 3,2 km/h (1 Bft) S-SW 202 0 min 0,0 UV-I 37 W/m 4,8 km/h (1 Bft)
23.09.2019 18:27 18,3 C 18,3 C 18,3 C 75 % 1016,0 hPa 0,0 l/m 3,2 km/h (1 Bft) SW 225 0 min 0,0 UV-I 39 W/m 4,8 km/h (1 Bft)
23.09.2019 18:26 18,3 C 18,3 C 18,4 C 74 % 1016,0 hPa 0,0 l/m 1,6 km/h (1 Bft) W-SW 247 0 min 0,0 UV-I 39 W/m 3,2 km/h (1 Bft)
23.09.2019 18:25 18,4 C 18,4 C 18,4 C 75 % 1016,0 hPa 0,0 l/m 0,0 km/h (0 Bft) N 0 0 min 0,0 UV-I 39 W/m 0,0 km/h (0 Bft)
23.09.2019 18:24 18,4 C 18,4 C 18,4 C 73 % 1016,0 hPa 0,0 l/m 1,6 km/h (1 Bft) W-SW 247 0 min 0,0 UV-I 39 W/m 4,8 km/h (1 Bft)
23.09.2019 18:23 18,4 C 18,4 C 18,4 C 73 % 1016,0 hPa 0,0 l/m 1,6 km/h (1 Bft) SW 225 0 min 0,0 UV-I 40 W/m 3,2 km/h (1 Bft)
23.09.2019 18:22 18,4 C 18,4 C 18,4 C 72 % 1015,9 hPa 0,0 l/m 6,4 km/h (2 Bft) W 270 0 min 0,0 UV-I 40 W/m 9,7 km/h (2 Bft)
23.09.2019 18:21 18,4 C 18,4 C 18,4 C 72 % 1015,9 hPa 0,0 l/m 4,8 km/h (1 Bft) SW 225 0 min 0,0 UV-I 44 W/m 9,7 km/h (2 Bft)
23.09.2019 18:20 18,4 C 18,4 C 18,4 C 71 % 1016,0 hPa 0,0 l/m 6,4 km/h (2 Bft) S-SW 202 0 min 0,0 UV-I 46 W/m 8,0 km/h (2 Bft)
23.09.2019 18:19 18,4 C 18,4 C 18,4 C 72 % 1016,0 hPa 0,0 l/m 4,8 km/h (1 Bft) SW 225 0 min 0,0 UV-I 47 W/m 4,8 km/h (1 Bft)
23.09.2019 18:18 18,4 C 18,4 C 18,5 C 73 % 1016,0 hPa 0,0 l/m 4,8 km/h (1 Bft) S-SW 202 0 min 0,0 UV-I 47 W/m 6,4 km/h (2 Bft)
23.09.2019 18:17 18,5 C 18,4 C 18,5 C 74 % 1015,9 hPa 0,0 l/m 3,2 km/h (1 Bft) SW 225 0 min 0,0 UV-I 47 W/m 6,4 km/h (2 Bft)
23.09.2019 18:16 18,5 C 18,5 C 18,5 C 73 % 1015,9 hPa 0,0 l/m 3,2 km/h (1 Bft) W-SW 247 0 min 0,0 UV-I 49 W/m 6,4 km/h (2 Bft)
23.09.2019 18:15 18,5 C 18,5 C 18,5 C 71 % 1016,0 hPa 0,0 l/m 4,8 km/h (1 Bft) SW 225 0 min 0,0 UV-I 49 W/m 8,0 km/h (2 Bft)
23.09.2019 18:14 18,5 C 18,5 C 18,6 C 72 % 1015,9 hPa 0,0 l/m 6,4 km/h (2 Bft) SW 225 0 min 0,0 UV-I 49 W/m 11,3 km/h (2 Bft)
23.09.2019 18:13 18,6 C 18,6 C 18,6 C 73 % 1016,0 hPa 0,0 l/m 8,0 km/h (2 Bft) SW 225 0 min 0,0 UV-I 49 W/m 11,3 km/h (2 Bft)
23.09.2019 18:12 18,6 C 18,6 C 18,6 C 71 % 1015,9 hPa 0,0 l/m 8,0 km/h (2 Bft) SW 225 0 min 0,0 UV-I 51 W/m 12,9 km/h (3 Bft)
23.09.2019 18:11 18,6 C 18,6 C 18,6 C 71 % 1015,8 hPa 0,0 l/m 6,4 km/h (2 Bft) S-SW 202 0 min 0,0 UV-I 53 W/m 9,7 km/h (2 Bft)
23.09.2019 18:10 18,6 C 18,6 C 18,6 C 72 % 1015,9 hPa 0,0 l/m 6,4 km/h (2 Bft) SW 225 0 min 0,0 UV-I 53 W/m 8,0 km/h (2 Bft)
23.09.2019 18:09 18,5 C 18,5 C 18,6 C 71 % 1015,9 hPa 0,0 l/m 4,8 km/h (1 Bft) S-SW 202 0 min 0,0 UV-I 56 W/m 8,0 km/h (2 Bft)
23.09.2019 18:08 18,6 C 18,5 C 18,6 C 71 % 1015,9 hPa 0,0 l/m 6,4 km/h (2 Bft) SW 225 0 min 0,0 UV-I 58 W/m 11,3 km/h (2 Bft)
23.09.2019 18:07 18,6 C 18,6 C 18,6 C 70 % 1015,8 hPa 0,0 l/m 6,4 km/h (2 Bft) SW 225 0 min 0,0 UV-I 60 W/m 9,7 km/h (2 Bft)
23.09.2019 18:06 18,6 C 18,6 C 18,6 C 70 % 1015,9 hPa 0,0 l/m 6,4 km/h (2 Bft) SW 225 0 min 0,0 UV-I 62 W/m 9,7 km/h (2 Bft)
23.09.2019 18:05 18,6 C 18,6 C 18,6 C 70 % 1015,9 hPa 0,0 l/m 6,4 km/h (2 Bft) S-SW 202 0 min 0,0 UV-I 63 W/m 11,3 km/h (2 Bft)
23.09.2019 18:04 18,6 C 18,6 C 18,6 C 71 % 1015,8 hPa 0,0 l/m 9,7 km/h (2 Bft) SW 225 0 min 0,0 UV-I 65 W/m 14,5 km/h (3 Bft)
23.09.2019 18:03 18,6 C 18,6 C 18,6 C 71 % 1015,8 hPa 0,0 l/m 8,0 km/h (2 Bft) S-SW 202 0 min 0,0 UV-I 65 W/m 16,1 km/h (3 Bft)
23.09.2019 18:02 18,6 C 18,6 C 18,6 C 72 % 1015,8 hPa 0,0 l/m 6,4 km/h (2 Bft) SW 225 0 min 0,0 UV-I 65 W/m 9,7 km/h (2 Bft)
23.09.2019 18:01 18,6 C 18,6 C 18,6 C 71 % 1015,7 hPa 0,0 l/m 8,0 km/h (2 Bft) SW 225 0 min 0,0 UV-I 67 W/m 12,9 km/h (3 Bft)
23.09.2019 18:00 18,6 C 18,6 C 18,6 C 70 % 1015,7 hPa 0,0 l/m 6,4 km/h (2 Bft) SW 225 0 min 0,0 UV-I 67 W/m 9,7 km/h (2 Bft)
23.09.2019 17:59 18,6 C 18,6 C 18,6 C 70 % 1015,7 hPa 0,0 l/m 11,3 km/h (2 Bft) S-SW 202 0 min 0,0 UV-I 67 W/m 14,5 km/h (3 Bft)
23.09.2019 17:58 18,6 C 18,6 C 18,6 C 70 % 1015,7 hPa 0,0 l/m 11,3 km/h (2 Bft) SW 225 0 min 0,5 UV-I 70 W/m 14,5 km/h (3 Bft)
23.09.2019 17:57 18,6 C 18,6 C 18,6 C 71 % 1015,7 hPa 0,0 l/m 8,0 km/h (2 Bft) SW 225 0 min 0,5 UV-I 72 W/m 11,3 km/h (2 Bft)
23.09.2019 17:56 18,6 C 18,6 C 18,6 C 71 % 1015,7 hPa 0,0 l/m 8,0 km/h (2 Bft) SW 225 0 min 0,5 UV-I 74 W/m 12,9 km/h (3 Bft)
23.09.2019 17:55 18,6 C 18,6 C 18,6 C 71 % 1015,6 hPa 0,0 l/m 8,0 km/h (2 Bft) SW 225 0 min 0,5 UV-I 74 W/m 12,9 km/h (3 Bft)
23.09.2019 17:54 18,6 C 18,6 C 18,6 C 72 % 1015,7 hPa 0,0 l/m 8,0 km/h (2 Bft) SW 225 0 min 0,5 UV-I 74 W/m 14,5 km/h (3 Bft)
23.09.2019 17:53 18,6 C 18,6 C 18,6 C 70 % 1015,7 hPa 0,0 l/m 8,0 km/h (2 Bft) S-SW 202 0 min 0,5 UV-I 76 W/m 12,9 km/h (3 Bft)
23.09.2019 17:52 18,6 C 18,5 C 18,6 C 70 % 1015,7 hPa 0,0 l/m 9,7 km/h (2 Bft) SW 225 0 min 0,5 UV-I 77 W/m 12,9 km/h (3 Bft)
23.09.2019 17:51 18,5 C 18,5 C 18,5 C 70 % 1015,6 hPa 0,0 l/m 8,0 km/h (2 Bft) S-SW 202 0 min 0,5 UV-I 77 W/m 12,9 km/h (3 Bft)
23.09.2019 17:50 18,5 C 18,4 C 18,5 C 70 % 1015,6 hPa 0,0 l/m 9,7 km/h (2 Bft) S-SW 202 0 min 0,5 UV-I 77 W/m 11,3 km/h (2 Bft)
23.09.2019 17:49 18,4 C 18,4 C 18,4 C 71 % 1015,6 hPa 0,0 l/m 6,4 km/h (2 Bft) SW 225 0 min 0,5 UV-I 77 W/m 11,3 km/h (2 Bft)
23.09.2019 17:48 18,4 C 18,4 C 18,4 C 71 % 1015,6 hPa 0,0 l/m 6,4 km/h (2 Bft) SW 225 0 min 0,5 UV-I 77 W/m 12,9 km/h (3 Bft)
23.09.2019 17:47 18,4 C 18,4 C 18,4 C 71 % 1015,6 hPa 0,0 l/m 8,0 km/h (2 Bft) S-SW 202 0 min 0,5 UV-I 76 W/m 11,3 km/h (2 Bft)
23.09.2019 17:46 18,4 C 18,4 C 18,4 C 72 % 1015,6 hPa 0,0 l/m 9,7 km/h (2 Bft) S-SW 202 0 min 0,5 UV-I 74 W/m 12,9 km/h (3 Bft)
23.09.2019 17:45 18,4 C 18,4 C 18,4 C 72 % 1015,7 hPa 0,0 l/m 9,7 km/h (2 Bft) S-SW 202 0 min 0,5 UV-I 69 W/m 12,9 km/h (3 Bft)
23.09.2019 17:44 18,4 C 18,4 C 18,4 C 70 % 1015,7 hPa 0,0 l/m 9,7 km/h (2 Bft) S-SW 202 0 min 0,6 UV-I 65 W/m 14,5 km/h (3 Bft)
23.09.2019 17:43 18,3 C 18,3 C 18,4 C 71 % 1015,6 hPa 0,0 l/m 6,4 km/h (2 Bft) SW 225 0 min 0,6 UV-I 62 W/m 11,3 km/h (2 Bft)
23.09.2019 17:42 18,4 C 18,3 C 18,4 C 71 % 1015,8 hPa 0,0 l/m 6,4 km/h (2 Bft) SW 225 0 min 0,6 UV-I 58 W/m 8,0 km/h (2 Bft)
23.09.2019 17:41 18,4 C 18,3 C 18,4 C 70 % 1015,7 hPa 0,0 l/m 4,8 km/h (1 Bft) SW 225 0 min 0,6 UV-I 56 W/m 9,7 km/h (2 Bft)
23.09.2019 17:40 18,4 C 18,3 C 18,4 C 72 % 1015,7 hPa 0,0 l/m 4,8 km/h (1 Bft) SW 225 0 min 0,0 UV-I 54 W/m 9,7 km/h (2 Bft)
23.09.2019 17:39 18,4 C 18,3 C 18,4 C 73 % 1015,7 hPa 0,0 l/m 3,2 km/h (1 Bft) W 270 0 min 0,0 UV-I 53 W/m 6,4 km/h (2 Bft)
23.09.2019 17:38 18,4 C 18,3 C 18,4 C 72 % 1015,7 hPa 0,0 l/m 4,8 km/h (1 Bft) S-SW 202 0 min 0,0 UV-I 53 W/m 6,4 km/h (2 Bft)
23.09.2019 17:37 18,4 C 18,3 C 18,4 C 73 % 1015,6 hPa 0,0 l/m 4,8 km/h (1 Bft) SW 225 0 min 0,0 UV-I 53 W/m 12,9 km/h (3 Bft)
23.09.2019 17:36 18,4 C 18,3 C 18,4 C 72 % 1015,6 hPa 0,0 l/m 3,2 km/h (1 Bft) SW 225 0 min 0,0 UV-I 53 W/m 6,4 km/h (2 Bft)
23.09.2019 17:35 18,3 C 18,3 C 18,4 C 74 % 1015,6 hPa 0,0 l/m 3,2 km/h (1 Bft) S-SW 202 0 min 0,0 UV-I 53 W/m 4,8 km/h (1 Bft)
23.09.2019 17:34 18,4 C 18,4 C 18,4 C 73 % 1015,6 hPa 0,0 l/m 3,2 km/h (1 Bft) W-SW 247 0 min 0,0 UV-I 53 W/m 4,8 km/h (1 Bft)
23.09.2019 17:33 18,4 C 18,4 C 18,4 C 74 % 1015,6 hPa 0,0 l/m 3,2 km/h (1 Bft) W 270 0 min 0,0 UV-I 53 W/m 4,8 km/h (1 Bft)
23.09.2019 17:32 18,4 C 18,4 C 18,5 C 73 % 1015,6 hPa 0,0 l/m 3,2 km/h (1 Bft) SW 225 0 min 0,0 UV-I 51 W/m 6,4 km/h (2 Bft)
23.09.2019 17:31 18,5 C 18,5 C 18,5 C 72 % 1015,6 hPa 0,0 l/m 3,2 km/h (1 Bft) W-SW 247 0 min 0,0 UV-I 51 W/m 6,4 km/h (2 Bft)
23.09.2019 17:30 18,5 C 18,5 C 18,6 C 72 % 1015,6 hPa 0,0 l/m 3,2 km/h (1 Bft) W 270 0 min 0,0 UV-I 51 W/m 6,4 km/h (2 Bft)
23.09.2019 17:29 18,6 C 18,6 C 18,6 C 72 % 1015,6 hPa 0,0 l/m 4,8 km/h (1 Bft) W 270 0 min 0,0 UV-I 51 W/m 9,7 km/h (2 Bft)
23.09.2019 17:28 18,6 C 18,6 C 18,6 C 73 % 1015,6 hPa 0,0 l/m 4,8 km/h (1 Bft) W 270 0 min 0,0 UV-I 51 W/m 9,7 km/h (2 Bft)
23.09.2019 17:27 18,6 C 18,6 C 18,7 C 72 % 1015,6 hPa 0,0 l/m 6,4 km/h (2 Bft) W-SW 247 0 min 0,0 UV-I 51 W/m 11,3 km/h (2 Bft)
23.09.2019 17:26 18,6 C 18,6 C 18,7 C 71 % 1015,6 hPa 0,0 l/m 3,2 km/h (1 Bft) SW 225 0 min 0,0 UV-I 53 W/m 6,4 km/h (2 Bft)
23.09.2019 17:25 18,7 C 18,7 C 18,7 C 71 % 1015,6 hPa 0,0 l/m 4,8 km/h (1 Bft) W-SW 247 0 min 0,0 UV-I 54 W/m 8,0 km/h (2 Bft)
23.09.2019 17:24 18,7 C 18,7 C 18,7 C 71 % 1015,6 hPa 0,0 l/m 8,0 km/h (2 Bft) SW 225 0 min 0,8 UV-I 56 W/m 12,9 km/h (3 Bft)
23.09.2019 17:23 18,8 C 18,8 C 18,8 C 70 % 1015,7 hPa 0,0 l/m 8,0 km/h (2 Bft) SW 225 0 min 0,8 UV-I 60 W/m 12,9 km/h (3 Bft)
23.09.2019 17:22 18,8 C 18,8 C 18,8 C 72 % 1015,7 hPa 0,0 l/m 4,8 km/h (1 Bft) SW 225 0 min 0,8 UV-I 62 W/m 8,0 km/h (2 Bft)
23.09.2019 17:21 18,8 C 18,8 C 18,9 C 71 % 1015,7 hPa 0,0 l/m 4,8 km/h (1 Bft) W-SW 247 0 min 0,8 UV-I 63 W/m 11,3 km/h (2 Bft)
23.09.2019 17:20 18,9 C 18,9 C 18,9 C 70 % 1015,6 hPa 0,0 l/m 8,0 km/h (2 Bft) SW 225 0 min 0,8 UV-I 65 W/m 12,9 km/h (3 Bft)
23.09.2019 17:19 19,0 C 19,0 C 19,0 C 71 % 1015,6 hPa 0,0 l/m 4,8 km/h (1 Bft) SW 225 0 min 0,9 UV-I 67 W/m 11,3 km/h (2 Bft)
23.09.2019 17:18 19,0 C 19,0 C 19,1 C 70 % 1015,6 hPa 0,0 l/m 6,4 km/h (2 Bft) W 270 0 min 0,9 UV-I 69 W/m 11,3 km/h (2 Bft)
23.09.2019 17:17 19,1 C 19,1 C 19,2 C 71 % 1015,6 hPa 0,0 l/m 6,4 km/h (2 Bft) S-SW 202 0 min 0,9 UV-I 74 W/m 14,5 km/h (3 Bft)
23.09.2019 17:16 19,2 C 19,1 C 19,2 C 70 % 1015,6 hPa 0,0 l/m 4,8 km/h (1 Bft) W-SW 247 0 min 0,9 UV-I 76 W/m 6,4 km/h (2 Bft)
23.09.2019 17:15 19,2 C 19,2 C 19,2 C 71 % 1015,6 hPa 0,0 l/m 4,8 km/h (1 Bft) SW 225 0 min 0,9 UV-I 77 W/m 8,0 km/h (2 Bft)
23.09.2019 17:14 19,3 C 19,2 C 19,3 C 69 % 1015,5 hPa 0,0 l/m 4,8 km/h (1 Bft) W 270 0 min 0,9 UV-I 79 W/m 8,0 km/h (2 Bft)
23.09.2019 17:13 19,3 C 19,3 C 19,4 C 70 % 1015,7 hPa 0,0 l/m 8,0 km/h (2 Bft) W 270 0 min 0,9 UV-I 81 W/m 11,3 km/h (2 Bft)
23.09.2019 17:12 19,4 C 19,4 C 19,4 C 69 % 1015,5 hPa 0,0 l/m 6,4 km/h (2 Bft) W-SW 247 0 min 1,0 UV-I 83 W/m 12,9 km/h (3 Bft)
23.09.2019 17:11 19,4 C 19,4 C 19,5 C 70 % 1015,6 hPa 0,0 l/m 8,0 km/h (2 Bft) SW 225 0 min 1,0 UV-I 86 W/m 12,9 km/h (3 Bft)
23.09.2019 17:10 19,5 C 19,5 C 19,6 C 69 % 1015,6 hPa 0,0 l/m 8,0 km/h (2 Bft) SW 225 0 min 1,0 UV-I 88 W/m 12,9 km/h (3 Bft)
23.09.2019 17:09 19,6 C 19,6 C 19,6 C 69 % 1015,5 hPa 0,0 l/m 11,3 km/h (2 Bft) W-SW 247 0 min 1,0 UV-I 90 W/m 14,5 km/h (3 Bft)
23.09.2019 17:08 19,7 C 19,7 C 19,7 C 68 % 1015,6 hPa 0,0 l/m 8,0 km/h (2 Bft) SW 225 0 min 1,0 UV-I 90 W/m 14,5 km/h (3 Bft)
23.09.2019 17:07 19,7 C 19,7 C 19,8 C 67 % 1015,5 hPa 0,0 l/m 8,0 km/h (2 Bft) SW 225 0 min 1,0 UV-I 93 W/m 12,9 km/h (3 Bft)
23.09.2019 17:06 19,8 C 19,8 C 19,8 C 67 % 1015,6 hPa 0,0 l/m 8,0 km/h (2 Bft) SW 225 0 min 1,0 UV-I 93 W/m 12,9 km/h (3 Bft)
23.09.2019 17:05 19,8 C 19,8 C 19,9 C 65 % 1015,6 hPa 0,0 l/m 9,7 km/h (2 Bft) W 270 0 min 1,0 UV-I 97 W/m 14,5 km/h (3 Bft)
23.09.2019 17:04 19,9 C 19,9 C 19,9 C 65 % 1015,6 hPa 0,0 l/m 9,7 km/h (2 Bft) SW 225 0 min 1,0 UV-I 98 W/m 17,7 km/h (3 Bft)
23.09.2019 17:03 19,9 C 19,9 C 20,0 C 64 % 1015,6 hPa 0,0 l/m 6,4 km/h (2 Bft) SW 225 0 min 1,0 UV-I 100 W/m 11,3 km/h (2 Bft)
23.09.2019 17:02 19,9 C 19,9 C 19,9 C 63 % 1015,5 hPa 0,0 l/m 8,0 km/h (2 Bft) S-SW 202 0 min 1,0 UV-I 104 W/m 11,3 km/h (2 Bft)
23.09.2019 17:01 20,0 C 20,0 C 20,1 C 65 % 1015,5 hPa 0,0 l/m 11,3 km/h (2 Bft) SW 225 0 min 1,0 UV-I 107 W/m 16,1 km/h (3 Bft)
23.09.2019 17:00 20,0 C 20,0 C 20,1 C 65 % 1015,6 hPa 0,0 l/m 8,0 km/h (2 Bft) SW 225 0 min 1,1 UV-I 113 W/m 11,3 km/h (2 Bft)
23.09.2019 16:59 20,1 C 20,1 C 20,1 C 66 % 1015,6 hPa 0,0 l/m 9,7 km/h (2 Bft) SW 225 0 min 1,1 UV-I 125 W/m 14,5 km/h (3 Bft)
23.09.2019 16:58 20,1 C 20,1 C 20,1 C 68 % 1015,6 hPa 0,0 l/m 8,0 km/h (2 Bft) S-SW 202 0 min 1,1 UV-I 134 W/m 9,7 km/h (2 Bft)
23.09.2019 16:57 20,1 C 20,1 C 20,1 C 69 % 1015,5 hPa 0,0 l/m 6,4 km/h (2 Bft) SW 225 0 min 1,1 UV-I 142 W/m 14,5 km/h (3 Bft)
23.09.2019 16:56 20,1 C 20,1 C 20,1 C 68 % 1015,6 hPa 0,0 l/m 8,0 km/h (2 Bft) SW 225 0 min 1,1 UV-I 169 W/m 17,7 km/h (3 Bft)
23.09.2019 16:55 20,1 C 20,1 C 20,1 C 69 % 1015,5 hPa 0,0 l/m 11,3 km/h (2 Bft) S-SW 202 0 min 1,1 UV-I 169 W/m 19,3 km/h (3 Bft)
23.09.2019 16:54 20,1 C 19,9 C 20,1 C 69 % 1015,5 hPa 0,0 l/m 11,3 km/h (2 Bft) S-SW 202 0 min 1,1 UV-I 190 W/m 17,7 km/h (3 Bft)
23.09.2019 16:53 19,9 C 19,8 C 19,9 C 71 % 1015,5 hPa 0,0 l/m 6,4 km/h (2 Bft) S-SW 202 0 min 1,1 UV-I 193 W/m 12,9 km/h (3 Bft)
23.09.2019 16:52 19,8 C 19,7 C 19,8 C 72 % 1015,6 hPa 0,0 l/m 6,4 km/h (2 Bft) S-SW 202 0 min 1,0 UV-I 199 W/m 9,7 km/h (2 Bft)
23.09.2019 16:51 19,7 C 19,7 C 19,7 C 71 % 1015,5 hPa 0,0 l/m 8,0 km/h (2 Bft) W 270 0 min 1,0 UV-I 197 W/m 14,5 km/h (3 Bft)
23.09.2019 16:50 19,6 C 19,6 C 19,6 C 72 % 1015,5 hPa 0,0 l/m 6,4 km/h (2 Bft) W-SW 247 0 min 0,9 UV-I 186 W/m 9,7 km/h (2 Bft)
23.09.2019 16:49 19,5 C 19,4 C 19,5 C 70 % 1015,5 hPa 0,0 l/m 3,2 km/h (1 Bft) SW 225 0 min 0,8 UV-I 174 W/m 6,4 km/h (2 Bft)
23.09.2019 16:48 19,4 C 19,3 C 19,4 C 72 % 1015,5 hPa 0,0 l/m 1,6 km/h (1 Bft) W 270 0 min 0,7 UV-I 160 W/m 3,2 km/h (1 Bft)
23.09.2019 16:47 19,3 C 19,3 C 19,3 C 71 % 1015,5 hPa 0,0 l/m 4,8 km/h (1 Bft) W 270 0 min 0,7 UV-I 146 W/m 6,4 km/h (2 Bft)
23.09.2019 16:46 19,3 C 19,3 C 19,3 C 69 % 1015,6 hPa 0,0 l/m 4,8 km/h (1 Bft) W 270 0 min 0,7 UV-I 113 W/m 9,7 km/h (2 Bft)
23.09.2019 16:45 19,3 C 19,2 C 19,3 C 69 % 1015,5 hPa 0,0 l/m 6,4 km/h (2 Bft) W 270 0 min 0,7 UV-I 105 W/m 11,3 km/h (2 Bft)
23.09.2019 16:44 19,3 C 19,2 C 19,3 C 71 % 1015,6 hPa 0,0 l/m 6,4 km/h (2 Bft) W 270 0 min 0,7 UV-I 91 W/m 12,9 km/h (3 Bft)
23.09.2019 16:43 19,3 C 19,3 C 19,3 C 70 % 1015,5 hPa 0,0 l/m 4,8 km/h (1 Bft) W-SW 247 0 min 0,8 UV-I 86 W/m 8,0 km/h (2 Bft)
23.09.2019 16:42 19,3 C 19,3 C 19,3 C 69 % 1015,5 hPa 0,0 l/m 4,8 km/h (1 Bft) W 270 0 min 0,8 UV-I 88 W/m 8,0 km/h (2 Bft)
23.09.2019 16:41 19,3 C 19,3 C 19,3 C 70 % 1015,6 hPa 0,0 l/m 3,2 km/h (1 Bft) W-SW 247 0 min 0,9 UV-I 90 W/m 4,8 km/h (1 Bft)
23.09.2019 16:40 19,3 C 19,3 C 19,3 C 69 % 1015,6 hPa 0,0 l/m 4,8 km/h (1 Bft) S-SW 202 0 min 0,9 UV-I 88 W/m 12,9 km/h (3 Bft)
23.09.2019 16:39 19,3 C 19,3 C 19,3 C 70 % 1015,6 hPa 0,0 l/m 4,8 km/h (1 Bft) W 270 0 min 0,9 UV-I 88 W/m 11,3 km/h (2 Bft)
23.09.2019 16:38 19,3 C 19,3 C 19,3 C 68 % 1015,6 hPa 0,0 l/m 4,8 km/h (1 Bft) SW 225 0 min 1,0 UV-I 88 W/m 4,8 km/h (1 Bft)
23.09.2019 16:37 19,3 C 19,3 C 19,4 C 69 % 1015,6 hPa 0,0 l/m 4,8 km/h (1 Bft) SW 225 0 min 1,1 UV-I 91 W/m 6,4 km/h (2 Bft)
23.09.2019 16:36 19,4 C 19,3 C 19,4 C 69 % 1015,6 hPa 0,0 l/m 6,4 km/h (2 Bft) SW 225 0 min 1,1 UV-I 102 W/m 9,7 km/h (2 Bft)
23.09.2019 16:35 19,4 C 19,4 C 19,4 C 68 % 1015,6 hPa 0,0 l/m 4,8 km/h (1 Bft) SW 225 0 min 1,1 UV-I 104 W/m 9,7 km/h (2 Bft)
23.09.2019 16:34 19,4 C 19,4 C 19,4 C 69 % 1015,6 hPa 0,0 l/m 4,8 km/h (1 Bft) W-SW 247 0 min 1,2 UV-I 105 W/m 9,7 km/h (2 Bft)
23.09.2019 16:33 19,4 C 19,4 C 19,4 C 69 % 1015,5 hPa 0,0 l/m 4,8 km/h (1 Bft) W-SW 247 0 min 1,2 UV-I 109 W/m 6,4 km/h (2 Bft)
23.09.2019 16:32 19,4 C 19,4 C 19,5 C 69 % 1015,6 hPa 0,0 l/m 6,4 km/h (2 Bft) S-SW 202 0 min 1,3 UV-I 114 W/m 11,3 km/h (2 Bft)
23.09.2019 16:31 19,5 C 19,5 C 19,6 C 69 % 1015,6 hPa 0,0 l/m 9,7 km/h (2 Bft) W 270 0 min 1,3 UV-I 118 W/m 17,7 km/h (3 Bft)
23.09.2019 16:30 19,6 C 19,6 C 19,6 C 69 % 1015,6 hPa 0,0 l/m 6,4 km/h (2 Bft) SW 225 0 min 1,3 UV-I 125 W/m 9,7 km/h (2 Bft)
23.09.2019 16:29 19,6 C 19,6 C 19,6 C 70 % 1015,6 hPa 0,0 l/m 6,4 km/h (2 Bft) W-SW 247 0 min 1,3 UV-I 127 W/m 11,3 km/h (2 Bft)
23.09.2019 16:28 19,6 C 19,6 C 19,7 C 70 % 1015,6 hPa 0,0 l/m 6,4 km/h (2 Bft) SW 225 0 min 1,3 UV-I 125 W/m 8,0 km/h (2 Bft)
23.09.2019 16:27 19,7 C 19,7 C 19,7 C 67 % 1015,5 hPa 0,0 l/m 6,4 km/h (2 Bft) SW 225 0 min 1,4 UV-I 125 W/m 11,3 km/h (2 Bft)
23.09.2019 16:26 19,7 C 19,7 C 19,8 C 69 % 1015,6 hPa 0,0 l/m 8,0 km/h (2 Bft) W 270 0 min 1,4 UV-I 128 W/m 14,5 km/h (3 Bft)
23.09.2019 16:25 19,8 C 19,8 C 19,8 C 69 % 1015,5 hPa 0,0 l/m 6,4 km/h (2 Bft) SW 225 0 min 1,4 UV-I 130 W/m 14,5 km/h (3 Bft)
23.09.2019 16:24 19,8 C 19,8 C 19,9 C 67 % 1015,6 hPa 0,0 l/m 8,0 km/h (2 Bft) S-SW 202 0 min 1,5 UV-I 137 W/m 12,9 km/h (3 Bft)
23.09.2019 16:23 19,9 C 19,9 C 19,9 C 70 % 1015,6 hPa 0,0 l/m 4,8 km/h (1 Bft) S-SW 202 0 min 1,6 UV-I 195 W/m 8,0 km/h (2 Bft)
23.09.2019 16:22 19,9 C 19,9 C 20,1 C 68 % 1015,6 hPa 0,0 l/m 4,8 km/h (1 Bft) SW 225 0 min 1,7 UV-I 155 W/m 8,0 km/h (2 Bft)
23.09.2019 16:21 20,0 C 20,0 C 20,1 C 66 % 1015,5 hPa 0,0 l/m 8,0 km/h (2 Bft) SW 225 0 min 1,5 UV-I 155 W/m 14,5 km/h (3 Bft)
23.09.2019 16:20 20,1 C 20,1 C 20,2 C 68 % 1015,6 hPa 0,0 l/m 9,7 km/h (2 Bft) SW 225 0 min 1,5 UV-I 142 W/m 16,1 km/h (3 Bft)
23.09.2019 16:19 20,2 C 20,2 C 20,2 C 69 % 1015,6 hPa 0,0 l/m 8,0 km/h (2 Bft) S-SW 202 0 min 1,5 UV-I 141 W/m 12,9 km/h (3 Bft)
23.09.2019 16:18 20,2 C 20,2 C 20,2 C 68 % 1015,5 hPa 0,0 l/m 9,7 km/h (2 Bft) S-SW 202 0 min 1,5 UV-I 142 W/m 16,1 km/h (3 Bft)
23.09.2019 16:17 20,2 C 20,2 C 20,2 C 69 % 1015,6 hPa 0,0 l/m 8,0 km/h (2 Bft) SW 225 1 min 2,1 UV-I 475 W/m 11,3 km/h (2 Bft)
23.09.2019 16:16 20,2 C 20,2 C 20,2 C 66 % 1015,6 hPa 0,0 l/m 8,0 km/h (2 Bft) S-SW 202 1 min 2,1 UV-I 466 W/m 12,9 km/h (3 Bft)
23.09.2019 16:15 20,2 C 20,2 C 20,2 C 70 % 1015,7 hPa 0,0 l/m 4,8 km/h (1 Bft) SW 225 1 min 2,0 UV-I 464 W/m 9,7 km/h (2 Bft)
23.09.2019 16:14 20,2 C 20,1 C 20,2 C 69 % 1015,6 hPa 0,0 l/m 6,4 km/h (2 Bft) W-SW 247 1 min 2,1 UV-I 504 W/m 12,9 km/h (3 Bft)
23.09.2019 16:13 20,1 C 20,1 C 20,1 C 68 % 1015,6 hPa 0,0 l/m 6,4 km/h (2 Bft) S-SW 202 0 min 2,1 UV-I 190 W/m 12,9 km/h (3 Bft)
23.09.2019 16:12 20,1 C 20,1 C 20,1 C 68 % 1015,6 hPa 0,0 l/m 9,7 km/h (2 Bft) SW 225 0 min 2,0 UV-I 190 W/m 17,7 km/h (3 Bft)
23.09.2019 16:11 20,1 C 20,1 C 20,1 C 68 % 1015,6 hPa 0,0 l/m 8,0 km/h (2 Bft) S-SW 202 0 min 1,7 UV-I 190 W/m 12,9 km/h (3 Bft)
23.09.2019 16:10 20,1 C 20,1 C 20,1 C 68 % 1015,6 hPa 0,0 l/m 11,3 km/h (2 Bft) SW 225 1 min 1,5 UV-I 380 W/m 16,1 km/h (3 Bft)
23.09.2019 16:09 20,1 C 20,1 C 20,1 C 69 % 1015,5 hPa 0,0 l/m 3,2 km/h (1 Bft) S-SW 202 1 min 1,8 UV-I 380 W/m 6,4 km/h (2 Bft)
23.09.2019 16:08 20,1 C 20,1 C 20,1 C 71 % 1015,5 hPa 0,0 l/m 4,8 km/h (1 Bft) W-SW 247 0 min 1,8 UV-I 195 W/m 6,4 km/h (2 Bft)
23.09.2019 16:07 20,1 C 20,1 C 20,1 C 71 % 1015,5 hPa 0,0 l/m 4,8 km/h (1 Bft) SW 225 0 min 1,5 UV-I 195 W/m 9,7 km/h (2 Bft)
23.09.2019 16:06 20,1 C 20,1 C 20,1 C 67 % 1015,6 hPa 0,0 l/m 6,4 km/h (2 Bft) SW 225 1 min 1,7 UV-I 274 W/m 9,7 km/h (2 Bft)
23.09.2019 16:05 20,1 C 20,1 C 20,1 C 69 % 1015,6 hPa 0,0 l/m 6,4 km/h (2 Bft) W-SW 247 0 min 1,5 UV-I 186 W/m 11,3 km/h (2 Bft)
23.09.2019 16:04 20,1 C 20,1 C 20,1 C 67 % 1015,5 hPa 0,0 l/m 8,0 km/h (2 Bft) SW 225 1 min 1,5 UV-I 297 W/m 11,3 km/h (2 Bft)
23.09.2019 16:03 20,1 C 20,1 C 20,1 C 68 % 1015,5 hPa 0,0 l/m 8,0 km/h (2 Bft) SW 225 1 min 1,5 UV-I 297 W/m 14,5 km/h (3 Bft)
23.09.2019 16:02 20,1 C 20,1 C 20,1 C 69 % 1015,6 hPa 0,0 l/m 6,4 km/h (2 Bft) SW 225 1 min 1,7 UV-I 348 W/m 11,3 km/h (2 Bft)
23.09.2019 16:01 20,1 C 20,1 C 20,2 C 67 % 1015,5 hPa 0,0 l/m 6,4 km/h (2 Bft) SW 225 1 min 1,6 UV-I 301 W/m 14,5 km/h (3 Bft)
23.09.2019 16:00 20,2 C 20,1 C 20,2 C 69 % 1015,5 hPa 0,0 l/m 6,4 km/h (2 Bft) SW 225 0 min 1,6 UV-I 237 W/m 11,3 km/h (2 Bft)
23.09.2019 15:59 20,2 C 20,2 C 20,2 C 67 % 1015,5 hPa 0,0 l/m 6,4 km/h (2 Bft) SW 225 0 min 1,5 UV-I 206 W/m 9,7 km/h (2 Bft)
23.09.2019 15:58 20,2 C 20,2 C 20,2 C 67 % 1015,5 hPa 0,0 l/m 8,0 km/h (2 Bft) W-SW 247 0 min 1,5 UV-I 183 W/m 14,5 km/h (3 Bft)
23.09.2019 15:57 20,2 C 20,2 C 20,3 C 70 % 1015,4 hPa 0,0 l/m 4,8 km/h (1 Bft) SW 225 0 min 1,5 UV-I 167 W/m 8,0 km/h (2 Bft)
23.09.2019 15:56 20,2 C 20,2 C 20,2 C 69 % 1015,5 hPa 0,0 l/m 6,4 km/h (2 Bft) W 270 0 min 1,6 UV-I 176 W/m 12,9 km/h (3 Bft)
23.09.2019 15:55 20,2 C 20,1 C 20,2 C 69 % 1015,5 hPa 0,0 l/m 6,4 km/h (2 Bft) S-SW 202 1 min 2,0 UV-I 304 W/m 12,9 km/h (3 Bft)
23.09.2019 15:54 20,1 C 20,1 C 20,1 C 70 % 1015,5 hPa 0,0 l/m 4,8 km/h (1 Bft) S-SW 202 1 min 2,0 UV-I 304 W/m 11,3 km/h (2 Bft)
23.09.2019 15:53 20,1 C 20,0 C 20,1 C 70 % 1015,5 hPa 0,0 l/m 6,4 km/h (2 Bft) S-SW 202 1 min 1,8 UV-I 563 W/m 8,0 km/h (2 Bft)
23.09.2019 15:52 20,0 C 19,9 C 20,0 C 69 % 1015,5 hPa 0,0 l/m 6,4 km/h (2 Bft) SW 225 1 min 2,1 UV-I 563 W/m 8,0 km/h (2 Bft)
23.09.2019 15:51 19,9 C 19,9 C 19,9 C 74 % 1015,6 hPa 0,0 l/m 6,4 km/h (2 Bft) SW 225 1 min 2,1 UV-I 540 W/m 12,9 km/h (3 Bft)
23.09.2019 15:50 19,9 C 19,8 C 19,9 C 73 % 1015,5 hPa 0,0 l/m 4,8 km/h (1 Bft) SW 225 0 min 2,0 UV-I 236 W/m 11,3 km/h (2 Bft)
23.09.2019 15:49 19,8 C 19,8 C 19,8 C 71 % 1015,5 hPa 0,0 l/m 4,8 km/h (1 Bft) S-SW 202 0 min 1,5 UV-I 236 W/m 9,7 km/h (2 Bft)
23.09.2019 15:48 19,8 C 19,8 C 19,8 C 71 % 1015,4 hPa 0,0 l/m 9,7 km/h (2 Bft) W-SW 247 0 min 1,7 UV-I 186 W/m 14,5 km/h (3 Bft)
23.09.2019 15:47 19,8 C 19,8 C 19,8 C 70 % 1015,5 hPa 0,0 l/m 11,3 km/h (2 Bft) W 270 0 min 1,4 UV-I 186 W/m 17,7 km/h (3 Bft)
23.09.2019 15:46 19,8 C 19,8 C 19,8 C 71 % 1015,4 hPa 0,0 l/m 6,4 km/h (2 Bft) W 270 0 min 1,4 UV-I 186 W/m 12,9 km/h (3 Bft)
23.09.2019 15:45 19,8 C 19,8 C 19,9 C 73 % 1015,5 hPa 0,0 l/m 4,8 km/h (1 Bft) SW 225 0 min 1,3 UV-I 176 W/m 9,7 km/h (2 Bft)
23.09.2019 15:44 19,9 C 19,9 C 19,9 C 72 % 1015,5 hPa 0,0 l/m 6,4 km/h (2 Bft) S-SW 202 0 min 1,4 UV-I 190 W/m 14,5 km/h (3 Bft)
23.09.2019 15:43 19,9 C 19,9 C 19,9 C 74 % 1015,4 hPa 0,0 l/m 4,8 km/h (1 Bft) SW 225 0 min 1,4 UV-I 176 W/m 9,7 km/h (2 Bft)
23.09.2019 15:42 19,8 C 19,8 C 19,9 C 74 % 1015,4 hPa 0,0 l/m 4,8 km/h (1 Bft) S-SW 202 0 min 1,4 UV-I 185 W/m 9,7 km/h (2 Bft)
23.09.2019 15:41 19,8 C 19,8 C 19,8 C 75 % 1015,4 hPa 0,0 l/m 4,8 km/h (1 Bft) W 270 0 min 1,9 UV-I 244 W/m 9,7 km/h (2 Bft)
23.09.2019 15:40 19,8 C 19,8 C 19,8 C 73 % 1015,5 hPa 0,0 l/m 6,4 km/h (2 Bft) SW 225 0 min 1,9 UV-I 244 W/m 9,7 km/h (2 Bft)
23.09.2019 15:39 19,8 C 19,8 C 19,8 C 72 % 1015,5 hPa 0,0 l/m 6,4 km/h (2 Bft) W 270 0 min 1,8 UV-I 244 W/m 16,1 km/h (3 Bft)
23.09.2019 15:38 19,8 C 19,7 C 19,8 C 73 % 1015,4 hPa 0,0 l/m 3,2 km/h (1 Bft) W-SW 247 0 min 1,7 UV-I 244 W/m 8,0 km/h (2 Bft)
23.09.2019 15:37 19,7 C 19,7 C 19,7 C 70 % 1015,5 hPa 0,0 l/m 11,3 km/h (2 Bft) S-SW 202 1 min 1,8 UV-I 294 W/m 17,7 km/h (3 Bft)
23.09.2019 15:36 19,7 C 19,7 C 19,8 C 70 % 1015,5 hPa 0,0 l/m 8,0 km/h (2 Bft) S-SW 202 0 min 1,6 UV-I 200 W/m 11,3 km/h (2 Bft)
23.09.2019 15:35 19,7 C 19,7 C 19,8 C 70 % 1015,5 hPa 0,0 l/m 8,0 km/h (2 Bft) SW 225 0 min 1,7 UV-I 197 W/m 12,9 km/h (3 Bft)
23.09.2019 15:34 19,8 C 19,8 C 19,8 C 71 % 1015,5 hPa 0,0 l/m 9,7 km/h (2 Bft) SW 225 0 min 1,7 UV-I 209 W/m 12,9 km/h (3 Bft)
23.09.2019 15:33 19,8 C 19,8 C 19,8 C 70 % 1015,5 hPa 0,0 l/m 8,0 km/h (2 Bft) S-SW 202 0 min 1,7 UV-I 195 W/m 12,9 km/h (3 Bft)
23.09.2019 15:32 19,8 C 19,8 C 19,8 C 69 % 1015,5 hPa 0,0 l/m 9,7 km/h (2 Bft) S-SW 202 0 min 2,0 UV-I 239 W/m 12,9 km/h (3 Bft)
23.09.2019 15:31 19,8 C 19,8 C 19,8 C 70 % 1015,5 hPa 0,0 l/m 6,4 km/h (2 Bft) SW 225 0 min 1,8 UV-I 204 W/m 12,9 km/h (3 Bft)
23.09.2019 15:30 19,8 C 19,8 C 19,9 C 70 % 1015,5 hPa 0,0 l/m 4,8 km/h (1 Bft) SW 225 0 min 1,9 UV-I 223 W/m 8,0 km/h (2 Bft)
23.09.2019 15:29 19,9 C 19,9 C 19,9 C 71 % 1015,5 hPa 0,0 l/m 6,4 km/h (2 Bft) S-SW 202 0 min 1,9 UV-I 223 W/m 14,5 km/h (3 Bft)
23.09.2019 15:28 19,9 C 19,8 C 19,9 C 69 % 1015,4 hPa 0,0 l/m 6,4 km/h (2 Bft) S-SW 202 0 min 2,1 UV-I 223 W/m 11,3 km/h (2 Bft)
23.09.2019 15:27 19,9 C 19,9 C 20,0 C 68 % 1015,4 hPa 0,0 l/m 6,4 km/h (2 Bft) SW 225 0 min 1,8 UV-I 165 W/m 14,5 km/h (3 Bft)
23.09.2019 15:26 20,0 C 20,0 C 20,1 C 69 % 1015,5 hPa 0,0 l/m 8,0 km/h (2 Bft) S-SW 202 0 min 1,9 UV-I 165 W/m 14,5 km/h (3 Bft)
23.09.2019 15:25 20,1 C 20,1 C 20,2 C 70 % 1015,4 hPa 0,0 l/m 6,4 km/h (2 Bft) SW 225 0 min 1,7 UV-I 251 W/m 12,9 km/h (3 Bft)
23.09.2019 15:24 20,2 C 20,2 C 20,2 C 69 % 1015,4 hPa 0,0 l/m 11,3 km/h (2 Bft) S-SW 202 0 min 1,7 UV-I 135 W/m 14,5 km/h (3 Bft)
23.09.2019 15:23 20,2 C 20,2 C 20,2 C 70 % 1015,4 hPa 0,0 l/m 9,7 km/h (2 Bft) S-SW 202 1 min 1,7 UV-I 387 W/m 14,5 km/h (3 Bft)
23.09.2019 15:22 20,2 C 20,2 C 20,3 C 68 % 1015,4 hPa 0,0 l/m 8,0 km/h (2 Bft) SW 225 1 min 2,1 UV-I 387 W/m 17,7 km/h (3 Bft)
23.09.2019 15:21 20,3 C 20,3 C 20,3 C 69 % 1015,4 hPa 0,0 l/m 6,4 km/h (2 Bft) S-SW 202 1 min 2,2 UV-I 397 W/m 11,3 km/h (2 Bft)
23.09.2019 15:20 20,3 C 20,2 C 20,3 C 70 % 1015,3 hPa 0,0 l/m 9,7 km/h (2 Bft) S-SW 202 1 min 2,3 UV-I 557 W/m 14,5 km/h (3 Bft)
23.09.2019 15:19 20,2 C 20,2 C 20,2 C 70 % 1015,3 hPa 0,0 l/m 8,0 km/h (2 Bft) S 180 1 min 2,4 UV-I 508 W/m 12,9 km/h (3 Bft)
23.09.2019 15:18 20,2 C 20,2 C 20,2 C 71 % 1015,3 hPa 0,0 l/m 8,0 km/h (2 Bft) SW 225 1 min 2,4 UV-I 564 W/m 12,9 km/h (3 Bft)
23.09.2019 15:17 20,2 C 20,2 C 20,2 C 72 % 1015,3 hPa 0,0 l/m 6,4 km/h (2 Bft) S-SW 202 1 min 2,4 UV-I 510 W/m 8,0 km/h (2 Bft)
23.09.2019 15:16 20,2 C 20,1 C 20,2 C 71 % 1015,4 hPa 0,0 l/m 6,4 km/h (2 Bft) S 180 1 min 2,4 UV-I 519 W/m 11,3 km/h (2 Bft)
23.09.2019 15:15 20,2 C 20,1 C 20,2 C 73 % 1015,3 hPa 0,0 l/m 8,0 km/h (2 Bft) S 180 1 min 2,3 UV-I 443 W/m 11,3 km/h (2 Bft)
23.09.2019 15:14 20,1 C 20,1 C 20,1 C 70 % 1015,4 hPa 0,0 l/m 8,0 km/h (2 Bft) S-SW 202 1 min 2,4 UV-I 527 W/m 12,9 km/h (3 Bft)
23.09.2019 15:13 20,1 C 20,0 C 20,1 C 71 % 1015,3 hPa 0,0 l/m 8,0 km/h (2 Bft) S 180 1 min 2,4 UV-I 519 W/m 16,1 km/h (3 Bft)
23.09.2019 15:12 20,1 C 20,0 C 20,1 C 71 % 1015,4 hPa 0,0 l/m 8,0 km/h (2 Bft) S 180 1 min 2,4 UV-I 490 W/m 14,5 km/h (3 Bft)
23.09.2019 15:11 20,1 C 20,0 C 20,1 C 71 % 1015,4 hPa 0,0 l/m 6,4 km/h (2 Bft) SW 225 1 min 2,5 UV-I 577 W/m 14,5 km/h (3 Bft)
23.09.2019 15:10 20,1 C 20,0 C 20,1 C 71 % 1015,4 hPa 0,0 l/m 6,4 km/h (2 Bft) S-SW 202 1 min 2,6 UV-I 577 W/m 11,3 km/h (2 Bft)
23.09.2019 15:09 20,1 C 20,1 C 20,1 C 69 % 1015,4 hPa 0,0 l/m 6,4 km/h (2 Bft) SW 225 1 min 2,6 UV-I 598 W/m 8,0 km/h (2 Bft)
23.09.2019 15:08 20,1 C 20,1 C 20,1 C 73 % 1015,4 hPa 0,0 l/m 11,3 km/h (2 Bft) SW 225 1 min 2,6 UV-I 543 W/m 16,1 km/h (3 Bft)
23.09.2019 15:07 20,1 C 20,1 C 20,1 C 71 % 1015,4 hPa 0,0 l/m 9,7 km/h (2 Bft) SW 225 1 min 2,7 UV-I 483 W/m 16,1 km/h (3 Bft)
23.09.2019 15:06 20,1 C 20,1 C 20,1 C 72 % 1015,4 hPa 0,0 l/m 8,0 km/h (2 Bft) S 180 1 min 2,2 UV-I 645 W/m 16,1 km/h (3 Bft)
23.09.2019 15:05 20,1 C 19,9 C 20,1 C 76 % 1015,4 hPa 0,0 l/m 11,3 km/h (2 Bft) SW 225 1 min 2,8 UV-I 645 W/m 16,1 km/h (3 Bft)
23.09.2019 15:04 19,9 C 19,8 C 19,9 C 75 % 1015,4 hPa 0,0 l/m 4,8 km/h (1 Bft) S-SW 202 1 min 2,9 UV-I 643 W/m 9,7 km/h (2 Bft)
23.09.2019 15:03 19,8 C 19,8 C 19,8 C 73 % 1015,4 hPa 0,0 l/m 4,8 km/h (1 Bft) W 270 1 min 2,6 UV-I 635 W/m 11,3 km/h (2 Bft)
23.09.2019 15:02 19,8 C 19,8 C 19,8 C 72 % 1015,4 hPa 0,0 l/m 1,6 km/h (1 Bft) W-SW 247 1 min 2,6 UV-I 373 W/m 4,8 km/h (1 Bft)
23.09.2019 15:01 19,8 C 19,8 C 19,8 C 73 % 1015,4 hPa 0,0 l/m 6,4 km/h (2 Bft) SW 225 0 min 2,1 UV-I 308 W/m 9,7 km/h (2 Bft)
23.09.2019 15:00 19,8 C 19,8 C 19,8 C 72 % 1015,5 hPa 0,0 l/m 11,3 km/h (2 Bft) S-SW 202 1 min 2,1 UV-I 563 W/m 16,1 km/h (3 Bft)
23.09.2019 14:59 19,8 C 19,8 C 19,8 C 74 % 1015,4 hPa 0,0 l/m 6,4 km/h (2 Bft) SW 225 1 min 2,5 UV-I 563 W/m 9,7 km/h (2 Bft)
23.09.2019 14:58 19,8 C 19,8 C 19,8 C 74 % 1015,4 hPa 0,0 l/m 6,4 km/h (2 Bft) SW 225 1 min 2,6 UV-I 446 W/m 9,7 km/h (2 Bft)
23.09.2019 14:57 19,8 C 19,8 C 19,8 C 76 % 1015,4 hPa 0,0 l/m 4,8 km/h (1 Bft) SW 225 1 min 2,8 UV-I 446 W/m 8,0 km/h (2 Bft)
23.09.2019 14:56 19,7 C 19,7 C 19,7 C 75 % 1015,4 hPa 0,0 l/m 3,2 km/h (1 Bft) S 180 1 min 2,6 UV-I 446 W/m 8,0 km/h (2 Bft)
23.09.2019 14:55 19,7 C 19,7 C 19,7 C 74 % 1015,4 hPa 0,0 l/m 4,8 km/h (1 Bft) W-SW 247 0 min 2,7 UV-I 253 W/m 11,3 km/h (2 Bft)
23.09.2019 14:54 19,7 C 19,7 C 19,7 C 78 % 1015,4 hPa 0,0 l/m 6,4 km/h (2 Bft) W-SW 247 0 min 2,4 UV-I 253 W/m 11,3 km/h (2 Bft)
23.09.2019 14:53 19,7 C 19,7 C 19,7 C 74 % 1015,4 hPa 0,0 l/m 8,0 km/h (2 Bft) W 270 0 min 2,3 UV-I 251 W/m 11,3 km/h (2 Bft)
23.09.2019 14:52 19,7 C 19,6 C 19,7 C 75 % 1015,4 hPa 0,0 l/m 6,4 km/h (2 Bft) W 270 1 min 2,1 UV-I 482 W/m 11,3 km/h (2 Bft)
23.09.2019 14:51 19,7 C 19,7 C 19,8 C 72 % 1015,4 hPa 0,0 l/m 4,8 km/h (1 Bft) W 270 1 min 2,7 UV-I 482 W/m 9,7 km/h (2 Bft)
23.09.2019 14:50 19,7 C 19,7 C 19,8 C 72 % 1015,4 hPa 0,0 l/m 6,4 km/h (2 Bft) W-SW 247 1 min 2,8 UV-I 496 W/m 11,3 km/h (2 Bft)
23.09.2019 14:49 19,8 C 19,8 C 19,8 C 74 % 1015,4 hPa 0,0 l/m 8,0 km/h (2 Bft) SW 225 1 min 2,5 UV-I 376 W/m 14,5 km/h (3 Bft)
23.09.2019 14:48 19,8 C 19,8 C 19,9 C 73 % 1015,4 hPa 0,0 l/m 9,7 km/h (2 Bft) S-SW 202 1 min 2,5 UV-I 345 W/m 14,5 km/h (3 Bft)
23.09.2019 14:47 19,8 C 19,8 C 19,8 C 75 % 1015,4 hPa 0,0 l/m 6,4 km/h (2 Bft) S-SW 202 1 min 2,6 UV-I 418 W/m 14,5 km/h (3 Bft)
23.09.2019 14:46 19,8 C 19,8 C 19,8 C 75 % 1015,4 hPa 0,0 l/m 4,8 km/h (1 Bft) S-SW 202 1 min 2,6 UV-I 418 W/m 8,0 km/h (2 Bft)
23.09.2019 14:45 19,8 C 19,8 C 19,8 C 74 % 1015,4 hPa 0,0 l/m 4,8 km/h (1 Bft) S-SW 202 1 min 2,7 UV-I 418 W/m 8,0 km/h (2 Bft)
23.09.2019 14:44 19,8 C 19,7 C 19,8 C 74 % 1015,4 hPa 0,0 l/m 8,0 km/h (2 Bft) S-SW 202 1 min 3,1 UV-I 621 W/m 11,3 km/h (2 Bft)
23.09.2019 14:43 19,7 C 19,7 C 19,7 C 73 % 1015,4 hPa 0,0 l/m 8,0 km/h (2 Bft) SW 225 1 min 3,1 UV-I 446 W/m 9,7 km/h (2 Bft)
23.09.2019 14:42 19,7 C 19,7 C 19,7 C 76 % 1015,3 hPa 0,0 l/m 8,0 km/h (2 Bft) S-SW 202 1 min 2,5 UV-I 446 W/m 12,9 km/h (3 Bft)
23.09.2019 14:41 19,7 C 19,6 C 19,7 C 74 % 1015,4 hPa 0,0 l/m 3,2 km/h (1 Bft) SW 225 1 min 2,8 UV-I 446 W/m 9,7 km/h (2 Bft)
23.09.2019 14:40 19,6 C 19,6 C 19,6 C 74 % 1015,4 hPa 0,0 l/m 8,0 km/h (2 Bft) W 270 1 min 2,9 UV-I 619 W/m 14,5 km/h (3 Bft)
23.09.2019 14:39 19,6 C 19,6 C 19,6 C 75 % 1015,3 hPa 0,0 l/m 8,0 km/h (2 Bft) SW 225 1 min 3,0 UV-I 619 W/m 12,9 km/h (3 Bft)
23.09.2019 14:38 19,6 C 19,5 C 19,6 C 72 % 1015,3 hPa 0,0 l/m 9,7 km/h (2 Bft) SW 225 1 min 3,0 UV-I 619 W/m 12,9 km/h (3 Bft)
23.09.2019 14:37 19,5 C 19,4 C 19,5 C 76 % 1015,3 hPa 0,0 l/m 9,7 km/h (2 Bft) S-SW 202 1 min 3,0 UV-I 619 W/m 14,5 km/h (3 Bft)
23.09.2019 14:36 19,4 C 19,4 C 19,4 C 74 % 1015,3 hPa 0,0 l/m 6,4 km/h (2 Bft) S-SW 202 1 min 3,0 UV-I 338 W/m 11,3 km/h (2 Bft)
23.09.2019 14:35 19,3 C 19,3 C 19,3 C 74 % 1015,3 hPa 0,0 l/m 9,7 km/h (2 Bft) SW 225 1 min 2,9 UV-I 338 W/m 14,5 km/h (3 Bft)
23.09.2019 14:34 19,3 C 19,3 C 19,3 C 74 % 1015,4 hPa 0,0 l/m 9,7 km/h (2 Bft) SW 225 1 min 2,2 UV-I 338 W/m 14,5 km/h (3 Bft)
23.09.2019 14:33 19,3 C 19,3 C 19,3 C 75 % 1015,3 hPa 0,0 l/m 11,3 km/h (2 Bft) S-SW 202 1 min 2,3 UV-I 338 W/m 16,1 km/h (3 Bft)
23.09.2019 14:32 19,3 C 19,3 C 19,3 C 75 % 1015,3 hPa 0,0 l/m 8,0 km/h (2 Bft) SW 225 0 min 2,3 UV-I 214 W/m 12,9 km/h (3 Bft)
23.09.2019 14:31 19,3 C 19,3 C 19,3 C 76 % 1015,3 hPa 0,0 l/m 6,4 km/h (2 Bft) SW 225 0 min 2,2 UV-I 214 W/m 12,9 km/h (3 Bft)
23.09.2019 14:30 19,3 C 19,3 C 19,3 C 76 % 1015,3 hPa 0,0 l/m 4,8 km/h (1 Bft) S-SW 202 0 min 2,1 UV-I 214 W/m 6,4 km/h (2 Bft)
23.09.2019 14:29 19,3 C 19,3 C 19,3 C 77 % 1015,4 hPa 0,0 l/m 6,4 km/h (2 Bft) SW 225 0 min 2,1 UV-I 171 W/m 9,7 km/h (2 Bft)
23.09.2019 14:28 19,3 C 19,2 C 19,3 C 75 % 1015,4 hPa 0,0 l/m 4,8 km/h (1 Bft) S-SW 202 0 min 2,2 UV-I 183 W/m 8,0 km/h (2 Bft)
23.09.2019 14:27 19,3 C 19,2 C 19,3 C 75 % 1015,4 hPa 0,0 l/m 6,4 km/h (2 Bft) SW 225 1 min 2,3 UV-I 469 W/m 8,0 km/h (2 Bft)
23.09.2019 14:26 19,2 C 19,1 C 19,2 C 78 % 1015,4 hPa 0,0 l/m 6,4 km/h (2 Bft) S-SW 202 0 min 2,3 UV-I 225 W/m 12,9 km/h (3 Bft)
23.09.2019 14:25 19,1 C 19,0 C 19,1 C 80 % 1015,4 hPa 0,0 l/m 6,4 km/h (2 Bft) SW 225 0 min 3,2 UV-I 225 W/m 12,9 km/h (3 Bft)
23.09.2019 14:24 19,1 C 19,0 C 19,1 C 78 % 1015,3 hPa 0,0 l/m 8,0 km/h (2 Bft) SW 225 0 min 2,2 UV-I 225 W/m 12,9 km/h (3 Bft)
23.09.2019 14:23 19,0 C 19,0 C 19,1 C 78 % 1015,3 hPa 0,0 l/m 4,8 km/h (1 Bft) SW 225 0 min 2,5 UV-I 213 W/m 8,0 km/h (2 Bft)
23.09.2019 14:22 19,0 C 19,0 C 19,0 C 78 % 1015,3 hPa 0,0 l/m 4,8 km/h (1 Bft) W-SW 247 0 min 2,0 UV-I 165 W/m 8,0 km/h (2 Bft)
23.09.2019 14:21 19,0 C 18,9 C 19,0 C 79 % 1015,4 hPa 0,0 l/m 8,0 km/h (2 Bft) W 270 0 min 2,1 UV-I 193 W/m 11,3 km/h (2 Bft)
23.09.2019 14:20 19,0 C 18,9 C 19,0 C 79 % 1015,3 hPa 0,0 l/m 8,0 km/h (2 Bft) W 270 0 min 2,2 UV-I 243 W/m 14,5 km/h (3 Bft)
23.09.2019 14:19 18,9 C 18,9 C 18,9 C 79 % 1015,4 hPa 0,0 l/m 3,2 km/h (1 Bft) W 270 0 min 2,3 UV-I 283 W/m 9,7 km/h (2 Bft)
23.09.2019 14:18 18,9 C 18,8 C 18,9 C 78 % 1015,3 hPa 0,0 l/m 3,2 km/h (1 Bft) SW 225 0 min 2,3 UV-I 285 W/m 4,8 km/h (1 Bft)
23.09.2019 14:17 18,8 C 18,8 C 18,8 C 78 % 1015,3 hPa 0,0 l/m 4,8 km/h (1 Bft) W 270 0 min 2,2 UV-I 267 W/m 6,4 km/h (2 Bft)
23.09.2019 14:16 18,8 C 18,8 C 18,8 C 78 % 1015,3 hPa 0,0 l/m 6,4 km/h (2 Bft) W 270 0 min 2,2 UV-I 292 W/m 11,3 km/h (2 Bft)
23.09.2019 14:15 18,8 C 18,8 C 18,8 C 78 % 1015,4 hPa 0,0 l/m 3,2 km/h (1 Bft) W 270 0 min 2,2 UV-I 271 W/m 6,4 km/h (2 Bft)
23.09.2019 14:14 18,8 C 18,7 C 18,8 C 77 % 1015,4 hPa 0,0 l/m 3,2 km/h (1 Bft) SW 225 0 min 2,1 UV-I 244 W/m 6,4 km/h (2 Bft)
23.09.2019 14:13 18,8 C 18,7 C 18,8 C 78 % 1015,3 hPa 0,0 l/m 4,8 km/h (1 Bft) S-SW 202 0 min 2,0 UV-I 232 W/m 9,7 km/h (2 Bft)
23.09.2019 14:12 18,7 C 18,7 C 18,7 C 78 % 1015,4 hPa 0,0 l/m 4,8 km/h (1 Bft) S-SW 202 0 min 2,0 UV-I 234 W/m 8,0 km/h (2 Bft)
23.09.2019 14:11 18,7 C 18,7 C 18,7 C 77 % 1015,5 hPa 0,0 l/m 6,4 km/h (2 Bft) SW 225 0 min 2,1 UV-I 250 W/m 9,7 km/h (2 Bft)
23.09.2019 14:10 18,7 C 18,6 C 18,7 C 80 % 1015,4 hPa 0,0 l/m 8,0 km/h (2 Bft) S-SW 202 0 min 2,1 UV-I 253 W/m 16,1 km/h (3 Bft)
23.09.2019 14:09 18,6 C 18,6 C 18,6 C 79 % 1015,5 hPa 0,0 l/m 4,8 km/h (1 Bft) W 270 0 min 2,0 UV-I 243 W/m 9,7 km/h (2 Bft)
23.09.2019 14:08 18,6 C 18,6 C 18,6 C 77 % 1015,5 hPa 0,0 l/m 6,4 km/h (2 Bft) SW 225 0 min 1,8 UV-I 209 W/m 11,3 km/h (2 Bft)
23.09.2019 14:07 18,6 C 18,6 C 18,6 C 80 % 1015,5 hPa 0,0 l/m 6,4 km/h (2 Bft) SW 225 0 min 1,7 UV-I 188 W/m 9,7 km/h (2 Bft)
23.09.2019 14:06 18,6 C 18,6 C 18,6 C 77 % 1015,5 hPa 0,0 l/m 6,4 km/h (2 Bft) S-SW 202 0 min 1,8 UV-I 206 W/m 11,3 km/h (2 Bft)
23.09.2019 14:05 18,6 C 18,6 C 18,6 C 80 % 1015,6 hPa 0,0 l/m 4,8 km/h (1 Bft) S-SW 202 0 min 1,9 UV-I 206 W/m 9,7 km/h (2 Bft)
23.09.2019 14:04 18,6 C 18,5 C 18,6 C 79 % 1015,5 hPa 0,0 l/m 4,8 km/h (1 Bft) SW 225 0 min 1,9 UV-I 221 W/m 11,3 km/h (2 Bft)
23.09.2019 14:03 18,5 C 18,5 C 18,5 C 79 % 1015,6 hPa 0,0 l/m 6,4 km/h (2 Bft) SW 225 0 min 1,9 UV-I 241 W/m 9,7 km/h (2 Bft)
23.09.2019 14:02 18,5 C 18,4 C 18,5 C 80 % 1015,6 hPa 0,0 l/m 6,4 km/h (2 Bft) SW 225 0 min 1,9 UV-I 239 W/m 9,7 km/h (2 Bft)
23.09.2019 14:01 18,4 C 18,4 C 18,4 C 79 % 1015,6 hPa 0,0 l/m 6,4 km/h (2 Bft) SW 225 0 min 1,9 UV-I 237 W/m 11,3 km/h (2 Bft)
23.09.2019 14:00 18,4 C 18,4 C 18,4 C 79 % 1015,6 hPa 0,0 l/m 8,0 km/h (2 Bft) W-SW 247 0 min 1,9 UV-I 239 W/m 16,1 km/h (3 Bft)
23.09.2019 13:59 18,4 C 18,4 C 18,4 C 78 % 1015,5 hPa 0,0 l/m 8,0 km/h (2 Bft) SW 225 0 min 1,8 UV-I 241 W/m 11,3 km/h (2 Bft)
23.09.2019 13:58 18,4 C 18,4 C 18,4 C 79 % 1015,5 hPa 0,0 l/m 6,4 km/h (2 Bft) S-SW 202 0 min 1,8 UV-I 241 W/m 11,3 km/h (2 Bft)
23.09.2019 13:57 18,4 C 18,4 C 18,5 C 79 % 1015,5 hPa 0,0 l/m 8,0 km/h (2 Bft) SW 225 0 min 1,8 UV-I 216 W/m 12,9 km/h (3 Bft)
23.09.2019 13:56 18,4 C 18,4 C 18,4 C 80 % 1015,5 hPa 0,0 l/m 9,7 km/h (2 Bft) S-SW 202 0 min 1,7 UV-I 193 W/m 16,1 km/h (3 Bft)
23.09.2019 13:55 18,4 C 18,4 C 18,4 C 81 % 1015,5 hPa 0,0 l/m 4,8 km/h (1 Bft) SW 225 0 min 1,6 UV-I 181 W/m 9,7 km/h (2 Bft)
23.09.2019 13:54 18,4 C 18,4 C 18,4 C 79 % 1015,5 hPa 0,0 l/m 3,2 km/h (1 Bft) S-SW 202 0 min 1,7 UV-I 188 W/m 6,4 km/h (2 Bft)
23.09.2019 13:53 18,4 C 18,4 C 18,4 C 80 % 1015,5 hPa 0,0 l/m 6,4 km/h (2 Bft) S-SW 202 0 min 1,8 UV-I 200 W/m 8,0 km/h (2 Bft)
23.09.2019 13:52 18,4 C 18,4 C 18,4 C 80 % 1015,6 hPa 0,0 l/m 4,8 km/h (1 Bft) S-SW 202 0 min 1,8 UV-I 221 W/m 6,4 km/h (2 Bft)
23.09.2019 13:51 18,4 C 18,4 C 18,4 C 79 % 1015,5 hPa 0,0 l/m 3,2 km/h (1 Bft) W 270 0 min 1,9 UV-I 223 W/m 6,4 km/h (2 Bft)
23.09.2019 13:50 18,4 C 18,4 C 18,4 C 78 % 1015,5 hPa 0,0 l/m 4,8 km/h (1 Bft) SW 225 0 min 1,9 UV-I 220 W/m 8,0 km/h (2 Bft)
23.09.2019 13:49 18,4 C 18,4 C 18,4 C 79 % 1015,5 hPa 0,0 l/m 6,4 km/h (2 Bft) S-SW 202 0 min 2,0 UV-I 220 W/m 9,7 km/h (2 Bft)
23.09.2019 13:48 18,4 C 18,4 C 18,4 C 79 % 1015,5 hPa 0,0 l/m 3,2 km/h (1 Bft) SW 225 0 min 2,0 UV-I 225 W/m 6,4 km/h (2 Bft)
23.09.2019 13:47 18,4 C 18,3 C 18,4 C 82 % 1015,5 hPa 0,0 l/m 6,4 km/h (2 Bft) S-SW 202 0 min 2,2 UV-I 234 W/m 9,7 km/h (2 Bft)
23.09.2019 13:46 18,3 C 18,3 C 18,3 C 79 % 1015,5 hPa 0,0 l/m 6,4 km/h (2 Bft) SW 225 0 min 2,2 UV-I 244 W/m 11,3 km/h (2 Bft)
23.09.2019 13:45 18,3 C 18,2 C 18,3 C 81 % 1015,5 hPa 0,0 l/m 4,8 km/h (1 Bft) SW 225 0 min 2,2 UV-I 239 W/m 9,7 km/h (2 Bft)
23.09.2019 13:44 18,3 C 18,2 C 18,3 C 80 % 1015,5 hPa 0,0 l/m 6,4 km/h (2 Bft) S-SW 202 0 min 2,2 UV-I 227 W/m 12,9 km/h (3 Bft)
23.09.2019 13:43 18,2 C 18,2 C 18,2 C 78 % 1015,5 hPa 0,0 l/m 6,4 km/h (2 Bft) W-SW 247 0 min 2,2 UV-I 216 W/m 12,9 km/h (3 Bft)
23.09.2019 13:42 18,2 C 18,2 C 18,3 C 80 % 1015,5 hPa 0,0 l/m 8,0 km/h (2 Bft) SW 225 0 min 2,2 UV-I 206 W/m 14,5 km/h (3 Bft)
23.09.2019 13:41 18,2 C 18,2 C 18,3 C 80 % 1015,5 hPa 0,0 l/m 4,8 km/h (1 Bft) W 270 0 min 2,1 UV-I 197 W/m 8,0 km/h (2 Bft)
23.09.2019 13:40 18,3 C 18,3 C 18,3 C 81 % 1015,6 hPa 0,0 l/m 3,2 km/h (1 Bft) S-SW 202 0 min 1,9 UV-I 171 W/m 6,4 km/h (2 Bft)
23.09.2019 13:39 18,3 C 18,3 C 18,3 C 81 % 1015,5 hPa 0,0 l/m 4,8 km/h (1 Bft) S-SW 202 0 min 1,9 UV-I 141 W/m 8,0 km/h (2 Bft)
23.09.2019 13:38 18,3 C 18,3 C 18,3 C 80 % 1015,5 hPa 0,0 l/m 3,2 km/h (1 Bft) SW 225 0 min 1,9 UV-I 132 W/m 4,8 km/h (1 Bft)
23.09.2019 13:37 18,3 C 18,3 C 18,4 C 78 % 1015,5 hPa 0,0 l/m 8,0 km/h (2 Bft) S-SW 202 0 min 1,9 UV-I 125 W/m 12,9 km/h (3 Bft)
23.09.2019 13:36 18,4 C 18,4 C 18,4 C 79 % 1015,6 hPa 0,0 l/m 9,7 km/h (2 Bft) SW 225 0 min 1,9 UV-I 111 W/m 14,5 km/h (3 Bft)
23.09.2019 13:35 18,5 C 18,5 C 18,6 C 79 % 1015,6 hPa 0,0 l/m 4,8 km/h (1 Bft) W-SW 247 0 min 2,0 UV-I 111 W/m 12,9 km/h (3 Bft)
23.09.2019 13:34 18,6 C 18,6 C 18,6 C 79 % 1015,5 hPa 0,0 l/m 6,4 km/h (2 Bft) S-SW 202 0 min 2,1 UV-I 123 W/m 11,3 km/h (2 Bft)
23.09.2019 13:33 18,7 C 18,7 C 18,7 C 80 % 1015,6 hPa 0,0 l/m 8,0 km/h (2 Bft) W-SW 247 0 min 2,1 UV-I 135 W/m 12,9 km/h (3 Bft)
23.09.2019 13:32 18,7 C 18,7 C 18,7 C 80 % 1015,6 hPa 0,0 l/m 8,0 km/h (2 Bft) S-SW 202 0 min 2,2 UV-I 137 W/m 12,9 km/h (3 Bft)
23.09.2019 13:31 18,8 C 18,8 C 18,8 C 81 % 1015,6 hPa 0,0 l/m 8,0 km/h (2 Bft) S-SW 202 0 min 2,2 UV-I 144 W/m 12,9 km/h (3 Bft)
23.09.2019 13:30 18,8 C 18,7 C 18,8 C 81 % 1015,5 hPa 0,0 l/m 9,7 km/h (2 Bft) S-SW 202 0 min 2,2 UV-I 146 W/m 11,3 km/h (2 Bft)
23.09.2019 13:29 18,7 C 18,7 C 18,7 C 80 % 1015,5 hPa 0,0 l/m 8,0 km/h (2 Bft) W 270 0 min 2,2 UV-I 142 W/m 14,5 km/h (3 Bft)
23.09.2019 13:28 18,7 C 18,7 C 18,7 C 80 % 1015,5 hPa 0,0 l/m 6,4 km/h (2 Bft) SW 225 0 min 2,3 UV-I 155 W/m 11,3 km/h (2 Bft)
23.09.2019 13:27 18,7 C 18,7 C 18,7 C 82 % 1015,4 hPa 0,0 l/m 4,8 km/h (1 Bft) S 180 0 min 2,3 UV-I 176 W/m 11,3 km/h (2 Bft)
23.09.2019 13:26 18,7 C 18,6 C 18,7 C 81 % 1015,4 hPa 0,0 l/m 3,2 km/h (1 Bft) SW 225 0 min 2,4 UV-I 188 W/m 6,4 km/h (2 Bft)
23.09.2019 13:25 18,6 C 18,6 C 18,6 C 82 % 1015,4 hPa 0,0 l/m 4,8 km/h (1 Bft) W 270 0 min 2,4 UV-I 188 W/m 11,3 km/h (2 Bft)
23.09.2019 13:24 18,6 C 18,5 C 18,6 C 80 % 1015,4 hPa 0,0 l/m 4,8 km/h (1 Bft) W 270 0 min 2,5 UV-I 204 W/m 12,9 km/h (3 Bft)
23.09.2019 13:23 18,5 C 18,4 C 18,5 C 83 % 1015,4 hPa 0,0 l/m 9,7 km/h (2 Bft) W 270 0 min 2,5 UV-I 216 W/m 16,1 km/h (3 Bft)
23.09.2019 13:22 18,4 C 18,3 C 18,4 C 82 % 1015,4 hPa 0,0 l/m 6,4 km/h (2 Bft) W 270 0 min 2,5 UV-I 241 W/m 12,9 km/h (3 Bft)
23.09.2019 13:21 18,3 C 18,2 C 18,3 C 82 % 1015,4 hPa 0,0 l/m 4,8 km/h (1 Bft) S-SW 202 0 min 2,6 UV-I 257 W/m 9,7 km/h (2 Bft)
23.09.2019 13:20 18,2 C 18,2 C 18,2 C 82 % 1015,5 hPa 0,0 l/m 6,4 km/h (2 Bft) W-SW 247 0 min 2,5 UV-I 267 W/m 12,9 km/h (3 Bft)
23.09.2019 13:19 18,2 C 18,1 C 18,2 C 82 % 1015,4 hPa 0,0 l/m 3,2 km/h (1 Bft) S-SW 202 0 min 2,4 UV-I 265 W/m 4,8 km/h (1 Bft)
23.09.2019 13:18 18,1 C 18,1 C 18,1 C 82 % 1015,4 hPa 0,0 l/m 6,4 km/h (2 Bft) SW 225 0 min 2,5 UV-I 272 W/m 12,9 km/h (3 Bft)
23.09.2019 13:17 18,1 C 17,9 C 18,1 C 81 % 1015,4 hPa 0,0 l/m 4,8 km/h (1 Bft) W 270 0 min 2,4 UV-I 290 W/m 9,7 km/h (2 Bft)
23.09.2019 13:16 17,9 C 17,9 C 17,9 C 82 % 1015,5 hPa 0,0 l/m 6,4 km/h (2 Bft) S-SW 202 0 min 2,4 UV-I 299 W/m 12,9 km/h (3 Bft)
23.09.2019 13:15 17,9 C 17,8 C 17,9 C 82 % 1015,4 hPa 0,0 l/m 6,4 km/h (2 Bft) W 270 0 min 2,3 UV-I 292 W/m 12,9 km/h (3 Bft)
23.09.2019 13:14 17,8 C 17,7 C 17,8 C 83 % 1015,4 hPa 0,0 l/m 6,4 km/h (2 Bft) W 270 0 min 2,2 UV-I 281 W/m 12,9 km/h (3 Bft)
23.09.2019 13:13 17,7 C 17,6 C 17,7 C 84 % 1015,4 hPa 0,0 l/m 8,0 km/h (2 Bft) SW 225 0 min 2,1 UV-I 269 W/m 14,5 km/h (3 Bft)
23.09.2019 13:12 17,6 C 17,5 C 17,6 C 86 % 1015,4 hPa 0,0 l/m 4,8 km/h (1 Bft) S-SW 202 0 min 2,0 UV-I 258 W/m 12,9 km/h (3 Bft)
23.09.2019 13:11 17,4 C 17,4 C 17,4 C 84 % 1015,4 hPa 0,0 l/m 3,2 km/h (1 Bft) SW 225 0 min 1,7 UV-I 237 W/m 6,4 km/h (2 Bft)
23.09.2019 13:10 17,4 C 17,3 C 17,4 C 82 % 1015,4 hPa 0,0 l/m 6,4 km/h (2 Bft) W 270 0 min 1,5 UV-I 181 W/m 9,7 km/h (2 Bft)
23.09.2019 13:09 17,4 C 17,3 C 17,4 C 83 % 1015,5 hPa 0,0 l/m 4,8 km/h (1 Bft) W-SW 247 0 min 1,3 UV-I 137 W/m 11,3 km/h (2 Bft)
23.09.2019 13:08 17,4 C 17,3 C 17,4 C 83 % 1015,5 hPa 0,0 l/m 4,8 km/h (1 Bft) W-SW 247 0 min 1,1 UV-I 118 W/m 6,4 km/h (2 Bft)
23.09.2019 13:07 17,3 C 17,3 C 17,4 C 84 % 1015,5 hPa 0,0 l/m 3,2 km/h (1 Bft) S-SW 202 0 min 1,1 UV-I 111 W/m 8,0 km/h (2 Bft)
23.09.2019 13:06 17,3 C 17,3 C 17,4 C 84 % 1015,4 hPa 0,0 l/m 4,8 km/h (1 Bft) S-SW 202 0 min 1,0 UV-I 104 W/m 8,0 km/h (2 Bft)
23.09.2019 13:05 17,4 C 17,3 C 17,4 C 84 % 1015,4 hPa 0,0 l/m 4,8 km/h (1 Bft) S-SW 202 0 min 1,0 UV-I 97 W/m 8,0 km/h (2 Bft)
23.09.2019 13:04 17,3 C 17,3 C 17,4 C 84 % 1015,5 hPa 0,0 l/m 3,2 km/h (1 Bft) SW 225 0 min 1,0 UV-I 95 W/m 6,4 km/h (2 Bft)
23.09.2019 13:03 17,4 C 17,4 C 17,4 C 84 % 1015,4 hPa 0,0 l/m 6,4 km/h (2 Bft) W-SW 247 0 min 1,0 UV-I 91 W/m 11,3 km/h (2 Bft)
23.09.2019 13:02 17,4 C 17,4 C 17,4 C 84 % 1015,4 hPa 0,0 l/m 6,4 km/h (2 Bft) W-SW 247 0 min 1,0 UV-I 88 W/m 12,9 km/h (3 Bft)
23.09.2019 13:01 17,4 C 17,4 C 17,4 C 84 % 1015,4 hPa 0,0 l/m 6,4 km/h (2 Bft) SW 225 0 min 1,0 UV-I 86 W/m 14,5 km/h (3 Bft)
23.09.2019 13:00 17,4 C 17,4 C 17,4 C 85 % 1015,4 hPa 0,0 l/m 6,4 km/h (2 Bft) W 270 0 min 1,0 UV-I 84 W/m 12,9 km/h (3 Bft)
23.09.2019 12:59 17,4 C 17,4 C 17,4 C 85 % 1015,4 hPa 0,0 l/m 3,2 km/h (1 Bft) W 270 0 min 1,0 UV-I 86 W/m 6,4 km/h (2 Bft)
23.09.2019 12:58 17,4 C 17,4 C 17,5 C 85 % 1015,5 hPa 0,0 l/m 3,2 km/h (1 Bft) W 270 0 min 1,0 UV-I 83 W/m 6,4 km/h (2 Bft)
23.09.2019 12:57 17,4 C 17,4 C 17,5 C 85 % 1015,5 hPa 0,0 l/m 3,2 km/h (1 Bft) S-SW 202 0 min 0,9 UV-I 81 W/m 6,4 km/h (2 Bft)
23.09.2019 12:56 17,4 C 17,4 C 17,5 C 83 % 1015,5 hPa 0,0 l/m 8,0 km/h (2 Bft) W 270 0 min 0,9 UV-I 81 W/m 16,1 km/h (3 Bft)
23.09.2019 12:55 17,5 C 17,5 C 17,5 C 84 % 1015,4 hPa 0,0 l/m 6,4 km/h (2 Bft) W-SW 247 0 min 0,9 UV-I 84 W/m 12,9 km/h (3 Bft)
23.09.2019 12:54 17,6 C 17,5 C 17,6 C 85 % 1015,4 hPa 0,0 l/m 4,8 km/h (1 Bft) W-SW 247 0 min 0,9 UV-I 88 W/m 6,4 km/h (2 Bft)
23.09.2019 12:53 17,5 C 17,5 C 17,6 C 84 % 1015,4 hPa 0,0 l/m 3,2 km/h (1 Bft) S-SW 202 0 min 0,9 UV-I 98 W/m 9,7 km/h (2 Bft)
23.09.2019 12:52 17,6 C 17,6 C 17,6 C 84 % 1015,4 hPa 0,0 l/m 4,8 km/h (1 Bft) W 270 0 min 0,8 UV-I 95 W/m 11,3 km/h (2 Bft)
23.09.2019 12:51 17,6 C 17,6 C 17,6 C 84 % 1015,5 hPa 0,0 l/m 4,8 km/h (1 Bft) SW 225 0 min 0,8 UV-I 93 W/m 11,3 km/h (2 Bft)
23.09.2019 12:50 17,6 C 17,6 C 17,6 C 85 % 1015,5 hPa 0,0 l/m 3,2 km/h (1 Bft) S-SW 202 0 min 0,7 UV-I 97 W/m 6,4 km/h (2 Bft)
23.09.2019 12:49 17,6 C 17,6 C 17,6 C 86 % 1015,4 hPa 0,0 l/m 6,4 km/h (2 Bft) SW 225 0 min 0,8 UV-I 107 W/m 11,3 km/h (2 Bft)
23.09.2019 12:48 17,6 C 17,5 C 17,6 C 85 % 1015,5 hPa 0,0 l/m 4,8 km/h (1 Bft) S-SW 202 0 min 1,1 UV-I 123 W/m 6,4 km/h (2 Bft)
23.09.2019 12:47 17,6 C 17,5 C 17,6 C 85 % 1015,4 hPa 0,0 l/m 4,8 km/h (1 Bft) S-SW 202 0 min 1,3 UV-I 190 W/m 6,4 km/h (2 Bft)
23.09.2019 12:46 17,5 C 17,5 C 17,5 C 85 % 1015,4 hPa 0,0 l/m 3,2 km/h (1 Bft) SW 225 0 min 1,5 UV-I 225 W/m 6,4 km/h (2 Bft)
23.09.2019 12:45 17,5 C 17,5 C 17,5 C 85 % 1015,4 hPa 0,0 l/m 1,6 km/h (1 Bft) S-SW 202 0 min 1,6 UV-I 232 W/m 6,4 km/h (2 Bft)
23.09.2019 12:44 17,5 C 17,4 C 17,5 C 86 % 1015,4 hPa 0,0 l/m 4,8 km/h (1 Bft) SW 225 0 min 1,6 UV-I 216 W/m 8,0 km/h (2 Bft)
23.09.2019 12:43 17,4 C 17,4 C 17,4 C 86 % 1015,4 hPa 0,0 l/m 4,8 km/h (1 Bft) S-SW 202 0 min 1,5 UV-I 193 W/m 8,0 km/h (2 Bft)
23.09.2019 12:42 17,4 C 17,4 C 17,4 C 85 % 1015,4 hPa 0,0 l/m 4,8 km/h (1 Bft) S 180 0 min 1,5 UV-I 181 W/m 9,7 km/h (2 Bft)
23.09.2019 12:41 17,4 C 17,4 C 17,4 C 85 % 1015,3 hPa 0,0 l/m 4,8 km/h (1 Bft) S 180 0 min 1,6 UV-I 181 W/m 11,3 km/h (2 Bft)
23.09.2019 12:40 17,4 C 17,4 C 17,4 C 85 % 1015,4 hPa 0,0 l/m 8,0 km/h (2 Bft) S 180 0 min 1,6 UV-I 183 W/m 14,5 km/h (3 Bft)
23.09.2019 12:39 17,4 C 17,4 C 17,4 C 85 % 1015,4 hPa 0,0 l/m 4,8 km/h (1 Bft) SW 225 0 min 1,7 UV-I 183 W/m 8,0 km/h (2 Bft)
23.09.2019 12:38 17,4 C 17,4 C 17,4 C 87 % 1015,4 hPa 0,0 l/m 6,4 km/h (2 Bft) S 180 0 min 1,6 UV-I 178 W/m 9,7 km/h (2 Bft)
23.09.2019 12:37 17,4 C 17,4 C 17,4 C 87 % 1015,5 hPa 0,0 l/m 4,8 km/h (1 Bft) SW 225 0 min 1,7 UV-I 192 W/m 11,3 km/h (2 Bft)
23.09.2019 12:36 17,4 C 17,3 C 17,4 C 86 % 1015,4 hPa 0,0 l/m 1,6 km/h (1 Bft) S-SW 202 0 min 1,8 UV-I 207 W/m 4,8 km/h (1 Bft)
23.09.2019 12:35 17,3 C 17,3 C 17,3 C 87 % 1015,4 hPa 0,0 l/m 3,2 km/h (1 Bft) SW 225 0 min 1,7 UV-I 200 W/m 8,0 km/h (2 Bft)
23.09.2019 12:34 17,3 C 17,3 C 17,3 C 86 % 1015,5 hPa 0,0 l/m 1,6 km/h (1 Bft) W-SW 247 0 min 1,8 UV-I 204 W/m 3,2 km/h (1 Bft)
23.09.2019 12:33 17,3 C 17,3 C 17,3 C 86 % 1015,5 hPa 0,0 l/m 8,0 km/h (2 Bft) S-SW 202 0 min 1,8 UV-I 221 W/m 12,9 km/h (3 Bft)
23.09.2019 12:32 17,3 C 17,3 C 17,3 C 87 % 1015,5 hPa 0,0 l/m 6,4 km/h (2 Bft) S-SW 202 0 min 1,8 UV-I 229 W/m 11,3 km/h (2 Bft)
23.09.2019 12:31 17,3 C 17,2 C 17,3 C 86 % 1015,5 hPa 0,0 l/m 4,8 km/h (1 Bft) SW 225 0 min 1,7 UV-I 221 W/m 8,0 km/h (2 Bft)
23.09.2019 12:30 17,2 C 17,2 C 17,3 C 85 % 1015,5 hPa 0,0 l/m 8,0 km/h (2 Bft) S-SW 202 0 min 1,6 UV-I 225 W/m 16,1 km/h (3 Bft)
23.09.2019 12:29 17,2 C 17,2 C 17,3 C 85 % 1015,4 hPa 0,0 l/m 9,7 km/h (2 Bft) SW 225 0 min 1,7 UV-I 230 W/m 14,5 km/h (3 Bft)
23.09.2019 12:28 17,3 C 17,2 C 17,3 C 86 % 1015,5 hPa 0,0 l/m 9,7 km/h (2 Bft) SW 225 0 min 1,6 UV-I 207 W/m 12,9 km/h (3 Bft)
23.09.2019 12:27 17,3 C 17,2 C 17,3 C 87 % 1015,4 hPa 0,0 l/m 8,0 km/h (2 Bft) S-SW 202 0 min 1,5 UV-I 181 W/m 11,3 km/h (2 Bft)
23.09.2019 12:26 17,3 C 17,3 C 17,3 C 87 % 1015,5 hPa 0,0 l/m 6,4 km/h (2 Bft) S 180 0 min 1,4 UV-I 174 W/m 9,7 km/h (2 Bft)
23.09.2019 12:25 17,2 C 17,2 C 17,3 C 88 % 1015,5 hPa 0,0 l/m 6,4 km/h (2 Bft) SW 225 0 min 1,5 UV-I 176 W/m 12,9 km/h (3 Bft)
23.09.2019 12:24 17,2 C 17,2 C 17,2 C 86 % 1015,5 hPa 0,0 l/m 6,4 km/h (2 Bft) S-SW 202 0 min 1,6 UV-I 190 W/m 9,7 km/h (2 Bft)
23.09.2019 12:23 17,2 C 17,2 C 17,2 C 87 % 1015,5 hPa 0,0 l/m 6,4 km/h (2 Bft) SW 225 0 min 1,8 UV-I 232 W/m 9,7 km/h (2 Bft)
23.09.2019 12:22 17,2 C 17,2 C 17,2 C 87 % 1015,5 hPa 0,0 l/m 6,4 km/h (2 Bft) SW 225 0 min 1,8 UV-I 236 W/m 9,7 km/h (2 Bft)
23.09.2019 12:21 17,2 C 17,2 C 17,2 C 88 % 1015,5 hPa 0,0 l/m 4,8 km/h (1 Bft) S-SW 202 0 min 1,7 UV-I 200 W/m 6,4 km/h (2 Bft)
23.09.2019 12:20 17,2 C 17,2 C 17,2 C 88 % 1015,5 hPa 0,0 l/m 4,8 km/h (1 Bft) S 180 0 min 1,7 UV-I 200 W/m 6,4 km/h (2 Bft)
23.09.2019 12:19 17,2 C 17,2 C 17,2 C 88 % 1015,5 hPa 0,0 l/m 4,8 km/h (1 Bft) SW 225 0 min 1,5 UV-I 185 W/m 8,0 km/h (2 Bft)
23.09.2019 12:18 17,2 C 17,2 C 17,2 C 89 % 1015,5 hPa 0,0 l/m 6,4 km/h (2 Bft) S-SW 202 0 min 1,6 UV-I 195 W/m 9,7 km/h (2 Bft)
23.09.2019 12:17 17,2 C 17,2 C 17,2 C 88 % 1015,5 hPa 0,0 l/m 6,4 km/h (2 Bft) S 180 0 min 1,9 UV-I 206 W/m 16,1 km/h (3 Bft)
23.09.2019 12:16 17,2 C 17,1 C 17,2 C 88 % 1015,5 hPa 0,0 l/m 3,2 km/h (1 Bft) S 180 0 min 1,5 UV-I 197 W/m 6,4 km/h (2 Bft)
23.09.2019 12:15 17,1 C 17,1 C 17,2 C 88 % 1015,5 hPa 0,0 l/m 4,8 km/h (1 Bft) S-SW 202 0 min 1,3 UV-I 165 W/m 6,4 km/h (2 Bft)
23.09.2019 12:14 17,1 C 17,1 C 17,1 C 89 % 1015,5 hPa 0,0 l/m 4,8 km/h (1 Bft) S-SW 202 0 min 1,2 UV-I 149 W/m 11,3 km/h (2 Bft)
23.09.2019 12:13 17,1 C 17,1 C 17,1 C 89 % 1015,5 hPa 0,0 l/m 4,8 km/h (1 Bft) W 270 0 min 1,3 UV-I 149 W/m 8,0 km/h (2 Bft)
23.09.2019 12:12 17,0 C 17,0 C 17,0 C 89 % 1015,5 hPa 0,0 l/m 1,6 km/h (1 Bft) SW 225 0 min 1,3 UV-I 153 W/m 4,8 km/h (1 Bft)
23.09.2019 12:11 16,9 C 16,9 C 17,0 C 89 % 1015,5 hPa 0,0 l/m 4,8 km/h (1 Bft) S-SW 202 0 min 1,3 UV-I 142 W/m 8,0 km/h (2 Bft)
23.09.2019 12:10 17,0 C 16,9 C 17,0 C 89 % 1015,5 hPa 0,0 l/m 3,2 km/h (1 Bft) S 180 0 min 1,3 UV-I 142 W/m 6,4 km/h (2 Bft)
23.09.2019 12:09 16,9 C 16,9 C 17,0 C 90 % 1015,5 hPa 0,0 l/m 4,8 km/h (1 Bft) SW 225 0 min 1,3 UV-I 146 W/m 8,0 km/h (2 Bft)
23.09.2019 12:08 16,9 C 16,9 C 16,9 C 90 % 1015,5 hPa 0,0 l/m 3,2 km/h (1 Bft) S 180 0 min 1,3 UV-I 149 W/m 4,8 km/h (1 Bft)
23.09.2019 12:07 16,9 C 16,9 C 16,9 C 90 % 1015,5 hPa 0,0 l/m 4,8 km/h (1 Bft) S 180 0 min 1,3 UV-I 149 W/m 8,0 km/h (2 Bft)
23.09.2019 12:06 16,9 C 16,8 C 16,9 C 89 % 1015,5 hPa 0,0 l/m 4,8 km/h (1 Bft) S 180 0 min 1,4 UV-I 181 W/m 8,0 km/h (2 Bft)
23.09.2019 12:05 16,8 C 16,8 C 16,9 C 90 % 1015,4 hPa 0,0 l/m 4,8 km/h (1 Bft) S-SW 202 0 min 1,5 UV-I 197 W/m 8,0 km/h (2 Bft)
23.09.2019 12:04 16,8 C 16,8 C 16,8 C 90 % 1015,4 hPa 0,0 l/m 6,4 km/h (2 Bft) S-SW 202 0 min 1,6 UV-I 207 W/m 8,0 km/h (2 Bft)
23.09.2019 12:03 16,8 C 16,8 C 16,8 C 90 % 1015,5 hPa 0,0 l/m 4,8 km/h (1 Bft) S 180 0 min 1,6 UV-I 211 W/m 6,4 km/h (2 Bft)
23.09.2019 12:02 16,8 C 16,8 C 16,8 C 90 % 1015,5 hPa 0,0 l/m 8,0 km/h (2 Bft) S-SW 202 0 min 1,5 UV-I 207 W/m 9,7 km/h (2 Bft)
23.09.2019 12:01 16,8 C 16,7 C 16,8 C 90 % 1015,5 hPa 0,0 l/m 6,4 km/h (2 Bft) SW 225 0 min 1,3 UV-I 199 W/m 11,3 km/h (2 Bft)
23.09.2019 12:00 16,7 C 16,7 C 16,8 C 90 % 1015,5 hPa 0,0 l/m 8,0 km/h (2 Bft) S-SW 202 0 min 1,2 UV-I 181 W/m 14,5 km/h (3 Bft)
23.09.2019 11:59 16,7 C 16,7 C 16,7 C 90 % 1015,5 hPa 0,0 l/m 4,8 km/h (1 Bft) S-SW 202 0 min 1,1 UV-I 142 W/m 8,0 km/h (2 Bft)
23.09.2019 11:58 16,7 C 16,7 C 16,7 C 90 % 1015,5 hPa 0,0 l/m 4,8 km/h (1 Bft) S-SW 202 0 min 1,1 UV-I 141 W/m 6,4 km/h (2 Bft)
23.09.2019 11:57 16,7 C 16,6 C 16,7 C 90 % 1015,5 hPa 0,0 l/m 3,2 km/h (1 Bft) S 180 0 min 1,1 UV-I 142 W/m 6,4 km/h (2 Bft)
23.09.2019 11:56 16,6 C 16,6 C 16,6 C 90 % 1015,5 hPa 0,0 l/m 1,6 km/h (1 Bft) S 180 0 min 1,2 UV-I 142 W/m 3,2 km/h (1 Bft)
23.09.2019 11:55 16,6 C 16,5 C 16,6 C 90 % 1015,5 hPa 0,0 l/m 4,8 km/h (1 Bft) S 180 0 min 1,2 UV-I 137 W/m 9,7 km/h (2 Bft)
23.09.2019 11:54 16,5 C 16,5 C 16,6 C 90 % 1015,5 hPa 0,0 l/m 8,0 km/h (2 Bft) S-SW 202 0 min 1,3 UV-I 139 W/m 11,3 km/h (2 Bft)
23.09.2019 11:53 16,6 C 16,5 C 16,6 C 90 % 1015,5 hPa 0,0 l/m 4,8 km/h (1 Bft) S-SW 202 0 min 1,2 UV-I 130 W/m 8,0 km/h (2 Bft)
23.09.2019 11:52 16,5 C 16,4 C 16,6 C 90 % 1015,5 hPa 0,0 l/m 6,4 km/h (2 Bft) S-SO 157 0 min 1,1 UV-I 114 W/m 11,3 km/h (2 Bft)
23.09.2019 11:51 16,5 C 16,4 C 16,5 C 90 % 1015,4 hPa 0,0 l/m 3,2 km/h (1 Bft) S-SW 202 0 min 1,0 UV-I 109 W/m 6,4 km/h (2 Bft)
23.09.2019 11:50 16,5 C 16,4 C 16,5 C 90 % 1015,4 hPa 0,0 l/m 0,0 km/h (0 Bft) S 180 0 min 0,9 UV-I 100 W/m 1,6 km/h (1 Bft)
23.09.2019 11:49 16,4 C 16,4 C 16,4 C 90 % 1015,5 hPa 0,0 l/m 4,8 km/h (1 Bft) S-SO 157 0 min 0,6 UV-I 84 W/m 6,4 km/h (2 Bft)
23.09.2019 11:48 16,4 C 16,4 C 16,4 C 90 % 1015,5 hPa 0,0 l/m 4,8 km/h (1 Bft) S 180 0 min 0,6 UV-I 60 W/m 6,4 km/h (2 Bft)
23.09.2019 11:47 16,4 C 16,4 C 16,4 C 90 % 1015,5 hPa 0,0 l/m 3,2 km/h (1 Bft) S 180 0 min 0,0 UV-I 49 W/m 6,4 km/h (2 Bft)
23.09.2019 11:46 16,4 C 16,4 C 16,4 C 90 % 1015,5 hPa 0,0 l/m 3,2 km/h (1 Bft) S 180 0 min 0,0 UV-I 51 W/m 6,4 km/h (2 Bft)
23.09.2019 11:45 16,4 C 16,4 C 16,4 C 90 % 1015,5 hPa 0,0 l/m 3,2 km/h (1 Bft) S 180 0 min 0,5 UV-I 62 W/m 6,4 km/h (2 Bft)
23.09.2019 11:44 16,4 C 16,4 C 16,4 C 90 % 1015,5 hPa 0,0 l/m 3,2 km/h (1 Bft) S 180 0 min 0,6 UV-I 74 W/m 4,8 km/h (1 Bft)
23.09.2019 11:43 16,4 C 16,4 C 16,4 C 90 % 1015,5 hPa 0,0 l/m 1,6 km/h (1 Bft) S-SO 157 0 min 0,5 UV-I 72 W/m 6,4 km/h (2 Bft)
23.09.2019 11:42 16,4 C 16,4 C 16,4 C 90 % 1015,5 hPa 0,0 l/m 3,2 km/h (1 Bft) S 180 0 min 0,6 UV-I 74 W/m 6,4 km/h (2 Bft)
23.09.2019 11:41 16,4 C 16,4 C 16,4 C 90 % 1015,5 hPa 0,0 l/m 4,8 km/h (1 Bft) S 180 0 min 0,6 UV-I 84 W/m 8,0 km/h (2 Bft)
23.09.2019 11:40 16,4 C 16,4 C 16,4 C 90 % 1015,5 hPa 0,0 l/m 6,4 km/h (2 Bft) S 180 0 min 0,7 UV-I 91 W/m 9,7 km/h (2 Bft)
23.09.2019 11:39 16,4 C 16,3 C 16,4 C 90 % 1015,5 hPa 0,0 l/m 8,0 km/h (2 Bft) S 180 0 min 0,8 UV-I 97 W/m 12,9 km/h (3 Bft)
23.09.2019 11:38 16,3 C 16,3 C 16,3 C 90 % 1015,5 hPa 0,0 l/m 3,2 km/h (1 Bft) S 180 0 min 0,9 UV-I 102 W/m 6,4 km/h (2 Bft)
23.09.2019 11:37 16,3 C 16,3 C 16,3 C 90 % 1015,5 hPa 0,0 l/m 4,8 km/h (1 Bft) S 180 0 min 0,9 UV-I 107 W/m 6,4 km/h (2 Bft)
23.09.2019 11:36 16,3 C 16,3 C 16,3 C 90 % 1015,6 hPa 0,0 l/m 4,8 km/h (1 Bft) S 180 0 min 0,9 UV-I 98 W/m 8,0 km/h (2 Bft)
23.09.2019 11:35 16,3 C 16,3 C 16,3 C 90 % 1015,5 hPa 0,0 l/m 6,4 km/h (2 Bft) S 180 0 min 0,9 UV-I 104 W/m 12,9 km/h (3 Bft)
23.09.2019 11:34 16,3 C 16,3 C 16,3 C 90 % 1015,5 hPa 0,0 l/m 1,6 km/h (1 Bft) S-SO 157 0 min 0,9 UV-I 107 W/m 3,2 km/h (1 Bft)
23.09.2019 11:33 16,3 C 16,2 C 16,3 C 90 % 1015,6 hPa 0,0 l/m 3,2 km/h (1 Bft) S-SO 157 0 min 0,9 UV-I 105 W/m 6,4 km/h (2 Bft)
23.09.2019 11:32 16,2 C 16,2 C 16,3 C 90 % 1015,5 hPa 0,0 l/m 3,2 km/h (1 Bft) S-SO 157 0 min 0,9 UV-I 102 W/m 6,4 km/h (2 Bft)
23.09.2019 11:31 16,2 C 16,2 C 16,2 C 90 % 1015,5 hPa 0,0 l/m 3,2 km/h (1 Bft) S-SW 202 0 min 0,9 UV-I 98 W/m 6,4 km/h (2 Bft)
23.09.2019 11:30 16,2 C 16,2 C 16,2 C 90 % 1015,5 hPa 0,0 l/m 3,2 km/h (1 Bft) S 180 0 min 0,8 UV-I 90 W/m 6,4 km/h (2 Bft)
23.09.2019 11:29 16,2 C 16,2 C 16,2 C 90 % 1015,5 hPa 0,0 l/m 3,2 km/h (1 Bft) S-SW 202 0 min 0,8 UV-I 88 W/m 6,4 km/h (2 Bft)
23.09.2019 11:28 16,2 C 16,2 C 16,2 C 90 % 1015,5 hPa 0,0 l/m 6,4 km/h (2 Bft) S-SO 157 0 min 0,8 UV-I 90 W/m 9,7 km/h (2 Bft)
23.09.2019 11:27 16,2 C 16,2 C 16,2 C 90 % 1015,5 hPa 0,0 l/m 4,8 km/h (1 Bft) S-SO 157 0 min 0,8 UV-I 90 W/m 8,0 km/h (2 Bft)
23.09.2019 11:26 16,2 C 16,2 C 16,2 C 90 % 1015,5 hPa 0,0 l/m 4,8 km/h (1 Bft) SO 135 0 min 0,9 UV-I 95 W/m 8,0 km/h (2 Bft)
23.09.2019 11:25 16,2 C 16,2 C 16,2 C 90 % 1015,5 hPa 0,0 l/m 4,8 km/h (1 Bft) S 180 0 min 0,9 UV-I 102 W/m 8,0 km/h (2 Bft)
23.09.2019 11:24 16,2 C 16,2 C 16,2 C 90 % 1015,5 hPa 0,0 l/m 3,2 km/h (1 Bft) S-SO 157 0 min 0,9 UV-I 109 W/m 4,8 km/h (1 Bft)
23.09.2019 11:23 16,2 C 16,1 C 16,2 C 90 % 1015,5 hPa 0,0 l/m 3,2 km/h (1 Bft) S-SO 157 0 min 1,0 UV-I 114 W/m 4,8 km/h (1 Bft)
23.09.2019 11:22 16,2 C 16,1 C 16,2 C 90 % 1015,5 hPa 0,0 l/m 1,6 km/h (1 Bft) SO 135 0 min 0,9 UV-I 109 W/m 3,2 km/h (1 Bft)
23.09.2019 11:21 16,1 C 16,1 C 16,2 C 90 % 1015,4 hPa 0,0 l/m 3,2 km/h (1 Bft) S 180 0 min 0,9 UV-I 102 W/m 4,8 km/h (1 Bft)
23.09.2019 11:20 16,1 C 16,1 C 16,2 C 90 % 1015,5 hPa 0,0 l/m 0,0 km/h (0 Bft) S 180 0 min 0,8 UV-I 98 W/m 4,8 km/h (1 Bft)
23.09.2019 11:19 16,1 C 16,1 C 16,1 C 90 % 1015,5 hPa 0,0 l/m 1,6 km/h (1 Bft) S 180 0 min 0,8 UV-I 93 W/m 3,2 km/h (1 Bft)
23.09.2019 11:18 16,1 C 16,1 C 16,2 C 90 % 1015,5 hPa 0,0 l/m 3,2 km/h (1 Bft) S 180 0 min 0,7 UV-I 76 W/m 4,8 km/h (1 Bft)
23.09.2019 11:17 16,2 C 16,1 C 16,2 C 90 % 1015,5 hPa 0,0 l/m 3,2 km/h (1 Bft) SO 135 0 min 0,7 UV-I 70 W/m 6,4 km/h (2 Bft)
23.09.2019 11:16 16,1 C 16,1 C 16,2 C 90 % 1015,5 hPa 0,0 l/m 4,8 km/h (1 Bft) S 180 0 min 0,6 UV-I 58 W/m 8,0 km/h (2 Bft)
23.09.2019 11:15 16,1 C 16,1 C 16,2 C 90 % 1015,4 hPa 0,0 l/m 4,8 km/h (1 Bft) S-SO 157 0 min 0,6 UV-I 58 W/m 8,0 km/h (2 Bft)
23.09.2019 11:14 16,1 C 16,1 C 16,2 C 90 % 1015,5 hPa 0,0 l/m 3,2 km/h (1 Bft) SO 135 0 min 0,0 UV-I 54 W/m 9,7 km/h (2 Bft)
23.09.2019 11:13 16,2 C 16,2 C 16,2 C 90 % 1015,5 hPa 0,0 l/m 6,4 km/h (2 Bft) S 180 0 min 0,0 UV-I 51 W/m 9,7 km/h (2 Bft)
23.09.2019 11:12 16,2 C 16,1 C 16,2 C 90 % 1015,4 hPa 0,0 l/m 6,4 km/h (2 Bft) S-SO 157 0 min 0,0 UV-I 53 W/m 11,3 km/h (2 Bft)
23.09.2019 11:11 16,2 C 16,2 C 16,2 C 90 % 1015,5 hPa 0,0 l/m 3,2 km/h (1 Bft) S-SO 157 0 min 0,0 UV-I 54 W/m 6,4 km/h (2 Bft)
23.09.2019 11:10 16,2 C 16,1 C 16,2 C 90 % 1015,4 hPa 0,0 l/m 3,2 km/h (1 Bft) S-SO 157 0 min 0,5 UV-I 58 W/m 6,4 km/h (2 Bft)
23.09.2019 11:09 16,2 C 16,1 C 16,2 C 90 % 1015,4 hPa 0,0 l/m 6,4 km/h (2 Bft) S 180 0 min 0,5 UV-I 60 W/m 9,7 km/h (2 Bft)
23.09.2019 11:08 16,1 C 16,1 C 16,2 C 90 % 1015,4 hPa 0,0 l/m 3,2 km/h (1 Bft) S-SO 157 0 min 0,5 UV-I 62 W/m 8,0 km/h (2 Bft)
23.09.2019 11:07 16,1 C 16,1 C 16,2 C 90 % 1015,5 hPa 0,0 l/m 4,8 km/h (1 Bft) S 180 0 min 0,5 UV-I 60 W/m 6,4 km/h (2 Bft)
23.09.2019 11:06 16,2 C 16,1 C 16,2 C 90 % 1015,5 hPa 0,0 l/m 6,4 km/h (2 Bft) S-SO 157 0 min 0,5 UV-I 58 W/m 9,7 km/h (2 Bft)
23.09.2019 11:05 16,1 C 16,1 C 16,1 C 90 % 1015,5 hPa 0,0 l/m 3,2 km/h (1 Bft) S-SO 157 0 min 0,5 UV-I 60 W/m 8,0 km/h (2 Bft)
23.09.2019 11:04 16,1 C 16,1 C 16,1 C 90 % 1015,4 hPa 0,0 l/m 3,2 km/h (1 Bft) S 180 0 min 0,5 UV-I 62 W/m 6,4 km/h (2 Bft)
23.09.2019 11:03 16,1 C 16,1 C 16,1 C 90 % 1015,5 hPa 0,0 l/m 4,8 km/h (1 Bft) S 180 0 min 0,5 UV-I 63 W/m 8,0 km/h (2 Bft)
23.09.2019 11:02 16,1 C 16,1 C 16,1 C 90 % 1015,5 hPa 0,0 l/m 3,2 km/h (1 Bft) S 180 0 min 0,5 UV-I 72 W/m 8,0 km/h (2 Bft)
23.09.2019 11:01 16,1 C 16,1 C 16,1 C 90 % 1015,5 hPa 0,0 l/m 3,2 km/h (1 Bft) S 180 0 min 0,6 UV-I 76 W/m 4,8 km/h (1 Bft)
23.09.2019 11:00 16,1 C 16,1 C 16,1 C 90 % 1015,5 hPa 0,0 l/m 4,8 km/h (1 Bft) S-SO 157 0 min 0,6 UV-I 77 W/m 9,7 km/h (2 Bft)
23.09.2019 10:59 16,1 C 16,1 C 16,1 C 90 % 1015,5 hPa 0,0 l/m 6,4 km/h (2 Bft) S 180 0 min 0,6 UV-I 79 W/m 8,0 km/h (2 Bft)
23.09.2019 10:58 16,1 C 16,1 C 16,1 C 90 % 1015,5 hPa 0,0 l/m 4,8 km/h (1 Bft) S 180 0 min 0,6 UV-I 77 W/m 8,0 km/h (2 Bft)
23.09.2019 10:57 16,1 C 16,1 C 16,1 C 90 % 1015,4 hPa 0,0 l/m 4,8 km/h (1 Bft) S 180 0 min 0,6 UV-I 72 W/m 8,0 km/h (2 Bft)
23.09.2019 10:56 16,1 C 16,1 C 16,1 C 90 % 1015,5 hPa 0,0 l/m 4,8 km/h (1 Bft) S 180 0 min 0,5 UV-I 65 W/m 6,4 km/h (2 Bft)
23.09.2019 10:55 16,1 C 16,1 C 16,1 C 90 % 1015,4 hPa 0,0 l/m 1,6 km/h (1 Bft) S 180 0 min 0,0 UV-I 54 W/m 4,8 km/h (1 Bft)
23.09.2019 10:54 16,1 C 16,1 C 16,1 C 90 % 1015,5 hPa 0,0 l/m 0,0 km/h (0 Bft) N 0 0 min 0,0 UV-I 49 W/m 0,0 km/h (0 Bft)
23.09.2019 10:53 16,1 C 16,1 C 16,1 C 90 % 1015,5 hPa 0,0 l/m 3,2 km/h (1 Bft) S-SO 157 0 min 0,0 UV-I 46 W/m 6,4 km/h (2 Bft)
23.09.2019 10:52 16,1 C 16,1 C 16,1 C 90 % 1015,4 hPa 0,0 l/m 4,8 km/h (1 Bft) S 180 0 min 0,0 UV-I 42 W/m 8,0 km/h (2 Bft)
23.09.2019 10:51 16,1 C 16,1 C 16,1 C 90 % 1015,5 hPa 0,0 l/m 4,8 km/h (1 Bft) S-SO 157 0 min 0,0 UV-I 42 W/m 11,3 km/h (2 Bft)
23.09.2019 10:50 16,2 C 16,1 C 16,2 C 91 % 1015,4 hPa 0,0 l/m 4,8 km/h (1 Bft) S-SO 157 0 min 0,0 UV-I 49 W/m 6,4 km/h (2 Bft)
23.09.2019 10:49 16,1 C 16,1 C 16,1 C 91 % 1015,5 hPa 0,0 l/m 1,6 km/h (1 Bft) S-SW 202 0 min 0,5 UV-I 60 W/m 3,2 km/h (1 Bft)
23.09.2019 10:48 16,1 C 16,1 C 16,1 C 91 % 1015,4 hPa 0,0 l/m 3,2 km/h (1 Bft) S-SO 157 0 min 0,6 UV-I 74 W/m 6,4 km/h (2 Bft)
23.09.2019 10:47 16,1 C 16,0 C 16,1 C 91 % 1015,4 hPa 0,0 l/m 4,8 km/h (1 Bft) SO 135 0 min 0,7 UV-I 88 W/m 6,4 km/h (2 Bft)
23.09.2019 10:46 16,1 C 16,0 C 16,1 C 91 % 1015,3 hPa 0,0 l/m 4,8 km/h (1 Bft) S-SO 157 0 min 0,8 UV-I 97 W/m 8,0 km/h (2 Bft)
23.09.2019 10:45 16,0 C 16,0 C 16,0 C 91 % 1015,4 hPa 0,0 l/m 4,8 km/h (1 Bft) S-SO 157 0 min 0,8 UV-I 102 W/m 8,0 km/h (2 Bft)
23.09.2019 10:44 16,0 C 15,9 C 16,0 C 91 % 1015,4 hPa 0,0 l/m 3,2 km/h (1 Bft) S-SO 157 0 min 0,8 UV-I 105 W/m 6,4 km/h (2 Bft)
23.09.2019 10:43 15,9 C 15,9 C 16,0 C 91 % 1015,4 hPa 0,0 l/m 4,8 km/h (1 Bft) S-SO 157 0 min 0,8 UV-I 100 W/m 8,0 km/h (2 Bft)
23.09.2019 10:42 15,9 C 15,9 C 15,9 C 91 % 1015,3 hPa 0,0 l/m 4,8 km/h (1 Bft) SO 135 0 min 0,8 UV-I 98 W/m 11,3 km/h (2 Bft)
23.09.2019 10:41 15,9 C 15,9 C 15,9 C 91 % 1015,4 hPa 0,0 l/m 4,8 km/h (1 Bft) S-SW 202 0 min 0,8 UV-I 104 W/m 8,0 km/h (2 Bft)
23.09.2019 10:40 15,9 C 15,9 C 15,9 C 91 % 1015,4 hPa 0,0 l/m 3,2 km/h (1 Bft) S 180 0 min 0,9 UV-I 114 W/m 6,4 km/h (2 Bft)
23.09.2019 10:39 15,9 C 15,9 C 15,9 C 91 % 1015,4 hPa 0,0 l/m 6,4 km/h (2 Bft) S 180 0 min 1,0 UV-I 127 W/m 9,7 km/h (2 Bft)
23.09.2019 10:38 15,9 C 15,9 C 15,9 C 91 % 1015,4 hPa 0,0 l/m 6,4 km/h (2 Bft) S-SO 157 0 min 0,9 UV-I 128 W/m 9,7 km/h (2 Bft)
23.09.2019 10:37 15,9 C 15,9 C 15,9 C 91 % 1015,3 hPa 0,0 l/m 3,2 km/h (1 Bft) S-SO 157 0 min 0,8 UV-I 114 W/m 6,4 km/h (2 Bft)
23.09.2019 10:36 15,9 C 15,9 C 15,9 C 91 % 1015,3 hPa 0,0 l/m 3,2 km/h (1 Bft) O-SO 112 0 min 0,8 UV-I 113 W/m 4,8 km/h (1 Bft)
23.09.2019 10:35 15,9 C 15,8 C 15,9 C 91 % 1015,3 hPa 0,0 l/m 3,2 km/h (1 Bft) O-SO 112 0 min 0,8 UV-I 116 W/m 4,8 km/h (1 Bft)
23.09.2019 10:34 15,9 C 15,8 C 15,9 C 91 % 1015,3 hPa 0,0 l/m 3,2 km/h (1 Bft) S 180 0 min 0,8 UV-I 116 W/m 4,8 km/h (1 Bft)
23.09.2019 10:33 15,8 C 15,8 C 15,9 C 91 % 1015,3 hPa 0,0 l/m 1,6 km/h (1 Bft) SO 135 0 min 0,8 UV-I 114 W/m 8,0 km/h (2 Bft)
23.09.2019 10:32 15,8 C 15,8 C 15,8 C 91 % 1015,3 hPa 0,0 l/m 3,2 km/h (1 Bft) S-SO 157 0 min 0,8 UV-I 113 W/m 8,0 km/h (2 Bft)
23.09.2019 10:31 15,8 C 15,8 C 15,8 C 91 % 1015,3 hPa 0,0 l/m 3,2 km/h (1 Bft) S-SO 157 0 min 0,8 UV-I 111 W/m 6,4 km/h (2 Bft)
23.09.2019 10:30 15,8 C 15,8 C 15,8 C 91 % 1015,3 hPa 0,0 l/m 1,6 km/h (1 Bft) SO 135 0 min 0,8 UV-I 109 W/m 3,2 km/h (1 Bft)
23.09.2019 10:29 15,8 C 15,8 C 15,8 C 91 % 1015,3 hPa 0,0 l/m 3,2 km/h (1 Bft) S 180 0 min 0,8 UV-I 105 W/m 4,8 km/h (1 Bft)
23.09.2019 10:28 15,8 C 15,8 C 15,8 C 91 % 1015,3 hPa 0,0 l/m 3,2 km/h (1 Bft) S-SO 157 0 min 0,7 UV-I 100 W/m 8,0 km/h (2 Bft)
23.09.2019 10:27 15,8 C 15,7 C 15,8 C 91 % 1015,2 hPa 0,0 l/m 3,2 km/h (1 Bft) S-SO 157 0 min 0,7 UV-I 97 W/m 8,0 km/h (2 Bft)
23.09.2019 10:26 15,8 C 15,7 C 15,8 C 92 % 1015,3 hPa 0,0 l/m 3,2 km/h (1 Bft) O-SO 112 0 min 0,6 UV-I 90 W/m 4,8 km/h (1 Bft)
23.09.2019 10:25 15,7 C 15,7 C 15,7 C 91 % 1015,2 hPa 0,0 l/m 1,6 km/h (1 Bft) S-SO 157 0 min 0,6 UV-I 86 W/m 4,8 km/h (1 Bft)
23.09.2019 10:24 15,7 C 15,7 C 15,7 C 91 % 1015,2 hPa 0,0 l/m 0,0 km/h (0 Bft) S-SO 157 0 min 0,6 UV-I 83 W/m 1,6 km/h (1 Bft)
23.09.2019 10:23 15,7 C 15,7 C 15,7 C 92 % 1015,2 hPa 0,0 l/m 0,0 km/h (0 Bft) S-SO 157 0 min 0,6 UV-I 79 W/m 1,6 km/h (1 Bft)
23.09.2019 10:22 15,7 C 15,7 C 15,7 C 91 % 1015,2 hPa 0,0 l/m 1,6 km/h (1 Bft) S-SO 157 0 min 0,5 UV-I 76 W/m 3,2 km/h (1 Bft)
23.09.2019 10:21 15,7 C 15,7 C 15,7 C 91 % 1015,3 hPa 0,0 l/m 1,6 km/h (1 Bft) SO 135 0 min 0,5 UV-I 70 W/m 6,4 km/h (2 Bft)
23.09.2019 10:20 15,7 C 15,7 C 15,7 C 91 % 1015,3 hPa 0,0 l/m 3,2 km/h (1 Bft) S 180 0 min 0,5 UV-I 67 W/m 4,8 km/h (1 Bft)
23.09.2019 10:19 15,7 C 15,6 C 15,7 C 91 % 1015,3 hPa 0,0 l/m 3,2 km/h (1 Bft) O-SO 112 0 min 0,5 UV-I 67 W/m 6,4 km/h (2 Bft)
23.09.2019 10:18 15,6 C 15,6 C 15,7 C 91 % 1015,3 hPa 0,0 l/m 3,2 km/h (1 Bft) SO 135 0 min 0,5 UV-I 69 W/m 8,0 km/h (2 Bft)
23.09.2019 10:17 15,6 C 15,6 C 15,7 C 91 % 1015,3 hPa 0,0 l/m 6,4 km/h (2 Bft) S 180 0 min 0,5 UV-I 67 W/m 9,7 km/h (2 Bft)
23.09.2019 10:16 15,6 C 15,6 C 15,7 C 91 % 1015,3 hPa 0,0 l/m 4,8 km/h (1 Bft) S 180 0 min 0,5 UV-I 63 W/m 8,0 km/h (2 Bft)
23.09.2019 10:15 15,6 C 15,6 C 15,7 C 92 % 1015,3 hPa 0,0 l/m 6,4 km/h (2 Bft) S-SO 157 0 min 0,0 UV-I 56 W/m 9,7 km/h (2 Bft)
23.09.2019 10:14 15,6 C 15,6 C 15,6 C 92 % 1015,3 hPa 0,0 l/m 3,2 km/h (1 Bft) S-SO 157 0 min 0,0 UV-I 42 W/m 6,4 km/h (2 Bft)
23.09.2019 10:13 15,6 C 15,6 C 15,6 C 92 % 1015,2 hPa 0,0 l/m 3,2 km/h (1 Bft) SO 135 0 min 0,0 UV-I 44 W/m 6,4 km/h (2 Bft)
23.09.2019 10:12 15,6 C 15,6 C 15,6 C 92 % 1015,3 hPa 0,0 l/m 4,8 km/h (1 Bft) SO 135 0 min 0,0 UV-I 46 W/m 9,7 km/h (2 Bft)
23.09.2019 10:11 15,6 C 15,6 C 15,6 C 92 % 1015,2 hPa 0,0 l/m 3,2 km/h (1 Bft) SO 135 0 min 0,0 UV-I 46 W/m 4,8 km/h (1 Bft)
23.09.2019 10:10 15,6 C 15,6 C 15,6 C 92 % 1015,2 hPa 0,0 l/m 3,2 km/h (1 Bft) S-SO 157 0 min 0,0 UV-I 46 W/m 4,8 km/h (1 Bft)
23.09.2019 10:09 15,6 C 15,6 C 15,6 C 92 % 1015,2 hPa 0,0 l/m 4,8 km/h (1 Bft) S-SO 157 0 min 0,0 UV-I 47 W/m 9,7 km/h (2 Bft)
23.09.2019 10:08 15,6 C 15,6 C 15,6 C 92 % 1015,2 hPa 0,0 l/m 1,6 km/h (1 Bft) O-SO 112 0 min 0,0 UV-I 53 W/m 8,0 km/h (2 Bft)
23.09.2019 10:07 15,6 C 15,6 C 15,6 C 92 % 1015,2 hPa 0,0 l/m 3,2 km/h (1 Bft) SO 135 0 min 0,5 UV-I 58 W/m 6,4 km/h (2 Bft)
23.09.2019 10:06 15,6 C 15,6 C 15,6 C 92 % 1015,2 hPa 0,0 l/m 3,2 km/h (1 Bft) S 180 0 min 0,5 UV-I 65 W/m 6,4 km/h (2 Bft)
23.09.2019 10:05 15,6 C 15,6 C 15,6 C 92 % 1015,2 hPa 0,0 l/m 4,8 km/h (1 Bft) S 180 0 min 0,6 UV-I 69 W/m 8,0 km/h (2 Bft)
23.09.2019 10:04 15,6 C 15,6 C 15,6 C 92 % 1015,2 hPa 0,0 l/m 1,6 km/h (1 Bft) S-SO 157 0 min 0,6 UV-I 70 W/m 6,4 km/h (2 Bft)
23.09.2019 10:03 15,6 C 15,6 C 15,6 C 92 % 1015,2 hPa 0,0 l/m 3,2 km/h (1 Bft) SO 135 0 min 0,5 UV-I 72 W/m 4,8 km/h (1 Bft)
23.09.2019 10:02 15,6 C 15,6 C 15,6 C 92 % 1015,2 hPa 0,0 l/m 3,2 km/h (1 Bft) S-SO 157 0 min 0,5 UV-I 74 W/m 3,2 km/h (1 Bft)
23.09.2019 10:01 15,6 C 15,6 C 15,6 C 92 % 1015,2 hPa 0,0 l/m 3,2 km/h (1 Bft) O-SO 112 0 min 0,5 UV-I 76 W/m 6,4 km/h (2 Bft)
23.09.2019 10:00 15,6 C 15,5 C 15,6 C 92 % 1015,2 hPa 0,0 l/m 1,6 km/h (1 Bft) S-SO 157 0 min 0,5 UV-I 77 W/m 4,8 km/h (1 Bft)
23.09.2019 09:59 15,5 C 15,5 C 15,5 C 92 % 1015,2 hPa 0,0 l/m 1,6 km/h (1 Bft) S-SO 157 0 min 0,6 UV-I 81 W/m 6,4 km/h (2 Bft)
23.09.2019 09:58 15,5 C 15,4 C 15,5 C 92 % 1015,3 hPa 0,0 l/m 1,6 km/h (1 Bft) O-SO 112 0 min 0,6 UV-I 84 W/m 1,6 km/h (1 Bft)
23.09.2019 09:57 15,5 C 15,4 C 15,5 C 92 % 1015,2 hPa 0,0 l/m 1,6 km/h (1 Bft) O-SO 112 0 min 0,6 UV-I 93 W/m 3,2 km/h (1 Bft)
23.09.2019 09:56 15,4 C 15,4 C 15,4 C 92 % 1015,2 hPa 0,0 l/m 4,8 km/h (1 Bft) S-SO 157 0 min 0,6 UV-I 91 W/m 8,0 km/h (2 Bft)
23.09.2019 09:55 15,5 C 15,4 C 15,5 C 92 % 1015,2 hPa 0,0 l/m 3,2 km/h (1 Bft) SO 135 0 min 0,6 UV-I 86 W/m 4,8 km/h (1 Bft)
23.09.2019 09:54 15,4 C 15,4 C 15,4 C 92 % 1015,1 hPa 0,0 l/m 3,2 km/h (1 Bft) S 180 0 min 0,5 UV-I 76 W/m 6,4 km/h (2 Bft)
23.09.2019 09:53 15,4 C 15,4 C 15,5 C 92 % 1015,2 hPa 0,0 l/m 6,4 km/h (2 Bft) S-SW 202 0 min 0,5 UV-I 69 W/m 11,3 km/h (2 Bft)
23.09.2019 09:52 15,4 C 15,4 C 15,4 C 92 % 1015,1 hPa 0,0 l/m 1,6 km/h (1 Bft) SO 135 0 min 0,5 UV-I 69 W/m 4,8 km/h (1 Bft)
23.09.2019 09:51 15,4 C 15,4 C 15,4 C 92 % 1015,2 hPa 0,0 l/m 4,8 km/h (1 Bft) SO 135 0 min 0,5 UV-I 70 W/m 6,4 km/h (2 Bft)
23.09.2019 09:50 15,4 C 15,4 C 15,4 C 92 % 1015,1 hPa 0,0 l/m 1,6 km/h (1 Bft) S-SO 157 0 min 0,5 UV-I 74 W/m 3,2 km/h (1 Bft)
23.09.2019 09:49 15,4 C 15,4 C 15,4 C 92 % 1015,0 hPa 0,0 l/m 1,6 km/h (1 Bft) SO 135 0 min 0,5 UV-I 76 W/m 4,8 km/h (1 Bft)
23.09.2019 09:48 15,4 C 15,4 C 15,4 C 92 % 1015,1 hPa 0,0 l/m 4,8 km/h (1 Bft) SO 135 0 min 0,5 UV-I 74 W/m 8,0 km/h (2 Bft)
23.09.2019 09:47 15,4 C 15,4 C 15,4 C 92 % 1015,1 hPa 0,0 l/m 3,2 km/h (1 Bft) S 180 0 min 0,5 UV-I 67 W/m 8,0 km/h (2 Bft)
23.09.2019 09:46 15,4 C 15,4 C 15,4 C 92 % 1015,1 hPa 0,0 l/m 4,8 km/h (1 Bft) O-SO 112 0 min 0,0 UV-I 58 W/m 8,0 km/h (2 Bft)
23.09.2019 09:45 15,4 C 15,4 C 15,4 C 92 % 1015,0 hPa 0,0 l/m 6,4 km/h (2 Bft) S 180 0 min 0,0 UV-I 49 W/m 8,0 km/h (2 Bft)
23.09.2019 09:44 15,4 C 15,4 C 15,4 C 92 % 1015,0 hPa 0,0 l/m 3,2 km/h (1 Bft) O-SO 112 0 min 0,0 UV-I 49 W/m 4,8 km/h (1 Bft)
23.09.2019 09:43 15,3 C 15,3 C 15,4 C 92 % 1015,0 hPa 0,0 l/m 1,6 km/h (1 Bft) S-SO 157 0 min 0,0 UV-I 54 W/m 8,0 km/h (2 Bft)
23.09.2019 09:42 15,4 C 15,3 C 15,4 C 92 % 1015,0 hPa 0,0 l/m 3,2 km/h (1 Bft) O-SO 112 0 min 0,0 UV-I 56 W/m 6,4 km/h (2 Bft)
23.09.2019 09:41 15,3 C 15,3 C 15,4 C 92 % 1015,0 hPa 0,0 l/m 3,2 km/h (1 Bft) S-SO 157 0 min 0,0 UV-I 54 W/m 8,0 km/h (2 Bft)
23.09.2019 09:40 15,3 C 15,3 C 15,4 C 92 % 1014,9 hPa 0,0 l/m 3,2 km/h (1 Bft) SO 135 0 min 0,0 UV-I 51 W/m 9,7 km/h (2 Bft)
23.09.2019 09:39 15,4 C 15,3 C 15,4 C 92 % 1014,9 hPa 0,0 l/m 3,2 km/h (1 Bft) S-SO 157 0 min 0,0 UV-I 49 W/m 4,8 km/h (1 Bft)
23.09.2019 09:38 15,3 C 15,3 C 15,4 C 92 % 1015,0 hPa 0,0 l/m 3,2 km/h (1 Bft) SO 135 0 min 0,0 UV-I 51 W/m 6,4 km/h (2 Bft)
23.09.2019 09:37 15,3 C 15,3 C 15,3 C 93 % 1014,9 hPa 0,0 l/m 1,6 km/h (1 Bft) SO 135 0 min 0,0 UV-I 51 W/m 3,2 km/h (1 Bft)
23.09.2019 09:36 15,4 C 15,3 C 15,4 C 93 % 1014,9 hPa 0,0 l/m 3,2 km/h (1 Bft) SO 135 0 min 0,0 UV-I 53 W/m 6,4 km/h (2 Bft)
23.09.2019 09:35 15,3 C 15,3 C 15,3 C 93 % 1014,9 hPa 0,0 l/m 3,2 km/h (1 Bft) O-SO 112 0 min 0,0 UV-I 53 W/m 6,4 km/h (2 Bft)
23.09.2019 09:34 15,3 C 15,3 C 15,3 C 93 % 1014,9 hPa 0,0 l/m 3,2 km/h (1 Bft) S-SO 157 0 min 0,0 UV-I 56 W/m 4,8 km/h (1 Bft)
23.09.2019 09:33 15,3 C 15,3 C 15,4 C 92 % 1014,8 hPa 0,0 l/m 3,2 km/h (1 Bft) SO 135 0 min 0,0 UV-I 56 W/m 9,7 km/h (2 Bft)
23.09.2019 09:32 15,4 C 15,3 C 15,4 C 93 % 1014,9 hPa 0,0 l/m 3,2 km/h (1 Bft) S-SO 157 0 min 0,0 UV-I 54 W/m 6,4 km/h (2 Bft)
23.09.2019 09:31 15,3 C 15,3 C 15,4 C 93 % 1014,9 hPa 0,0 l/m 4,8 km/h (1 Bft) O-SO 112 0 min 0,0 UV-I 51 W/m 9,7 km/h (2 Bft)
23.09.2019 09:30 15,3 C 15,3 C 15,4 C 93 % 1014,8 hPa 0,0 l/m 4,8 km/h (1 Bft) S-SO 157 0 min 0,0 UV-I 47 W/m 9,7 km/h (2 Bft)
23.09.2019 09:29 15,4 C 15,3 C 15,4 C 93 % 1014,8 hPa 0,0 l/m 4,8 km/h (1 Bft) S-SO 157 0 min 0,0 UV-I 47 W/m 8,0 km/h (2 Bft)
23.09.2019 09:28 15,4 C 15,3 C 15,4 C 93 % 1014,8 hPa 0,0 l/m 1,6 km/h (1 Bft) S-SO 157 0 min 0,0 UV-I 49 W/m 3,2 km/h (1 Bft)
23.09.2019 09:27 15,4 C 15,3 C 15,4 C 93 % 1014,8 hPa 0,0 l/m 3,2 km/h (1 Bft) S-SO 157 0 min 0,0 UV-I 49 W/m 8,0 km/h (2 Bft)
23.09.2019 09:26 15,3 C 15,3 C 15,3 C 93 % 1014,8 hPa 0,0 l/m 1,6 km/h (1 Bft) S-SO 157 0 min 0,0 UV-I 49 W/m 3,2 km/h (1 Bft)
23.09.2019 09:25 15,4 C 15,3 C 15,4 C 93 % 1014,8 hPa 0,0 l/m 3,2 km/h (1 Bft) SO 135 0 min 0,0 UV-I 51 W/m 9,7 km/h (2 Bft)
23.09.2019 09:24 15,3 C 15,3 C 15,3 C 93 % 1014,7 hPa 0,0 l/m 0,0 km/h (0 Bft) S-SO 157 0 min 0,0 UV-I 54 W/m 3,2 km/h (1 Bft)
23.09.2019 09:23 15,3 C 15,3 C 15,3 C 93 % 1014,7 hPa 0,0 l/m 1,6 km/h (1 Bft) O-SO 112 0 min 0,0 UV-I 58 W/m 3,2 km/h (1 Bft)
23.09.2019 09:22 15,3 C 15,3 C 15,3 C 93 % 1014,8 hPa 0,0 l/m 3,2 km/h (1 Bft) SO 135 0 min 0,0 UV-I 58 W/m 4,8 km/h (1 Bft)
23.09.2019 09:21 15,3 C 15,3 C 15,3 C 93 % 1014,8 hPa 0,0 l/m 0,0 km/h (0 Bft) SO 135 0 min 0,0 UV-I 56 W/m 1,6 km/h (1 Bft)
23.09.2019 09:20 15,3 C 15,3 C 15,3 C 93 % 1014,7 hPa 0,0 l/m 3,2 km/h (1 Bft) SO 135 0 min 0,0 UV-I 56 W/m 4,8 km/h (1 Bft)
23.09.2019 09:19 15,3 C 15,3 C 15,3 C 93 % 1014,8 hPa 0,0 l/m 3,2 km/h (1 Bft) O-SO 112 0 min 0,0 UV-I 58 W/m 4,8 km/h (1 Bft)
23.09.2019 09:18 15,3 C 15,3 C 15,3 C 93 % 1014,7 hPa 0,0 l/m 3,2 km/h (1 Bft) O-SO 112 0 min 0,0 UV-I 62 W/m 4,8 km/h (1 Bft)
23.09.2019 09:17 15,3 C 15,3 C 15,3 C 93 % 1014,7 hPa 0,0 l/m 0,0 km/h (0 Bft) O-SO 112 0 min 0,0 UV-I 65 W/m 4,8 km/h (1 Bft)
23.09.2019 09:16 15,3 C 15,3 C 15,3 C 93 % 1014,6 hPa 0,0 l/m 0,0 km/h (0 Bft) N 0 0 min 0,0 UV-I 67 W/m 0,0 km/h (0 Bft)
23.09.2019 09:15 15,3 C 15,3 C 15,3 C 93 % 1014,7 hPa 0,0 l/m 0,0 km/h (0 Bft) N 0 0 min 0,0 UV-I 65 W/m 0,0 km/h (0 Bft)
23.09.2019 09:14 15,3 C 15,3 C 15,3 C 93 % 1014,7 hPa 0,0 l/m 0,0 km/h (0 Bft) N 0 0 min 0,0 UV-I 63 W/m 0,0 km/h (0 Bft)
23.09.2019 09:13 15,3 C 15,3 C 15,3 C 93 % 1014,6 hPa 0,0 l/m 0,0 km/h (0 Bft) N 0 0 min 0,0 UV-I 63 W/m 0,0 km/h (0 Bft)
23.09.2019 09:12 15,3 C 15,3 C 15,3 C 93 % 1014,6 hPa 0,0 l/m 0,0 km/h (0 Bft) N 0 0 min 0,0 UV-I 62 W/m 0,0 km/h (0 Bft)
23.09.2019 09:11 15,3 C 15,3 C 15,3 C 93 % 1014,7 hPa 0,0 l/m 0,0 km/h (0 Bft) N 0 0 min 0,0 UV-I 62 W/m 0,0 km/h (0 Bft)
23.09.2019 09:10 15,3 C 15,2 C 15,3 C 93 % 1014,6 hPa 0,0 l/m 1,6 km/h (1 Bft) O-SO 112 0 min 0,0 UV-I 60 W/m 3,2 km/h (1 Bft)
23.09.2019 09:09 15,3 C 15,2 C 15,3 C 93 % 1014,6 hPa 0,0 l/m 1,6 km/h (1 Bft) SO 135 0 min 0,0 UV-I 58 W/m 3,2 km/h (1 Bft)
23.09.2019 09:08 15,3 C 15,2 C 15,3 C 93 % 1014,6 hPa 0,0 l/m 0,0 km/h (0 Bft) N 0 0 min 0,0 UV-I 58 W/m 0,0 km/h (0 Bft)
23.09.2019 09:07 15,2 C 15,2 C 15,3 C 93 % 1014,6 hPa 0,0 l/m 0,0 km/h (0 Bft) N 0 0 min 0,0 UV-I 56 W/m 0,0 km/h (0 Bft)
23.09.2019 09:06 15,2 C 15,2 C 15,3 C 93 % 1014,5 hPa 0,0 l/m 0,0 km/h (0 Bft) N 0 0 min 0,0 UV-I 56 W/m 0,0 km/h (0 Bft)
23.09.2019 09:05 15,2 C 15,2 C 15,3 C 93 % 1014,5 hPa 0,0 l/m 0,0 km/h (0 Bft) O 90 0 min 0,0 UV-I 54 W/m 1,6 km/h (1 Bft)
23.09.2019 09:04 15,2 C 15,2 C 15,2 C 93 % 1014,5 hPa 0,0 l/m 1,6 km/h (1 Bft) O 90 0 min 0,0 UV-I 53 W/m 3,2 km/h (1 Bft)
23.09.2019 09:03 15,2 C 15,2 C 15,3 C 93 % 1014,5 hPa 0,0 l/m 0,0 km/h (0 Bft) O 90 0 min 0,0 UV-I 49 W/m 1,6 km/h (1 Bft)
23.09.2019 09:02 15,2 C 15,2 C 15,2 C 93 % 1014,6 hPa 0,0 l/m 1,6 km/h (1 Bft) O 90 0 min 0,0 UV-I 49 W/m 3,2 km/h (1 Bft)
23.09.2019 09:01 15,2 C 15,2 C 15,2 C 93 % 1014,5 hPa 0,0 l/m 0,0 km/h (0 Bft) O 90 0 min 0,0 UV-I 49 W/m 3,2 km/h (1 Bft)
23.09.2019 09:00 15,2 C 15,2 C 15,2 C 93 % 1014,5 hPa 0,0 l/m 1,6 km/h (1 Bft) O 90 0 min 0,0 UV-I 47 W/m 3,2 km/h (1 Bft)
23.09.2019 08:59 15,2 C 15,2 C 15,2 C 93 % 1014,5 hPa 0,0 l/m 1,6 km/h (1 Bft) O 90 0 min 0,0 UV-I 47 W/m 3,2 km/h (1 Bft)
23.09.2019 08:58 15,2 C 15,2 C 15,2 C 93 % 1014,5 hPa 0,0 l/m 1,6 km/h (1 Bft) O 90 0 min 0,0 UV-I 44 W/m 4,8 km/h (1 Bft)
23.09.2019 08:57 15,2 C 15,2 C 15,2 C 93 % 1014,5 hPa 0,0 l/m 1,6 km/h (1 Bft) O 90 0 min 0,0 UV-I 44 W/m 3,2 km/h (1 Bft)
23.09.2019 08:56 15,2 C 15,2 C 15,2 C 93 % 1014,4 hPa 0,0 l/m 1,6 km/h (1 Bft) O 90 0 min 0,0 UV-I 42 W/m 4,8 km/h (1 Bft)
23.09.2019 08:55 15,2 C 15,2 C 15,2 C 93 % 1014,4 hPa 0,0 l/m 1,6 km/h (1 Bft) SO 135 0 min 0,0 UV-I 40 W/m 3,2 km/h (1 Bft)
23.09.2019 08:54 15,2 C 15,2 C 15,2 C 93 % 1014,5 hPa 0,0 l/m 3,2 km/h (1 Bft) O-SO 112 0 min 0,0 UV-I 40 W/m 6,4 km/h (2 Bft)
23.09.2019 08:53 15,2 C 15,2 C 15,2 C 93 % 1014,4 hPa 0,0 l/m 3,2 km/h (1 Bft) O-SO 112 0 min 0,0 UV-I 39 W/m 6,4 km/h (2 Bft)
23.09.2019 08:52 15,2 C 15,2 C 15,2 C 93 % 1014,4 hPa 0,0 l/m 1,6 km/h (1 Bft) O-SO 112 0 min 0,0 UV-I 39 W/m 3,2 km/h (1 Bft)
23.09.2019 08:51 15,2 C 15,2 C 15,2 C 93 % 1014,4 hPa 0,0 l/m 3,2 km/h (1 Bft) SO 135 0 min 0,0 UV-I 39 W/m 4,8 km/h (1 Bft)
23.09.2019 08:50 15,2 C 15,2 C 15,2 C 93 % 1014,4 hPa 0,0 l/m 3,2 km/h (1 Bft) O-SO 112 0 min 0,0 UV-I 40 W/m 4,8 km/h (1 Bft)
23.09.2019 08:49 15,2 C 15,2 C 15,2 C 93 % 1014,4 hPa 0,0 l/m 1,6 km/h (1 Bft) O-SO 112 0 min 0,0 UV-I 40 W/m 4,8 km/h (1 Bft)
23.09.2019 08:48 15,2 C 15,1 C 15,2 C 93 % 1014,3 hPa 0,0 l/m 1,6 km/h (1 Bft) S 180 0 min 0,0 UV-I 40 W/m 4,8 km/h (1 Bft)
23.09.2019 08:47 15,2 C 15,2 C 15,2 C 93 % 1014,3 hPa 0,0 l/m 1,6 km/h (1 Bft) SO 135 0 min 0,0 UV-I 40 W/m 3,2 km/h (1 Bft)
23.09.2019 08:46 15,2 C 15,2 C 15,2 C 93 % 1014,4 hPa 0,0 l/m 0,0 km/h (0 Bft) O-SO 112 0 min 0,0 UV-I 39 W/m 3,2 km/h (1 Bft)
23.09.2019 08:45 15,2 C 15,2 C 15,2 C 93 % 1014,3 hPa 0,0 l/m 1,6 km/h (1 Bft) SO 135 0 min 0,0 UV-I 39 W/m 4,8 km/h (1 Bft)
23.09.2019 08:44 15,2 C 15,2 C 15,2 C 93 % 1014,3 hPa 0,0 l/m 1,6 km/h (1 Bft) SO 135 0 min 0,0 UV-I 39 W/m 4,8 km/h (1 Bft)
23.09.2019 08:43 15,2 C 15,2 C 15,2 C 93 % 1014,4 hPa 0,0 l/m 0,0 km/h (0 Bft) N 0 0 min 0,0 UV-I 39 W/m 0,0 km/h (0 Bft)
23.09.2019 08:42 15,2 C 15,1 C 15,2 C 93 % 1014,4 hPa 0,0 l/m 1,6 km/h (1 Bft) S-SO 157 0 min 0,0 UV-I 40 W/m 3,2 km/h (1 Bft)
23.09.2019 08:41 15,2 C 15,1 C 15,2 C 93 % 1014,3 hPa 0,0 l/m 1,6 km/h (1 Bft) S-SO 157 0 min 0,0 UV-I 44 W/m 4,8 km/h (1 Bft)
23.09.2019 08:40 15,1 C 15,1 C 15,2 C 93 % 1014,4 hPa 0,0 l/m 1,6 km/h (1 Bft) SO 135 0 min 0,0 UV-I 47 W/m 6,4 km/h (2 Bft)
23.09.2019 08:39 15,1 C 15,1 C 15,1 C 93 % 1014,3 hPa 0,0 l/m 1,6 km/h (1 Bft) O-SO 112 0 min 0,0 UV-I 51 W/m 3,2 km/h (1 Bft)
23.09.2019 08:38 15,1 C 15,1 C 15,1 C 93 % 1014,3 hPa 0,0 l/m 3,2 km/h (1 Bft) O-SO 112 0 min 0,0 UV-I 54 W/m 4,8 km/h (1 Bft)
23.09.2019 08:37 15,1 C 15,1 C 15,1 C 93 % 1014,3 hPa 0,0 l/m 3,2 km/h (1 Bft) O-SO 112 0 min 0,0 UV-I 58 W/m 4,8 km/h (1 Bft)
23.09.2019 08:36 15,1 C 15,1 C 15,1 C 93 % 1014,3 hPa 0,0 l/m 1,6 km/h (1 Bft) O-SO 112 0 min 0,0 UV-I 62 W/m 4,8 km/h (1 Bft)
23.09.2019 08:35 15,1 C 15,1 C 15,1 C 93 % 1014,2 hPa 0,0 l/m 3,2 km/h (1 Bft) SO 135 0 min 0,0 UV-I 62 W/m 4,8 km/h (1 Bft)
23.09.2019 08:34 15,1 C 15,1 C 15,1 C 93 % 1014,2 hPa 0,0 l/m 0,0 km/h (0 Bft) N 0 0 min 0,0 UV-I 60 W/m 0,0 km/h (0 Bft)
23.09.2019 08:33 15,1 C 15,1 C 15,1 C 93 % 1014,2 hPa 0,0 l/m 0,0 km/h (0 Bft) N 0 0 min 0,0 UV-I 58 W/m 0,0 km/h (0 Bft)
23.09.2019 08:32 15,1 C 15,1 C 15,1 C 93 % 1014,2 hPa 0,0 l/m 1,6 km/h (1 Bft) SO 135 0 min 0,0 UV-I 56 W/m 1,6 km/h (1 Bft)
23.09.2019 08:31 15,1 C 15,1 C 15,1 C 93 % 1014,1 hPa 0,0 l/m 3,2 km/h (1 Bft) O-SO 112 0 min 0,0 UV-I 53 W/m 4,8 km/h (1 Bft)
23.09.2019 08:30 15,1 C 15,1 C 15,1 C 93 % 1014,1 hPa 0,0 l/m 1,6 km/h (1 Bft) O-SO 112 0 min 0,0 UV-I 49 W/m 4,8 km/h (1 Bft)
23.09.2019 08:29 15,1 C 15,1 C 15,1 C 93 % 1014,1 hPa 0,0 l/m 0,0 km/h (0 Bft) SO 135 0 min 0,0 UV-I 44 W/m 1,6 km/h (1 Bft)
23.09.2019 08:28 15,1 C 15,1 C 15,1 C 93 % 1014,2 hPa 0,0 l/m 1,6 km/h (1 Bft) SO 135 0 min 0,0 UV-I 42 W/m 3,2 km/h (1 Bft)
23.09.2019 08:27 15,1 C 15,1 C 15,1 C 93 % 1014,2 hPa 0,0 l/m 1,6 km/h (1 Bft) SO 135 0 min 0,0 UV-I 39 W/m 3,2 km/h (1 Bft)
23.09.2019 08:26 15,1 C 15,1 C 15,1 C 93 % 1014,1 hPa 0,0 l/m 1,6 km/h (1 Bft) O-SO 112 0 min 0,0 UV-I 37 W/m 3,2 km/h (1 Bft)
23.09.2019 08:25 15,1 C 15,1 C 15,1 C 93 % 1014,2 hPa 0,0 l/m 0,0 km/h (0 Bft) N 0 0 min 0,0 UV-I 33 W/m 0,0 km/h (0 Bft)
23.09.2019 08:24 15,1 C 15,1 C 15,1 C 93 % 1014,1 hPa 0,0 l/m 1,6 km/h (1 Bft) O-SO 112 0 min 0,0 UV-I 33 W/m 3,2 km/h (1 Bft)
23.09.2019 08:23 15,1 C 15,1 C 15,1 C 93 % 1014,2 hPa 0,0 l/m 1,6 km/h (1 Bft) O-SO 112 0 min 0,0 UV-I 30 W/m 3,2 km/h (1 Bft)
23.09.2019 08:22 15,1 C 15,1 C 15,1 C 93 % 1014,1 hPa 0,0 l/m 0,0 km/h (0 Bft) N 0 0 min 0,0 UV-I 28 W/m 0,0 km/h (0 Bft)
23.09.2019 08:21 15,1 C 15,1 C 15,1 C 93 % 1014,2 hPa 0,0 l/m 0,0 km/h (0 Bft) N 0 0 min 0,0 UV-I 28 W/m 0,0 km/h (0 Bft)
23.09.2019 08:20 15,1 C 15,1 C 15,1 C 93 % 1014,1 hPa 0,0 l/m 0,0 km/h (0 Bft) N 0 0 min 0,0 UV-I 26 W/m 0,0 km/h (0 Bft)
23.09.2019 08:19 15,1 C 15,1 C 15,1 C 93 % 1014,1 hPa 0,0 l/m 0,0 km/h (0 Bft) SO 135 0 min 0,0 UV-I 26 W/m 1,6 km/h (1 Bft)
23.09.2019 08:18 15,1 C 15,1 C 15,1 C 93 % 1014,1 hPa 0,0 l/m 3,2 km/h (1 Bft) O-SO 112 0 min 0,0 UV-I 26 W/m 3,2 km/h (1 Bft)
23.09.2019 08:17 15,1 C 15,1 C 15,1 C 93 % 1014,2 hPa 0,0 l/m 3,2 km/h (1 Bft) O-SO 112 0 min 0,0 UV-I 25 W/m 4,8 km/h (1 Bft)
23.09.2019 08:16 15,1 C 15,1 C 15,1 C 93 % 1014,1 hPa 0,0 l/m 1,6 km/h (1 Bft) SO 135 0 min 0,0 UV-I 25 W/m 1,6 km/h (1 Bft)
23.09.2019 08:15 15,2 C 15,1 C 15,2 C 93 % 1014,1 hPa 0,0 l/m 1,6 km/h (1 Bft) S-SO 157 0 min 0,0 UV-I 23 W/m 6,4 km/h (2 Bft)
23.09.2019 08:14 15,1 C 15,1 C 15,2 C 93 % 1014,1 hPa 0,0 l/m 0,0 km/h (0 Bft) N 0 0 min 0,0 UV-I 23 W/m 0,0 km/h (0 Bft)
23.09.2019 08:13 15,1 C 15,1 C 15,2 C 93 % 1014,1 hPa 0,0 l/m 0,0 km/h (0 Bft) SO 135 0 min 0,0 UV-I 21 W/m 3,2 km/h (1 Bft)
23.09.2019 08:12 15,2 C 15,1 C 15,2 C 93 % 1014,1 hPa 0,0 l/m 0,0 km/h (0 Bft) N 0 0 min 0,0 UV-I 21 W/m 0,0 km/h (0 Bft)
23.09.2019 08:11 15,2 C 15,1 C 15,2 C 93 % 1014,1 hPa 0,0 l/m 1,6 km/h (1 Bft) SO 135 0 min 0,0 UV-I 18 W/m 3,2 km/h (1 Bft)
23.09.2019 08:10 15,2 C 15,1 C 15,2 C 93 % 1014,1 hPa 0,0 l/m 1,6 km/h (1 Bft) O-SO 112 0 min 0,0 UV-I 18 W/m 4,8 km/h (1 Bft)
23.09.2019 08:09 15,2 C 15,2 C 15,2 C 93 % 1014,1 hPa 0,0 l/m 4,8 km/h (1 Bft) O-SO 112 0 min 0,0 UV-I 16 W/m 6,4 km/h (2 Bft)
23.09.2019 08:08 15,2 C 15,2 C 15,2 C 93 % 1014,1 hPa 0,0 l/m 1,6 km/h (1 Bft) SO 135 0 min 0,0 UV-I 14 W/m 4,8 km/h (1 Bft)
23.09.2019 08:07 15,2 C 15,2 C 15,2 C 93 % 1014,1 hPa 0,0 l/m 3,2 km/h (1 Bft) O-SO 112 0 min 0,0 UV-I 14 W/m 6,4 km/h (2 Bft)
23.09.2019 08:06 15,2 C 15,2 C 15,2 C 93 % 1014,1 hPa 0,0 l/m 1,6 km/h (1 Bft) SO 135 0 min 0,0 UV-I 14 W/m 3,2 km/h (1 Bft)
23.09.2019 08:05 15,2 C 15,2 C 15,2 C 93 % 1014,1 hPa 0,0 l/m 3,2 km/h (1 Bft) SO 135 0 min 0,0 UV-I 12 W/m 4,8 km/h (1 Bft)
23.09.2019 08:04 15,2 C 15,2 C 15,2 C 93 % 1014,1 hPa 0,0 l/m 4,8 km/h (1 Bft) O-SO 112 0 min 0,0 UV-I 12 W/m 9,7 km/h (2 Bft)
23.09.2019 08:03 15,2 C 15,2 C 15,2 C 93 % 1014,2 hPa 0,0 l/m 3,2 km/h (1 Bft) SO 135 0 min 0,0 UV-I 11 W/m 8,0 km/h (2 Bft)
23.09.2019 08:02 15,2 C 15,2 C 15,2 C 93 % 1014,1 hPa 0,0 l/m 6,4 km/h (2 Bft) O-SO 112 0 min 0,0 UV-I 11 W/m 9,7 km/h (2 Bft)
23.09.2019 08:01 15,2 C 15,2 C 15,3 C 93 % 1014,2 hPa 0,0 l/m 3,2 km/h (1 Bft) O-SO 112 0 min 0,0 UV-I 9 W/m 6,4 km/h (2 Bft)
23.09.2019 08:00 15,2 C 15,2 C 15,3 C 93 % 1014,1 hPa 0,0 l/m 4,8 km/h (1 Bft) SO 135 0 min 0,0 UV-I 9 W/m 8,0 km/h (2 Bft)
23.09.2019 07:59 15,2 C 15,2 C 15,2 C 93 % 1014,1 hPa 0,0 l/m 3,2 km/h (1 Bft) SO 135 0 min 0,0 UV-I 7 W/m 6,4 km/h (2 Bft)
23.09.2019 07:58 15,2 C 15,2 C 15,2 C 93 % 1014,0 hPa 0,0 l/m 3,2 km/h (1 Bft) SO 135 0 min 0,0 UV-I 7 W/m 6,4 km/h (2 Bft)
23.09.2019 07:57 15,2 C 15,2 C 15,2 C 93 % 1014,0 hPa 0,0 l/m 3,2 km/h (1 Bft) O-SO 112 0 min 0,0 UV-I 7 W/m 9,7 km/h (2 Bft)
23.09.2019 07:56 15,2 C 15,2 C 15,3 C 93 % 1014,0 hPa 0,0 l/m 3,2 km/h (1 Bft) SO 135 0 min 0,0 UV-I 5 W/m 6,4 km/h (2 Bft)
23.09.2019 07:55 15,3 C 15,2 C 15,3 C 93 % 1014,0 hPa 0,0 l/m 4,8 km/h (1 Bft) SO 135 0 min 0,0 UV-I 5 W/m 6,4 km/h (2 Bft)
23.09.2019 07:54 15,2 C 15,2 C 15,3 C 93 % 1014,0 hPa 0,2 l/m 4,8 km/h (1 Bft) O-SO 112 0 min 0,0 UV-I 5 W/m 6,4 km/h (2 Bft)
23.09.2019 07:53 15,2 C 15,2 C 15,3 C 93 % 1014,0 hPa 0,0 l/m 1,6 km/h (1 Bft) S-SO 157 0 min 0,0 UV-I 5 W/m 6,4 km/h (2 Bft)
23.09.2019 07:52 15,2 C 15,2 C 15,3 C 93 % 1014,0 hPa 0,0 l/m 3,2 km/h (1 Bft) O-SO 112 0 min 0,0 UV-I 5 W/m 3,2 km/h (1 Bft)
23.09.2019 07:51 15,2 C 15,2 C 15,2 C 93 % 1014,1 hPa 0,0 l/m 3,2 km/h (1 Bft) S-SO 157 0 min 0,0 UV-I 5 W/m 6,4 km/h (2 Bft)
23.09.2019 07:50 15,2 C 15,2 C 15,3 C 93 % 1014,0 hPa 0,0 l/m 3,2 km/h (1 Bft) SO 135 0 min 0,0 UV-I 5 W/m 4,8 km/h (1 Bft)
23.09.2019 07:49 15,2 C 15,2 C 15,3 C 93 % 1014,0 hPa 0,0 l/m 3,2 km/h (1 Bft) O-SO 112 0 min 0,0 UV-I 5 W/m 3,2 km/h (1 Bft)
23.09.2019 07:48 15,3 C 15,2 C 15,3 C 93 % 1014,0 hPa 0,0 l/m 3,2 km/h (1 Bft) O-SO 112 0 min 0,0 UV-I 0 W/m 3,2 km/h (1 Bft)
23.09.2019 07:47 15,3 C 15,3 C 15,3 C 93 % 1013,9 hPa 0,0 l/m 3,2 km/h (1 Bft) O-SO 112 0 min 0,0 UV-I 0 W/m 6,4 km/h (2 Bft)
23.09.2019 07:46 15,3 C 15,3 C 15,3 C 93 % 1013,9 hPa 0,0 l/m 4,8 km/h (1 Bft) O-SO 112 0 min 0,0 UV-I 0 W/m 9,7 km/h (2 Bft)
23.09.2019 07:45 15,2 C 15,2 C 15,3 C 93 % 1013,9 hPa 0,2 l/m 4,8 km/h (1 Bft) SO 135 0 min 0,0 UV-I 0 W/m 6,4 km/h (2 Bft)
23.09.2019 07:44 15,3 C 15,3 C 15,3 C 93 % 1013,9 hPa 0,0 l/m 4,8 km/h (1 Bft) O-SO 112 0 min 0,0 UV-I 0 W/m 6,4 km/h (2 Bft)
23.09.2019 07:43 15,3 C 15,2 C 15,3 C 93 % 1013,9 hPa 0,0 l/m 4,8 km/h (1 Bft) O-SO 112 0 min 0,0 UV-I 0 W/m 6,4 km/h (2 Bft)
23.09.2019 07:42 15,3 C 15,2 C 15,3 C 93 % 1013,9 hPa 0,0 l/m 4,8 km/h (1 Bft) SO 135 0 min 0,0 UV-I 0 W/m 6,4 km/h (2 Bft)
23.09.2019 07:41 15,3 C 15,3 C 15,3 C 93 % 1013,9 hPa 0,0 l/m 3,2 km/h (1 Bft) SO 135 0 min 0,0 UV-I 0 W/m 4,8 km/h (1 Bft)
23.09.2019 07:40 15,3 C 15,3 C 15,3 C 93 % 1013,9 hPa 0,0 l/m 4,8 km/h (1 Bft) SO 135 0 min 0,0 UV-I 0 W/m 6,4 km/h (2 Bft)
23.09.2019 07:39 15,3 C 15,3 C 15,3 C 93 % 1013,9 hPa 0,0 l/m 3,2 km/h (1 Bft) S-SO 157 0 min 0,0 UV-I 0 W/m 6,4 km/h (2 Bft)
23.09.2019 07:38 15,3 C 15,3 C 15,3 C 93 % 1013,9 hPa 0,0 l/m 3,2 km/h (1 Bft) SO 135 0 min 0,0 UV-I 0 W/m 4,8 km/h (1 Bft)
23.09.2019 07:37 15,3 C 15,3 C 15,3 C 93 % 1013,9 hPa 0,0 l/m 3,2 km/h (1 Bft) O-SO 112 0 min 0,0 UV-I 0 W/m 4,8 km/h (1 Bft)
23.09.2019 07:36 15,2 C 15,2 C 15,3 C 93 % 1013,9 hPa 0,0 l/m 3,2 km/h (1 Bft) SO 135 0 min 0,0 UV-I 0 W/m 6,4 km/h (2 Bft)
23.09.2019 07:35 15,3 C 15,3 C 15,3 C 93 % 1013,9 hPa 0,0 l/m 3,2 km/h (1 Bft) SO 135 0 min 0,0 UV-I 0 W/m 4,8 km/h (1 Bft)
23.09.2019 07:34 15,3 C 15,3 C 15,3 C 93 % 1013,9 hPa 0,0 l/m 3,2 km/h (1 Bft) O-SO 112 0 min 0,0 UV-I 0 W/m 6,4 km/h (2 Bft)
23.09.2019 07:33 15,3 C 15,3 C 15,3 C 93 % 1013,9 hPa 0,2 l/m 4,8 km/h (1 Bft) O-SO 112 0 min 0,0 UV-I 0 W/m 6,4 km/h (2 Bft)
23.09.2019 07:32 15,3 C 15,3 C 15,3 C 93 % 1013,8 hPa 0,0 l/m 3,2 km/h (1 Bft) O-SO 112 0 min 0,0 UV-I 0 W/m 4,8 km/h (1 Bft)
23.09.2019 07:31 15,3 C 15,3 C 15,3 C 93 % 1013,8 hPa 0,0 l/m 3,2 km/h (1 Bft) O-SO 112 0 min 0,0 UV-I 0 W/m 4,8 km/h (1 Bft)
23.09.2019 07:30 15,3 C 15,3 C 15,3 C 93 % 1013,8 hPa 0,0 l/m 3,2 km/h (1 Bft) SO 135 0 min 0,0 UV-I 0 W/m 4,8 km/h (1 Bft)
23.09.2019 07:29 15,3 C 15,3 C 15,3 C 93 % 1013,8 hPa 0,0 l/m 3,2 km/h (1 Bft) O-SO 112 0 min 0,0 UV-I 0 W/m 4,8 km/h (1 Bft)
23.09.2019 07:28 15,3 C 15,3 C 15,3 C 93 % 1013,8 hPa 0,0 l/m 1,6 km/h (1 Bft) SO 135 0 min 0,0 UV-I 0 W/m 4,8 km/h (1 Bft)
23.09.2019 07:27 15,3 C 15,3 C 15,3 C 93 % 1013,8 hPa 0,0 l/m 3,2 km/h (1 Bft) S-SO 157 0 min 0,0 UV-I 0 W/m 4,8 km/h (1 Bft)
23.09.2019 07:26 15,3 C 15,3 C 15,3 C 93 % 1013,8 hPa 0,2 l/m 3,2 km/h (1 Bft) O-SO 112 0 min 0,0 UV-I 0 W/m 6,4 km/h (2 Bft)
23.09.2019 07:25 15,3 C 15,3 C 15,3 C 92 % 1013,8 hPa 0,0 l/m 0,0 km/h (0 Bft) N 0 0 min 0,0 UV-I 0 W/m 0,0 km/h (0 Bft)
23.09.2019 07:24 15,3 C 15,3 C 15,3 C 92 % 1013,7 hPa 0,0 l/m 0,0 km/h (0 Bft) SO 135 0 min 0,0 UV-I 0 W/m 1,6 km/h (1 Bft)
23.09.2019 07:23 15,3 C 15,3 C 15,3 C 92 % 1013,8 hPa 0,0 l/m 3,2 km/h (1 Bft) O-SO 112 0 min 0,0 UV-I 0 W/m 4,8 km/h (1 Bft)
23.09.2019 07:22 15,3 C 15,3 C 15,3 C 92 % 1013,7 hPa 0,0 l/m 1,6 km/h (1 Bft) SO 135 0 min 0,0 UV-I 0 W/m 4,8 km/h (1 Bft)
23.09.2019 07:21 15,3 C 15,3 C 15,3 C 92 % 1013,8 hPa 0,0 l/m 1,6 km/h (1 Bft) O-SO 112 0 min 0,0 UV-I 0 W/m 4,8 km/h (1 Bft)
23.09.2019 07:20 15,3 C 15,3 C 15,3 C 92 % 1013,7 hPa 0,2 l/m 1,6 km/h (1 Bft) O-SO 112 0 min 0,0 UV-I 0 W/m 3,2 km/h (1 Bft)
23.09.2019 07:19 15,3 C 15,3 C 15,3 C 92 % 1013,7 hPa 0,0 l/m 1,6 km/h (1 Bft) SO 135 0 min 0,0 UV-I 0 W/m 3,2 km/h (1 Bft)
23.09.2019 07:18 15,3 C 15,3 C 15,3 C 92 % 1013,7 hPa 0,0 l/m 1,6 km/h (1 Bft) SO 135 0 min 0,0 UV-I 0 W/m 3,2 km/h (1 Bft)
23.09.2019 07:17 15,3 C 15,3 C 15,3 C 93 % 1013,7 hPa 0,0 l/m 3,2 km/h (1 Bft) O-SO 112 0 min 0,0 UV-I 0 W/m 4,8 km/h (1 Bft)
23.09.2019 07:16 15,3 C 15,3 C 15,3 C 92 % 1013,7 hPa 0,0 l/m 1,6 km/h (1 Bft) SO 135 0 min 0,0 UV-I 0 W/m 3,2 km/h (1 Bft)
23.09.2019 07:15 15,3 C 15,3 C 15,3 C 92 % 1013,6 hPa 0,0 l/m 3,2 km/h (1 Bft) SO 135 0 min 0,0 UV-I 0 W/m 6,4 km/h (2 Bft)
23.09.2019 07:14 15,3 C 15,3 C 15,3 C 93 % 1013,6 hPa 0,0 l/m 0,0 km/h (0 Bft) O 90 0 min 0,0 UV-I 0 W/m 4,8 km/h (1 Bft)
23.09.2019 07:13 15,3 C 15,3 C 15,4 C 92 % 1013,7 hPa 0,2 l/m 0,0 km/h (0 Bft) SO 135 0 min 0,0 UV-I 0 W/m 1,6 km/h (1 Bft)
23.09.2019 07:12 15,3 C 15,3 C 15,3 C 92 % 1013,6 hPa 0,0 l/m 1,6 km/h (1 Bft) SO 135 0 min 0,0 UV-I 0 W/m 3,2 km/h (1 Bft)
23.09.2019 07:11 15,3 C 15,3 C 15,4 C 93 % 1013,6 hPa 0,0 l/m 1,6 km/h (1 Bft) SO 135 0 min 0,0 UV-I 0 W/m 3,2 km/h (1 Bft)
23.09.2019 07:10 15,3 C 15,3 C 15,4 C 93 % 1013,6 hPa 0,0 l/m 1,6 km/h (1 Bft) S-SO 157 0 min 0,0 UV-I 0 W/m 3,2 km/h (1 Bft)
23.09.2019 07:09 15,3 C 15,3 C 15,4 C 93 % 1013,6 hPa 0,0 l/m 1,6 km/h (1 Bft) S-SO 157 0 min 0,0 UV-I 0 W/m 3,2 km/h (1 Bft)
23.09.2019 07:08 15,3 C 15,3 C 15,4 C 93 % 1013,5 hPa 0,0 l/m 3,2 km/h (1 Bft) S-SO 157 0 min 0,0 UV-I 0 W/m 6,4 km/h (2 Bft)
23.09.2019 07:07 15,4 C 15,3 C 15,4 C 93 % 1013,5 hPa 0,0 l/m 1,6 km/h (1 Bft) O-SO 112 0 min 0,0 UV-I 0 W/m 4,8 km/h (1 Bft)
23.09.2019 07:06 15,3 C 15,3 C 15,4 C 92 % 1013,5 hPa 0,0 l/m 0,0 km/h (0 Bft) S 180 0 min 0,0 UV-I 0 W/m 3,2 km/h (1 Bft)
23.09.2019 07:05 15,3 C 15,3 C 15,4 C 92 % 1013,4 hPa 0,0 l/m 0,0 km/h (0 Bft) N 0 0 min 0,0 UV-I 0 W/m 0,0 km/h (0 Bft)
23.09.2019 07:04 15,3 C 15,3 C 15,4 C 92 % 1013,3 hPa 0,0 l/m 0,0 km/h (0 Bft) N 0 0 min 0,0 UV-I 0 W/m 0,0 km/h (0 Bft)
23.09.2019 07:03 15,4 C 15,3 C 15,4 C 92 % 1013,4 hPa 0,0 l/m 0,0 km/h (0 Bft) N 0 0 min 0,0 UV-I 0 W/m 0,0 km/h (0 Bft)
23.09.2019 07:02 15,3 C 15,3 C 15,4 C 92 % 1013,3 hPa 0,0 l/m 0,0 km/h (0 Bft) O-SO 112 0 min 0,0 UV-I 0 W/m 3,2 km/h (1 Bft)
23.09.2019 07:01 15,3 C 15,3 C 15,4 C 92 % 1013,3 hPa 0,0 l/m 1,6 km/h (1 Bft) O-SO 112 0 min 0,0 UV-I 0 W/m 4,8 km/h (1 Bft)
23.09.2019 07:00 15,4 C 15,3 C 15,4 C 92 % 1013,4 hPa 0,0 l/m 3,2 km/h (1 Bft) SW 225 0 min 0,0 UV-I 0 W/m 4,8 km/h (1 Bft)
23.09.2019 06:59 15,3 C 15,3 C 15,3 C 92 % 1013,4 hPa 0,2 l/m 1,6 km/h (1 Bft) S 180 0 min 0,0 UV-I 0 W/m 4,8 km/h (1 Bft)
23.09.2019 06:58 15,3 C 15,3 C 15,3 C 92 % 1013,4 hPa 0,0 l/m 1,6 km/h (1 Bft) S-SW 202 0 min 0,0 UV-I 0 W/m 6,4 km/h (2 Bft)
23.09.2019 06:57 15,3 C 15,3 C 15,4 C 92 % 1013,3 hPa 0,0 l/m 3,2 km/h (1 Bft) S-SW 202 0 min 0,0 UV-I 0 W/m 6,4 km/h (2 Bft)
23.09.2019 06:56 15,3 C 15,3 C 15,4 C 92 % 1013,4 hPa 0,0 l/m 3,2 km/h (1 Bft) S 180 0 min 0,0 UV-I 0 W/m 3,2 km/h (1 Bft)
23.09.2019 06:55 15,3 C 15,3 C 15,4 C 92 % 1013,4 hPa 0,0 l/m 4,8 km/h (1 Bft) SW 225 0 min 0,0 UV-I 0 W/m 9,7 km/h (2 Bft)
23.09.2019 06:54 15,3 C 15,3 C 15,3 C 92 % 1013,4 hPa 0,0 l/m 1,6 km/h (1 Bft) SW 225 0 min 0,0 UV-I 0 W/m 9,7 km/h (2 Bft)
23.09.2019 06:53 15,3 C 15,3 C 15,3 C 92 % 1013,5 hPa 0,0 l/m 4,8 km/h (1 Bft) S 180 0 min 0,0 UV-I 0 W/m 8,0 km/h (2 Bft)
23.09.2019 06:52 15,3 C 15,3 C 15,3 C 92 % 1013,4 hPa 0,0 l/m 6,4 km/h (2 Bft) S 180 0 min 0,0 UV-I 0 W/m 11,3 km/h (2 Bft)
23.09.2019 06:51 15,3 C 15,3 C 15,3 C 92 % 1013,4 hPa 0,0 l/m 8,0 km/h (2 Bft) S-SW 202 0 min 0,0 UV-I 0 W/m 9,7 km/h (2 Bft)
23.09.2019 06:50 15,3 C 15,3 C 15,3 C 92 % 1013,3 hPa 0,0 l/m 4,8 km/h (1 Bft) SW 225 0 min 0,0 UV-I 0 W/m 9,7 km/h (2 Bft)
23.09.2019 06:49 15,3 C 15,3 C 15,3 C 92 % 1013,3 hPa 0,0 l/m 1,6 km/h (1 Bft) S-SW 202 0 min 0,0 UV-I 0 W/m 4,8 km/h (1 Bft)
23.09.2019 06:48 15,3 C 15,3 C 15,3 C 92 % 1013,3 hPa 0,2 l/m 1,6 km/h (1 Bft) S 180 0 min 0,0 UV-I 0 W/m 4,8 km/h (1 Bft)
23.09.2019 06:47 15,3 C 15,3 C 15,3 C 92 % 1013,2 hPa 0,0 l/m 0,0 km/h (0 Bft) S 180 0 min 0,0 UV-I 0 W/m 4,8 km/h (1 Bft)
23.09.2019 06:46 15,3 C 15,3 C 15,3 C 92 % 1013,3 hPa 0,0 l/m 0,0 km/h (0 Bft) N 0 0 min 0,0 UV-I 0 W/m 0,0 km/h (0 Bft)
23.09.2019 06:45 15,3 C 15,3 C 15,3 C 92 % 1013,3 hPa 0,0 l/m 0,0 km/h (0 Bft) N 0 0 min 0,0 UV-I 0 W/m 0,0 km/h (0 Bft)
23.09.2019 06:44 15,3 C 15,3 C 15,3 C 92 % 1013,2 hPa 0,0 l/m 0,0 km/h (0 Bft) N 0 0 min 0,0 UV-I 0 W/m 0,0 km/h (0 Bft)
23.09.2019 06:43 15,3 C 15,3 C 15,3 C 92 % 1013,2 hPa 0,0 l/m 0,0 km/h (0 Bft) N 0 0 min 0,0 UV-I 0 W/m 0,0 km/h (0 Bft)
23.09.2019 06:42 15,3 C 15,3 C 15,3 C 92 % 1013,2 hPa 0,0 l/m 1,6 km/h (1 Bft) W-SW 247 0 min 0,0 UV-I 0 W/m 6,4 km/h (2 Bft)
23.09.2019 06:41 15,3 C 15,3 C 15,3 C 92 % 1013,2 hPa 0,0 l/m 1,6 km/h (1 Bft) S-SW 202 0 min 0,0 UV-I 0 W/m 4,8 km/h (1 Bft)
23.09.2019 06:40 15,3 C 15,3 C 15,3 C 92 % 1013,3 hPa 0,0 l/m 0,0 km/h (0 Bft) N 0 0 min 0,0 UV-I 0 W/m 0,0 km/h (0 Bft)
23.09.2019 06:39 15,3 C 15,3 C 15,3 C 92 % 1013,2 hPa 0,0 l/m 0,0 km/h (0 Bft) N 0 0 min 0,0 UV-I 0 W/m 0,0 km/h (0 Bft)
23.09.2019 06:38 15,3 C 15,3 C 15,4 C 92 % 1013,3 hPa 0,0 l/m 0,0 km/h (0 Bft) N 0 0 min 0,0 UV-I 0 W/m 0,0 km/h (0 Bft)
23.09.2019 06:37 15,4 C 15,3 C 15,4 C 92 % 1013,3 hPa 0,0 l/m 1,6 km/h (1 Bft) SW 225 0 min 0,0 UV-I 0 W/m 3,2 km/h (1 Bft)
23.09.2019 06:36 15,4 C 15,3 C 15,4 C 92 % 1013,3 hPa 0,0 l/m 0,0 km/h (0 Bft) N 0 0 min 0,0 UV-I 0 W/m 0,0 km/h (0 Bft)
23.09.2019 06:35 15,4 C 15,3 C 15,4 C 92 % 1013,3 hPa 0,0 l/m 3,2 km/h (1 Bft) S-SW 202 0 min 0,0 UV-I 0 W/m 6,4 km/h (2 Bft)
23.09.2019 06:34 15,4 C 15,3 C 15,4 C 92 % 1013,3 hPa 0,0 l/m 1,6 km/h (1 Bft) S-SW 202 0 min 0,0 UV-I 0 W/m 6,4 km/h (2 Bft)
23.09.2019 06:33 15,4 C 15,3 C 15,4 C 92 % 1013,3 hPa 0,0 l/m 4,8 km/h (1 Bft) S-SW 202 0 min 0,0 UV-I 0 W/m 6,4 km/h (2 Bft)
23.09.2019 06:32 15,3 C 15,3 C 15,4 C 92 % 1013,3 hPa 0,0 l/m 3,2 km/h (1 Bft) S-SW 202 0 min 0,0 UV-I 0 W/m 4,8 km/h (1 Bft)
23.09.2019 06:31 15,3 C 15,3 C 15,4 C 92 % 1013,3 hPa 0,0 l/m 4,8 km/h (1 Bft) SW 225 0 min 0,0 UV-I 0 W/m 8,0 km/h (2 Bft)
23.09.2019 06:30 15,3 C 15,3 C 15,4 C 92 % 1013,3 hPa 0,0 l/m 3,2 km/h (1 Bft) S 180 0 min 0,0 UV-I 0 W/m 4,8 km/h (1 Bft)
23.09.2019 06:29 15,4 C 15,3 C 15,4 C 92 % 1013,3 hPa 0,0 l/m 3,2 km/h (1 Bft) SW 225 0 min 0,0 UV-I 0 W/m 4,8 km/h (1 Bft)
23.09.2019 06:28 15,3 C 15,3 C 15,4 C 92 % 1013,2 hPa 0,0 l/m 4,8 km/h (1 Bft) S 180 0 min 0,0 UV-I 0 W/m 8,0 km/h (2 Bft)
23.09.2019 06:27 15,4 C 15,4 C 15,4 C 92 % 1013,2 hPa 0,0 l/m 3,2 km/h (1 Bft) S-SW 202 0 min 0,0 UV-I 0 W/m 8,0 km/h (2 Bft)
23.09.2019 06:26 15,4 C 15,4 C 15,4 C 92 % 1013,2 hPa 0,0 l/m 3,2 km/h (1 Bft) SW 225 0 min 0,0 UV-I 0 W/m 6,4 km/h (2 Bft)
23.09.2019 06:25 15,4 C 15,4 C 15,4 C 92 % 1013,2 hPa 0,0 l/m 3,2 km/h (1 Bft) S-SW 202 0 min 0,0 UV-I 0 W/m 6,4 km/h (2 Bft)
23.09.2019 06:24 15,4 C 15,4 C 15,4 C 92 % 1013,2 hPa 0,0 l/m 3,2 km/h (1 Bft) W-SW 247 0 min 0,0 UV-I 0 W/m 6,4 km/h (2 Bft)
23.09.2019 06:23 15,4 C 15,4 C 15,4 C 92 % 1013,3 hPa 0,0 l/m 3,2 km/h (1 Bft) SW 225 0 min 0,0 UV-I 0 W/m 6,4 km/h (2 Bft)
23.09.2019 06:22 15,4 C 15,4 C 15,4 C 92 % 1013,2 hPa 0,0 l/m 4,8 km/h (1 Bft) SW 225 0 min 0,0 UV-I 0 W/m 6,4 km/h (2 Bft)
23.09.2019 06:21 15,4 C 15,4 C 15,4 C 92 % 1013,2 hPa 0,0 l/m 3,2 km/h (1 Bft) SW 225 0 min 0,0 UV-I 0 W/m 6,4 km/h (2 Bft)
23.09.2019 06:20 15,4 C 15,4 C 15,4 C 92 % 1013,2 hPa 0,0 l/m 4,8 km/h (1 Bft) SW 225 0 min 0,0 UV-I 0 W/m 6,4 km/h (2 Bft)
23.09.2019 06:19 15,4 C 15,4 C 15,4 C 92 % 1013,2 hPa 0,0 l/m 4,8 km/h (1 Bft) S-SW 202 0 min 0,0 UV-I 0 W/m 8,0 km/h (2 Bft)
23.09.2019 06:18 15,4 C 15,4 C 15,5 C 92 % 1013,2 hPa 0,0 l/m 4,8 km/h (1 Bft) SW 225 0 min 0,0 UV-I 0 W/m 9,7 km/h (2 Bft)
23.09.2019 06:17 15,4 C 15,4 C 15,5 C 92 % 1013,2 hPa 0,2 l/m 4,8 km/h (1 Bft) S-SW 202 0 min 0,0 UV-I 0 W/m 9,7 km/h (2 Bft)
23.09.2019 06:16 15,4 C 15,4 C 15,5 C 92 % 1013,1 hPa 0,0 l/m 4,8 km/h (1 Bft) SW 225 0 min 0,0 UV-I 0 W/m 6,4 km/h (2 Bft)
23.09.2019 06:15 15,5 C 15,5 C 15,5 C 92 % 1013,2 hPa 0,0 l/m 4,8 km/h (1 Bft) S-SW 202 0 min 0,0 UV-I 0 W/m 8,0 km/h (2 Bft)
23.09.2019 06:14 15,5 C 15,5 C 15,6 C 92 % 1013,1 hPa 0,0 l/m 4,8 km/h (1 Bft) SW 225 0 min 0,0 UV-I 0 W/m 9,7 km/h (2 Bft)
23.09.2019 06:13 15,6 C 15,5 C 15,6 C 92 % 1013,1 hPa 0,0 l/m 1,6 km/h (1 Bft) S-SW 202 0 min 0,0 UV-I 0 W/m 4,8 km/h (1 Bft)
23.09.2019 06:12 15,5 C 15,5 C 15,6 C 92 % 1013,0 hPa 0,0 l/m 3,2 km/h (1 Bft) S-SW 202 0 min 0,0 UV-I 0 W/m 6,4 km/h (2 Bft)
23.09.2019 06:11 15,5 C 15,5 C 15,6 C 92 % 1013,1 hPa 0,0 l/m 3,2 km/h (1 Bft) S-SW 202 0 min 0,0 UV-I 0 W/m 4,8 km/h (1 Bft)
23.09.2019 06:10 15,6 C 15,6 C 15,6 C 92 % 1013,0 hPa 0,0 l/m 4,8 km/h (1 Bft) W-SW 247 0 min 0,0 UV-I 0 W/m 9,7 km/h (2 Bft)
23.09.2019 06:09 15,6 C 15,6 C 15,6 C 92 % 1013,0 hPa 0,0 l/m 1,6 km/h (1 Bft) SW 225 0 min 0,0 UV-I 0 W/m 6,4 km/h (2 Bft)
23.09.2019 06:08 15,6 C 15,6 C 15,6 C 92 % 1013,0 hPa 0,0 l/m 4,8 km/h (1 Bft) S-SW 202 0 min 0,0 UV-I 0 W/m 6,4 km/h (2 Bft)
23.09.2019 06:07 15,6 C 15,6 C 15,6 C 92 % 1013,0 hPa 0,0 l/m 3,2 km/h (1 Bft) S-SW 202 0 min 0,0 UV-I 0 W/m 6,4 km/h (2 Bft)
23.09.2019 06:06 15,6 C 15,6 C 15,6 C 92 % 1013,0 hPa 0,0 l/m 3,2 km/h (1 Bft) SW 225 0 min 0,0 UV-I 0 W/m 3,2 km/h (1 Bft)
23.09.2019 06:05 15,6 C 15,6 C 15,7 C 92 % 1013,0 hPa 0,0 l/m 3,2 km/h (1 Bft) SW 225 0 min 0,0 UV-I 0 W/m 6,4 km/h (2 Bft)
23.09.2019 06:04 15,6 C 15,6 C 15,7 C 92 % 1013,0 hPa 0,0 l/m 4,8 km/h (1 Bft) SW 225 0 min 0,0 UV-I 0 W/m 9,7 km/h (2 Bft)
23.09.2019 06:03 15,7 C 15,7 C 15,7 C 92 % 1013,0 hPa 0,0 l/m 1,6 km/h (1 Bft) SW 225 0 min 0,0 UV-I 0 W/m 3,2 km/h (1 Bft)
23.09.2019 06:02 15,7 C 15,7 C 15,7 C 92 % 1013,0 hPa 0,0 l/m 1,6 km/h (1 Bft) SW 225 0 min 0,0 UV-I 0 W/m 3,2 km/h (1 Bft)
23.09.2019 06:01 15,7 C 15,6 C 15,7 C 92 % 1013,0 hPa 0,0 l/m 3,2 km/h (1 Bft) W-SW 247 0 min 0,0 UV-I 0 W/m 6,4 km/h (2 Bft)
23.09.2019 06:00 15,7 C 15,7 C 15,7 C 92 % 1013,0 hPa 0,0 l/m 3,2 km/h (1 Bft) S-SW 202 0 min 0,0 UV-I 0 W/m 3,2 km/h (1 Bft)
23.09.2019 05:59 15,7 C 15,7 C 15,7 C 92 % 1013,0 hPa 0,2 l/m 1,6 km/h (1 Bft) S-SO 157 0 min 0,0 UV-I 0 W/m 6,4 km/h (2 Bft)
23.09.2019 05:58 15,7 C 15,7 C 15,7 C 92 % 1013,0 hPa 0,0 l/m 1,6 km/h (1 Bft) S-SW 202 0 min 0,0 UV-I 0 W/m 6,4 km/h (2 Bft)
23.09.2019 05:57 15,7 C 15,7 C 15,7 C 92 % 1013,0 hPa 0,0 l/m 1,6 km/h (1 Bft) S-SW 202 0 min 0,0 UV-I 0 W/m 4,8 km/h (1 Bft)
23.09.2019 05:56 15,7 C 15,7 C 15,7 C 92 % 1013,0 hPa 0,0 l/m 3,2 km/h (1 Bft) SW 225 0 min 0,0 UV-I 0 W/m 4,8 km/h (1 Bft)
23.09.2019 05:55 15,7 C 15,7 C 15,7 C 92 % 1013,0 hPa 0,0 l/m 3,2 km/h (1 Bft) SW 225 0 min 0,0 UV-I 0 W/m 4,8 km/h (1 Bft)
23.09.2019 05:54 15,7 C 15,6 C 15,7 C 92 % 1013,1 hPa 0,0 l/m 0,0 km/h (0 Bft) SW 225 0 min 0,0 UV-I 0 W/m 1,6 km/h (1 Bft)
23.09.2019 05:53 15,7 C 15,7 C 15,7 C 92 % 1013,0 hPa 0,0 l/m 4,8 km/h (1 Bft) SW 225 0 min 0,0 UV-I 0 W/m 8,0 km/h (2 Bft)
23.09.2019 05:52 15,7 C 15,7 C 15,7 C 92 % 1013,0 hPa 0,0 l/m 3,2 km/h (1 Bft) S-SW 202 0 min 0,0 UV-I 0 W/m 4,8 km/h (1 Bft)
23.09.2019 05:51 15,7 C 15,7 C 15,7 C 92 % 1013,0 hPa 0,2 l/m 4,8 km/h (1 Bft) SW 225 0 min 0,0 UV-I 0 W/m 8,0 km/h (2 Bft)
23.09.2019 05:50 15,7 C 15,7 C 15,7 C 92 % 1013,1 hPa 0,0 l/m 3,2 km/h (1 Bft) SW 225 0 min 0,0 UV-I 0 W/m 6,4 km/h (2 Bft)
23.09.2019 05:49 15,7 C 15,7 C 15,7 C 92 % 1013,0 hPa 0,0 l/m 3,2 km/h (1 Bft) SW 225 0 min 0,0 UV-I 0 W/m 6,4 km/h (2 Bft)
23.09.2019 05:48 15,7 C 15,7 C 15,7 C 92 % 1013,0 hPa 0,0 l/m 3,2 km/h (1 Bft) S-SW 202 0 min 0,0 UV-I 0 W/m 8,0 km/h (2 Bft)
23.09.2019 05:47 15,7 C 15,7 C 15,7 C 92 % 1013,0 hPa 0,0 l/m 4,8 km/h (1 Bft) S-SW 202 0 min 0,0 UV-I 0 W/m 8,0 km/h (2 Bft)
23.09.2019 05:46 15,7 C 15,7 C 15,7 C 92 % 1013,0 hPa 0,0 l/m 3,2 km/h (1 Bft) S-SW 202 0 min 0,0 UV-I 0 W/m 4,8 km/h (1 Bft)
23.09.2019 05:45 15,7 C 15,7 C 15,7 C 92 % 1013,1 hPa 0,2 l/m 3,2 km/h (1 Bft) SW 225 0 min 0,0 UV-I 0 W/m 4,8 km/h (1 Bft)
23.09.2019 05:44 15,7 C 15,7 C 15,7 C 92 % 1013,0 hPa 0,0 l/m 3,2 km/h (1 Bft) W-SW 247 0 min 0,0 UV-I 0 W/m 8,0 km/h (2 Bft)
23.09.2019 05:43 15,7 C 15,7 C 15,7 C 92 % 1013,1 hPa 0,0 l/m 4,8 km/h (1 Bft) S-SW 202 0 min 0,0 UV-I 0 W/m 9,7 km/h (2 Bft)
23.09.2019 05:42 15,7 C 15,7 C 15,7 C 92 % 1013,0 hPa 0,0 l/m 3,2 km/h (1 Bft) SW 225 0 min 0,0 UV-I 0 W/m 6,4 km/h (2 Bft)
23.09.2019 05:41 15,7 C 15,7 C 15,7 C 92 % 1013,1 hPa 0,0 l/m 4,8 km/h (1 Bft) SW 225 0 min 0,0 UV-I 0 W/m 8,0 km/h (2 Bft)
23.09.2019 05:40 15,7 C 15,7 C 15,7 C 92 % 1013,2 hPa 0,0 l/m 4,8 km/h (1 Bft) S-SW 202 0 min 0,0 UV-I 0 W/m 6,4 km/h (2 Bft)
23.09.2019 05:39 15,7 C 15,7 C 15,7 C 92 % 1013,1 hPa 0,0 l/m 4,8 km/h (1 Bft) S-SW 202 0 min 0,0 UV-I 0 W/m 6,4 km/h (2 Bft)
23.09.2019 05:38 15,7 C 15,7 C 15,7 C 92 % 1013,1 hPa 0,0 l/m 4,8 km/h (1 Bft) S-SW 202 0 min 0,0 UV-I 0 W/m 9,7 km/h (2 Bft)
23.09.2019 05:37 15,7 C 15,7 C 15,7 C 92 % 1013,1 hPa 0,0 l/m 4,8 km/h (1 Bft) S-SW 202 0 min 0,0 UV-I 0 W/m 11,3 km/h (2 Bft)
23.09.2019 05:36 15,7 C 15,7 C 15,7 C 92 % 1013,1 hPa 0,0 l/m 3,2 km/h (1 Bft) S-SW 202 0 min 0,0 UV-I 0 W/m 6,4 km/h (2 Bft)
23.09.2019 05:35 15,7 C 15,7 C 15,7 C 92 % 1013,1 hPa 0,0 l/m 3,2 km/h (1 Bft) S-SW 202 0 min 0,0 UV-I 0 W/m 6,4 km/h (2 Bft)
23.09.2019 05:34 15,7 C 15,7 C 15,7 C 92 % 1013,0 hPa 0,0 l/m 4,8 km/h (1 Bft) SW 225 0 min 0,0 UV-I 0 W/m 9,7 km/h (2 Bft)
23.09.2019 05:33 15,7 C 15,7 C 15,7 C 92 % 1013,1 hPa 0,0 l/m 6,4 km/h (2 Bft) SW 225 0 min 0,0 UV-I 0 W/m 11,3 km/h (2 Bft)
23.09.2019 05:32 15,7 C 15,7 C 15,7 C 92 % 1013,1 hPa 0,0 l/m 6,4 km/h (2 Bft) SW 225 0 min 0,0 UV-I 0 W/m 12,9 km/h (3 Bft)
23.09.2019 05:31 15,7 C 15,7 C 15,7 C 92 % 1013,0 hPa 0,0 l/m 3,2 km/h (1 Bft) SW 225 0 min 0,0 UV-I 0 W/m 4,8 km/h (1 Bft)
23.09.2019 05:30 15,7 C 15,7 C 15,7 C 92 % 1013,0 hPa 0,0 l/m 3,2 km/h (1 Bft) S-SW 202 0 min 0,0 UV-I 0 W/m 4,8 km/h (1 Bft)
23.09.2019 05:29 15,8 C 15,7 C 15,8 C 92 % 1013,1 hPa 0,0 l/m 1,6 km/h (1 Bft) SW 225 0 min 0,0 UV-I 0 W/m 6,4 km/h (2 Bft)
23.09.2019 05:28 15,7 C 15,7 C 15,8 C 92 % 1013,0 hPa 0,0 l/m 1,6 km/h (1 Bft) SW 225 0 min 0,0 UV-I 0 W/m 3,2 km/h (1 Bft)
23.09.2019 05:27 15,7 C 15,7 C 15,8 C 92 % 1013,0 hPa 0,0 l/m 4,8 km/h (1 Bft) SW 225 0 min 0,0 UV-I 0 W/m 6,4 km/h (2 Bft)
23.09.2019 05:26 15,7 C 15,7 C 15,7 C 92 % 1013,1 hPa 0,0 l/m 4,8 km/h (1 Bft) SW 225 0 min 0,0 UV-I 0 W/m 8,0 km/h (2 Bft)
23.09.2019 05:25 15,7 C 15,7 C 15,7 C 92 % 1013,1 hPa 0,0 l/m 4,8 km/h (1 Bft) S-SW 202 0 min 0,0 UV-I 0 W/m 6,4 km/h (2 Bft)
23.09.2019 05:24 15,7 C 15,7 C 15,8 C 92 % 1013,1 hPa 0,0 l/m 3,2 km/h (1 Bft) S-SW 202 0 min 0,0 UV-I 0 W/m 8,0 km/h (2 Bft)
23.09.2019 05:23 15,7 C 15,7 C 15,7 C 92 % 1013,1 hPa 0,0 l/m 3,2 km/h (1 Bft) SW 225 0 min 0,0 UV-I 0 W/m 4,8 km/h (1 Bft)
23.09.2019 05:22 15,7 C 15,7 C 15,8 C 92 % 1013,1 hPa 0,0 l/m 4,8 km/h (1 Bft) S-SW 202 0 min 0,0 UV-I 0 W/m 4,8 km/h (1 Bft)
23.09.2019 05:21 15,8 C 15,7 C 15,8 C 92 % 1013,1 hPa 0,0 l/m 6,4 km/h (2 Bft) S-SW 202 0 min 0,0 UV-I 0 W/m 8,0 km/h (2 Bft)
23.09.2019 05:20 15,8 C 15,8 C 15,8 C 92 % 1013,0 hPa 0,0 l/m 4,8 km/h (1 Bft) SW 225 0 min 0,0 UV-I 0 W/m 6,4 km/h (2 Bft)
23.09.2019 05:19 15,8 C 15,8 C 15,8 C 92 % 1013,1 hPa 0,0 l/m 3,2 km/h (1 Bft) SW 225 0 min 0,0 UV-I 0 W/m 4,8 km/h (1 Bft)
23.09.2019 05:18 15,8 C 15,8 C 15,8 C 92 % 1013,0 hPa 0,0 l/m 3,2 km/h (1 Bft) SW 225 0 min 0,0 UV-I 0 W/m 4,8 km/h (1 Bft)
23.09.2019 05:17 15,8 C 15,8 C 15,8 C 92 % 1013,1 hPa 0,2 l/m 3,2 km/h (1 Bft) SW 225 0 min 0,0 UV-I 0 W/m 6,4 km/h (2 Bft)
23.09.2019 05:16 15,8 C 15,8 C 15,8 C 92 % 1013,0 hPa 0,0 l/m 3,2 km/h (1 Bft) S-SW 202 0 min 0,0 UV-I 0 W/m 4,8 km/h (1 Bft)
23.09.2019 05:15 15,8 C 15,8 C 15,8 C 92 % 1013,0 hPa 0,0 l/m 3,2 km/h (1 Bft) S-SW 202 0 min 0,0 UV-I 0 W/m 6,4 km/h (2 Bft)
23.09.2019 05:14 15,8 C 15,8 C 15,8 C 92 % 1013,0 hPa 0,0 l/m 3,2 km/h (1 Bft) S-SW 202 0 min 0,0 UV-I 0 W/m 6,4 km/h (2 Bft)
23.09.2019 05:13 15,8 C 15,8 C 15,9 C 92 % 1013,0 hPa 0,0 l/m 3,2 km/h (1 Bft) S-SW 202 0 min 0,0 UV-I 0 W/m 6,4 km/h (2 Bft)
23.09.2019 05:12 15,8 C 15,8 C 15,8 C 92 % 1013,0 hPa 0,0 l/m 3,2 km/h (1 Bft) SW 225 0 min 0,0 UV-I 0 W/m 4,8 km/h (1 Bft)
23.09.2019 05:11 15,8 C 15,8 C 15,8 C 91 % 1013,0 hPa 0,0 l/m 3,2 km/h (1 Bft) S-SW 202 0 min 0,0 UV-I 0 W/m 4,8 km/h (1 Bft)
23.09.2019 05:10 15,8 C 15,8 C 15,8 C 91 % 1013,0 hPa 0,0 l/m 1,6 km/h (1 Bft) S-SW 202 0 min 0,0 UV-I 0 W/m 4,8 km/h (1 Bft)
23.09.2019 05:09 15,8 C 15,8 C 15,8 C 91 % 1013,0 hPa 0,0 l/m 3,2 km/h (1 Bft) W-SW 247 0 min 0,0 UV-I 0 W/m 4,8 km/h (1 Bft)
23.09.2019 05:08 15,8 C 15,8 C 15,9 C 91 % 1013,1 hPa 0,0 l/m 4,8 km/h (1 Bft) S-SW 202 0 min 0,0 UV-I 0 W/m 9,7 km/h (2 Bft)
23.09.2019 05:07 15,8 C 15,8 C 15,8 C 91 % 1013,1 hPa 0,0 l/m 4,8 km/h (1 Bft) W 270 0 min 0,0 UV-I 0 W/m 6,4 km/h (2 Bft)
23.09.2019 05:06 15,8 C 15,8 C 15,9 C 91 % 1013,2 hPa 0,0 l/m 4,8 km/h (1 Bft) SW 225 0 min 0,0 UV-I 0 W/m 9,7 km/h (2 Bft)
23.09.2019 05:05 15,8 C 15,8 C 15,9 C 91 % 1013,1 hPa 0,0 l/m 3,2 km/h (1 Bft) SW 225 0 min 0,0 UV-I 0 W/m 4,8 km/h (1 Bft)
23.09.2019 05:04 15,9 C 15,8 C 15,9 C 91 % 1013,1 hPa 0,0 l/m 4,8 km/h (1 Bft) S-SW 202 0 min 0,0 UV-I 0 W/m 9,7 km/h (2 Bft)
23.09.2019 05:03 15,8 C 15,8 C 15,9 C 91 % 1013,2 hPa 0,0 l/m 4,8 km/h (1 Bft) S-SW 202 0 min 0,0 UV-I 0 W/m 9,7 km/h (2 Bft)
23.09.2019 05:02 15,9 C 15,8 C 15,9 C 91 % 1013,1 hPa 0,0 l/m 6,4 km/h (2 Bft) SW 225 0 min 0,0 UV-I 0 W/m 9,7 km/h (2 Bft)
23.09.2019 05:01 15,9 C 15,8 C 15,9 C 91 % 1013,1 hPa 0,0 l/m 4,8 km/h (1 Bft) S-SW 202 0 min 0,0 UV-I 0 W/m 8,0 km/h (2 Bft)
23.09.2019 05:00 15,8 C 15,8 C 15,9 C 91 % 1013,2 hPa 0,0 l/m 6,4 km/h (2 Bft) S-SW 202 0 min 0,0 UV-I 0 W/m 8,0 km/h (2 Bft)
23.09.2019 04:59 15,9 C 15,9 C 15,9 C 91 % 1013,2 hPa 0,0 l/m 6,4 km/h (2 Bft) S-SW 202 0 min 0,0 UV-I 0 W/m 11,3 km/h (2 Bft)
23.09.2019 04:58 15,9 C 15,8 C 15,9 C 91 % 1013,1 hPa 0,0 l/m 8,0 km/h (2 Bft) S-SW 202 0 min 0,0 UV-I 0 W/m 12,9 km/h (3 Bft)
23.09.2019 04:57 15,9 C 15,9 C 15,9 C 91 % 1013,2 hPa 0,0 l/m 6,4 km/h (2 Bft) S-SW 202 0 min 0,0 UV-I 0 W/m 9,7 km/h (2 Bft)
23.09.2019 04:56 15,9 C 15,8 C 15,9 C 91 % 1013,2 hPa 0,0 l/m 4,8 km/h (1 Bft) S-SW 202 0 min 0,0 UV-I 0 W/m 8,0 km/h (2 Bft)
23.09.2019 04:55 15,9 C 15,9 C 15,9 C 91 % 1013,1 hPa 0,0 l/m 3,2 km/h (1 Bft) SW 225 0 min 0,0 UV-I 0 W/m 6,4 km/h (2 Bft)
23.09.2019 04:54 15,9 C 15,9 C 15,9 C 92 % 1013,1 hPa 0,0 l/m 4,8 km/h (1 Bft) S-SW 202 0 min 0,0 UV-I 0 W/m 8,0 km/h (2 Bft)
23.09.2019 04:53 15,9 C 15,9 C 15,9 C 92 % 1013,2 hPa 0,0 l/m 4,8 km/h (1 Bft) S-SW 202 0 min 0,0 UV-I 0 W/m 6,4 km/h (2 Bft)
23.09.2019 04:52 15,9 C 15,9 C 15,9 C 92 % 1013,1 hPa 0,0 l/m 6,4 km/h (2 Bft) SW 225 0 min 0,0 UV-I 0 W/m 14,5 km/h (3 Bft)
23.09.2019 04:51 15,9 C 15,9 C 15,9 C 92 % 1013,2 hPa 0,0 l/m 3,2 km/h (1 Bft) W-SW 247 0 min 0,0 UV-I 0 W/m 4,8 km/h (1 Bft)
23.09.2019 04:50 15,9 C 15,9 C 15,9 C 92 % 1013,1 hPa 0,0 l/m 6,4 km/h (2 Bft) S-SW 202 0 min 0,0 UV-I 0 W/m 11,3 km/h (2 Bft)
23.09.2019 04:49 15,9 C 15,9 C 15,9 C 92 % 1013,2 hPa 0,0 l/m 8,0 km/h (2 Bft) SW 225 0 min 0,0 UV-I 0 W/m 14,5 km/h (3 Bft)
23.09.2019 04:48 15,9 C 15,9 C 15,9 C 92 % 1013,2 hPa 0,0 l/m 8,0 km/h (2 Bft) SW 225 0 min 0,0 UV-I 0 W/m 11,3 km/h (2 Bft)
23.09.2019 04:47 15,9 C 15,9 C 16,0 C 92 % 1013,1 hPa 0,0 l/m 8,0 km/h (2 Bft) SW 225 0 min 0,0 UV-I 0 W/m 16,1 km/h (3 Bft)
23.09.2019 04:46 16,0 C 15,9 C 16,0 C 92 % 1013,2 hPa 0,0 l/m 8,0 km/h (2 Bft) S-SW 202 0 min 0,0 UV-I 0 W/m 12,9 km/h (3 Bft)
23.09.2019 04:45 16,0 C 15,9 C 16,0 C 92 % 1013,1 hPa 0,0 l/m 6,4 km/h (2 Bft) SW 225 0 min 0,0 UV-I 0 W/m 11,3 km/h (2 Bft)
23.09.2019 04:44 16,0 C 16,0 C 16,0 C 92 % 1013,1 hPa 0,0 l/m 6,4 km/h (2 Bft) S-SW 202 0 min 0,0 UV-I 0 W/m 9,7 km/h (2 Bft)
23.09.2019 04:43 16,0 C 16,0 C 16,1 C 92 % 1013,1 hPa 0,0 l/m 8,0 km/h (2 Bft) SW 225 0 min 0,0 UV-I 0 W/m 12,9 km/h (3 Bft)
23.09.2019 04:42 16,1 C 16,1 C 16,1 C 92 % 1013,1 hPa 0,0 l/m 8,0 km/h (2 Bft) SW 225 0 min 0,0 UV-I 0 W/m 11,3 km/h (2 Bft)
23.09.2019 04:41 16,1 C 16,1 C 16,1 C 92 % 1013,0 hPa 0,0 l/m 3,2 km/h (1 Bft) S-SW 202 0 min 0,0 UV-I 0 W/m 6,4 km/h (2 Bft)
23.09.2019 04:40 16,1 C 16,1 C 16,1 C 92 % 1013,1 hPa 0,0 l/m 6,4 km/h (2 Bft) S-SW 202 0 min 0,0 UV-I 0 W/m 11,3 km/h (2 Bft)
23.09.2019 04:39 16,1 C 16,1 C 16,1 C 92 % 1013,1 hPa 0,0 l/m 6,4 km/h (2 Bft) S-SW 202 0 min 0,0 UV-I 0 W/m 9,7 km/h (2 Bft)
23.09.2019 04:38 16,1 C 16,1 C 16,1 C 92 % 1013,0 hPa 0,0 l/m 6,4 km/h (2 Bft) S 180 0 min 0,0 UV-I 0 W/m 14,5 km/h (3 Bft)
23.09.2019 04:37 16,1 C 16,1 C 16,1 C 92 % 1013,1 hPa 0,0 l/m 4,8 km/h (1 Bft) S-SW 202 0 min 0,0 UV-I 0 W/m 9,7 km/h (2 Bft)
23.09.2019 04:36 16,1 C 16,1 C 16,1 C 92 % 1013,1 hPa 0,0 l/m 4,8 km/h (1 Bft) S-SW 202 0 min 0,0 UV-I 0 W/m 8,0 km/h (2 Bft)
23.09.2019 04:35 16,1 C 16,1 C 16,1 C 92 % 1013,0 hPa 0,0 l/m 6,4 km/h (2 Bft) S-SW 202 0 min 0,0 UV-I 0 W/m 11,3 km/h (2 Bft)
23.09.2019 04:34 16,1 C 16,1 C 16,1 C 92 % 1013,1 hPa 0,0 l/m 4,8 km/h (1 Bft) SW 225 0 min 0,0 UV-I 0 W/m 8,0 km/h (2 Bft)
23.09.2019 04:33 16,2 C 16,1 C 16,2 C 92 % 1013,1 hPa 0,0 l/m 4,8 km/h (1 Bft) S-SW 202 0 min 0,0 UV-I 0 W/m 9,7 km/h (2 Bft)
23.09.2019 04:32 16,2 C 16,2 C 16,2 C 92 % 1013,1 hPa 0,0 l/m 4,8 km/h (1 Bft) S-SW 202 0 min 0,0 UV-I 0 W/m 9,7 km/h (2 Bft)
23.09.2019 04:31 16,2 C 16,2 C 16,2 C 92 % 1013,1 hPa 0,0 l/m 4,8 km/h (1 Bft) S-SW 202 0 min 0,0 UV-I 0 W/m 9,7 km/h (2 Bft)
23.09.2019 04:30 16,2 C 16,2 C 16,2 C 93 % 1013,1 hPa 0,0 l/m 6,4 km/h (2 Bft) S 180 0 min 0,0 UV-I 0 W/m 11,3 km/h (2 Bft)
23.09.2019 04:29 16,2 C 16,2 C 16,2 C 92 % 1013,1 hPa 0,0 l/m 4,8 km/h (1 Bft) S-SW 202 0 min 0,0 UV-I 0 W/m 6,4 km/h (2 Bft)
23.09.2019 04:28 16,2 C 16,2 C 16,2 C 92 % 1013,1 hPa 0,0 l/m 4,8 km/h (1 Bft) S-SW 202 0 min 0,0 UV-I 0 W/m 6,4 km/h (2 Bft)
23.09.2019 04:27 16,2 C 16,2 C 16,3 C 92 % 1013,1 hPa 0,0 l/m 6,4 km/h (2 Bft) SW 225 0 min 0,0 UV-I 0 W/m 11,3 km/h (2 Bft)
23.09.2019 04:26 16,2 C 16,2 C 16,3 C 93 % 1013,0 hPa 0,0 l/m 8,0 km/h (2 Bft) SW 225 0 min 0,0 UV-I 0 W/m 14,5 km/h (3 Bft)
23.09.2019 04:25 16,3 C 16,2 C 16,3 C 93 % 1013,1 hPa 0,0 l/m 4,8 km/h (1 Bft) S-SW 202 0 min 0,0 UV-I 0 W/m 9,7 km/h (2 Bft)
23.09.2019 04:24 16,3 C 16,3 C 16,3 C 93 % 1013,0 hPa 0,0 l/m 6,4 km/h (2 Bft) S-SO 157 0 min 0,0 UV-I 0 W/m 12,9 km/h (3 Bft)
23.09.2019 04:23 16,3 C 16,3 C 16,3 C 93 % 1013,1 hPa 0,0 l/m 6,4 km/h (2 Bft) S 180 0 min 0,0 UV-I 0 W/m 11,3 km/h (2 Bft)
23.09.2019 04:22 16,3 C 16,3 C 16,3 C 93 % 1013,0 hPa 0,0 l/m 4,8 km/h (1 Bft) S-SW 202 0 min 0,0 UV-I 0 W/m 8,0 km/h (2 Bft)
23.09.2019 04:21 16,3 C 16,3 C 16,3 C 93 % 1013,1 hPa 0,0 l/m 4,8 km/h (1 Bft) S-SW 202 0 min 0,0 UV-I 0 W/m 9,7 km/h (2 Bft)
23.09.2019 04:20 16,3 C 16,3 C 16,3 C 93 % 1013,0 hPa 0,0 l/m 3,2 km/h (1 Bft) S 180 0 min 0,0 UV-I 0 W/m 6,4 km/h (2 Bft)
23.09.2019 04:19 16,3 C 16,3 C 16,3 C 93 % 1013,0 hPa 0,0 l/m 3,2 km/h (1 Bft) S 180 0 min 0,0 UV-I 0 W/m 4,8 km/h (1 Bft)
23.09.2019 04:18 16,3 C 16,3 C 16,3 C 93 % 1013,1 hPa 0,0 l/m 3,2 km/h (1 Bft) S-SO 157 0 min 0,0 UV-I 0 W/m 6,4 km/h (2 Bft)
23.09.2019 04:17 16,3 C 16,3 C 16,3 C 93 % 1013,0 hPa 0,0 l/m 3,2 km/h (1 Bft) S 180 0 min 0,0 UV-I 0 W/m 4,8 km/h (1 Bft)
23.09.2019 04:16 16,3 C 16,3 C 16,3 C 93 % 1013,0 hPa 0,0 l/m 3,2 km/h (1 Bft) S 180 0 min 0,0 UV-I 0 W/m 6,4 km/h (2 Bft)
23.09.2019 04:15 16,3 C 16,3 C 16,3 C 93 % 1013,0 hPa 0,0 l/m 3,2 km/h (1 Bft) S 180 0 min 0,0 UV-I 0 W/m 4,8 km/h (1 Bft)
23.09.2019 04:14 16,3 C 16,3 C 16,3 C 93 % 1013,0 hPa 0,0 l/m 3,2 km/h (1 Bft) S 180 0 min 0,0 UV-I 0 W/m 6,4 km/h (2 Bft)
23.09.2019 04:13 16,3 C 16,3 C 16,3 C 93 % 1012,9 hPa 0,2 l/m 1,6 km/h (1 Bft) S 180 0 min 0,0 UV-I 0 W/m 3,2 km/h (1 Bft)
23.09.2019 04:12 16,3 C 16,3 C 16,3 C 93 % 1012,9 hPa 0,0 l/m 4,8 km/h (1 Bft) S-SO 157 0 min 0,0 UV-I 0 W/m 8,0 km/h (2 Bft)
23.09.2019 04:11 16,3 C 16,3 C 16,3 C 93 % 1012,9 hPa 0,0 l/m 1,6 km/h (1 Bft) S 180 0 min 0,0 UV-I 0 W/m 6,4 km/h (2 Bft)
23.09.2019 04:10 16,3 C 16,3 C 16,3 C 93 % 1012,9 hPa 0,0 l/m 1,6 km/h (1 Bft) S-SW 202 0 min 0,0 UV-I 0 W/m 3,2 km/h (1 Bft)
23.09.2019 04:09 16,3 C 16,3 C 16,3 C 93 % 1012,9 hPa 0,0 l/m 3,2 km/h (1 Bft) S-SW 202 0 min 0,0 UV-I 0 W/m 4,8 km/h (1 Bft)
23.09.2019 04:08 16,3 C 16,3 C 16,3 C 93 % 1012,9 hPa 0,0 l/m 3,2 km/h (1 Bft) S-SW 202 0 min 0,0 UV-I 0 W/m 4,8 km/h (1 Bft)
23.09.2019 04:07 16,3 C 16,3 C 16,3 C 93 % 1012,9 hPa 0,0 l/m 3,2 km/h (1 Bft) S-SO 157 0 min 0,0 UV-I 0 W/m 6,4 km/h (2 Bft)
23.09.2019 04:06 16,3 C 16,3 C 16,3 C 93 % 1012,9 hPa 0,0 l/m 3,2 km/h (1 Bft) S-SO 157 0 min 0,0 UV-I 0 W/m 4,8 km/h (1 Bft)
23.09.2019 04:05 16,3 C 16,3 C 16,3 C 93 % 1012,8 hPa 0,0 l/m 3,2 km/h (1 Bft) S-SO 157 0 min 0,0 UV-I 0 W/m 4,8 km/h (1 Bft)
23.09.2019 04:04 16,3 C 16,3 C 16,3 C 93 % 1012,8 hPa 0,0 l/m 4,8 km/h (1 Bft) S-SO 157 0 min 0,0 UV-I 0 W/m 8,0 km/h (2 Bft)
23.09.2019 04:03 16,3 C 16,3 C 16,3 C 93 % 1012,8 hPa 0,0 l/m 3,2 km/h (1 Bft) S-SO 157 0 min 0,0 UV-I 0 W/m 6,4 km/h (2 Bft)
23.09.2019 04:02 16,3 C 16,3 C 16,3 C 93 % 1012,8 hPa 0,2 l/m 3,2 km/h (1 Bft) S-SO 157 0 min 0,0 UV-I 0 W/m 3,2 km/h (1 Bft)
23.09.2019 04:01 16,3 C 16,2 C 16,3 C 93 % 1012,8 hPa 0,0 l/m 3,2 km/h (1 Bft) S-SO 157 0 min 0,0 UV-I 0 W/m 6,4 km/h (2 Bft)
23.09.2019 04:00 16,3 C 16,2 C 16,3 C 93 % 1012,8 hPa 0,0 l/m 3,2 km/h (1 Bft) S-SO 157 0 min 0,0 UV-I 0 W/m 6,4 km/h (2 Bft)
23.09.2019 03:59 16,3 C 16,2 C 16,3 C 93 % 1012,7 hPa 0,0 l/m 0,0 km/h (0 Bft) N 0 0 min 0,0 UV-I 0 W/m 0,0 km/h (0 Bft)
23.09.2019 03:58 16,3 C 16,2 C 16,3 C 93 % 1012,7 hPa 0,0 l/m 0,0 km/h (0 Bft) N 0 0 min 0,0 UV-I 0 W/m 0,0 km/h (0 Bft)
23.09.2019 03:57 16,2 C 16,2 C 16,3 C 93 % 1012,6 hPa 0,0 l/m 0,0 km/h (0 Bft) N 0 0 min 0,0 UV-I 0 W/m 0,0 km/h (0 Bft)
23.09.2019 03:56 16,3 C 16,2 C 16,3 C 93 % 1012,6 hPa 0,0 l/m 0,0 km/h (0 Bft) N 0 0 min 0,0 UV-I 0 W/m 0,0 km/h (0 Bft)
23.09.2019 03:55 16,2 C 16,2 C 16,3 C 93 % 1012,6 hPa 0,0 l/m 0,0 km/h (0 Bft) N 0 0 min 0,0 UV-I 0 W/m 0,0 km/h (0 Bft)
23.09.2019 03:54 16,2 C 16,2 C 16,2 C 93 % 1012,6 hPa 0,0 l/m 0,0 km/h (0 Bft) N 0 0 min 0,0 UV-I 0 W/m 0,0 km/h (0 Bft)
23.09.2019 03:53 16,3 C 16,2 C 16,3 C 93 % 1012,5 hPa 0,0 l/m 0,0 km/h (0 Bft) N 0 0 min 0,0 UV-I 0 W/m 0,0 km/h (0 Bft)
23.09.2019 03:52 16,2 C 16,2 C 16,3 C 93 % 1012,5 hPa 0,0 l/m 0,0 km/h (0 Bft) N 0 0 min 0,0 UV-I 0 W/m 0,0 km/h (0 Bft)
23.09.2019 03:51 16,2 C 16,2 C 16,3 C 93 % 1012,5 hPa 0,2 l/m 0,0 km/h (0 Bft) N 0 0 min 0,0 UV-I 0 W/m 0,0 km/h (0 Bft)
23.09.2019 03:50 16,2 C 16,2 C 16,2 C 93 % 1012,5 hPa 0,0 l/m 0,0 km/h (0 Bft) N 0 0 min 0,0 UV-I 0 W/m 0,0 km/h (0 Bft)
23.09.2019 03:49 16,3 C 16,2 C 16,3 C 93 % 1012,5 hPa 0,0 l/m 0,0 km/h (0 Bft) N 0 0 min 0,0 UV-I 0 W/m 0,0 km/h (0 Bft)
23.09.2019 03:48 16,3 C 16,2 C 16,3 C 93 % 1012,5 hPa 0,0 l/m 0,0 km/h (0 Bft) N 0 0 min 0,0 UV-I 0 W/m 0,0 km/h (0 Bft)
23.09.2019 03:47 16,2 C 16,2 C 16,3 C 93 % 1012,4 hPa 0,0 l/m 0,0 km/h (0 Bft) N 0 0 min 0,0 UV-I 0 W/m 0,0 km/h (0 Bft)
23.09.2019 03:46 16,2 C 16,2 C 16,3 C 93 % 1012,4 hPa 0,0 l/m 0,0 km/h (0 Bft) N 0 0 min 0,0 UV-I 0 W/m 0,0 km/h (0 Bft)
23.09.2019 03:45 16,2 C 16,2 C 16,3 C 93 % 1012,4 hPa 0,0 l/m 0,0 km/h (0 Bft) N 0 0 min 0,0 UV-I 0 W/m 0,0 km/h (0 Bft)
23.09.2019 03:44 16,2 C 16,2 C 16,2 C 93 % 1012,4 hPa 0,0 l/m 0,0 km/h (0 Bft) N 0 0 min 0,0 UV-I 0 W/m 0,0 km/h (0 Bft)
23.09.2019 03:43 16,2 C 16,2 C 16,3 C 93 % 1012,3 hPa 0,0 l/m 0,0 km/h (0 Bft) N 0 0 min 0,0 UV-I 0 W/m 0,0 km/h (0 Bft)
23.09.2019 03:42 16,2 C 16,2 C 16,3 C 93 % 1012,4 hPa 0,0 l/m 0,0 km/h (0 Bft) N 0 0 min 0,0 UV-I 0 W/m 0,0 km/h (0 Bft)
23.09.2019 03:41 16,2 C 16,2 C 16,2 C 93 % 1012,4 hPa 0,0 l/m 0,0 km/h (0 Bft) N 0 0 min 0,0 UV-I 0 W/m 0,0 km/h (0 Bft)
23.09.2019 03:40 16,2 C 16,2 C 16,2 C 93 % 1012,5 hPa 0,2 l/m 0,0 km/h (0 Bft) N 0 0 min 0,0 UV-I 0 W/m 0,0 km/h (0 Bft)
23.09.2019 03:39 16,2 C 16,2 C 16,2 C 92 % 1012,4 hPa 0,0 l/m 0,0 km/h (0 Bft) N 0 0 min 0,0 UV-I 0 W/m 0,0 km/h (0 Bft)
23.09.2019 03:38 16,2 C 16,2 C 16,2 C 92 % 1012,4 hPa 0,0 l/m 0,0 km/h (0 Bft) N 0 0 min 0,0 UV-I 0 W/m 0,0 km/h (0 Bft)
23.09.2019 03:37 16,2 C 16,2 C 16,2 C 92 % 1012,5 hPa 0,0 l/m 0,0 km/h (0 Bft) N 0 0 min 0,0 UV-I 0 W/m 0,0 km/h (0 Bft)
23.09.2019 03:36 16,2 C 16,2 C 16,2 C 92 % 1012,4 hPa 0,0 l/m 0,0 km/h (0 Bft) N 0 0 min 0,0 UV-I 0 W/m 0,0 km/h (0 Bft)
23.09.2019 03:35 16,2 C 16,2 C 16,2 C 92 % 1012,4 hPa 0,2 l/m 0,0 km/h (0 Bft) N 0 0 min 0,0 UV-I 0 W/m 0,0 km/h (0 Bft)
23.09.2019 03:34 16,2 C 16,2 C 16,2 C 92 % 1012,4 hPa 0,0 l/m 0,0 km/h (0 Bft) N 0 0 min 0,0 UV-I 0 W/m 0,0 km/h (0 Bft)
23.09.2019 03:33 16,2 C 16,2 C 16,2 C 92 % 1012,4 hPa 0,0 l/m 0,0 km/h (0 Bft) N 0 0 min 0,0 UV-I 0 W/m 0,0 km/h (0 Bft)
23.09.2019 03:32 16,2 C 16,2 C 16,2 C 92 % 1012,4 hPa 0,0 l/m 0,0 km/h (0 Bft) N 0 0 min 0,0 UV-I 0 W/m 0,0 km/h (0 Bft)
23.09.2019 03:31 16,2 C 16,2 C 16,2 C 92 % 1012,4 hPa 0,0 l/m 0,0 km/h (0 Bft) N 0 0 min 0,0 UV-I 0 W/m 0,0 km/h (0 Bft)
23.09.2019 03:30 16,2 C 16,2 C 16,3 C 92 % 1012,4 hPa 0,0 l/m 0,0 km/h (0 Bft) N 0 0 min 0,0 UV-I 0 W/m 0,0 km/h (0 Bft)
23.09.2019 03:29 16,2 C 16,2 C 16,2 C 92 % 1012,3 hPa 0,0 l/m 0,0 km/h (0 Bft) N 0 0 min 0,0 UV-I 0 W/m 0,0 km/h (0 Bft)
23.09.2019 03:28 16,2 C 16,2 C 16,3 C 92 % 1012,4 hPa 0,0 l/m 0,0 km/h (0 Bft) N 0 0 min 0,0 UV-I 0 W/m 0,0 km/h (0 Bft)
23.09.2019 03:27 16,2 C 16,2 C 16,2 C 92 % 1012,4 hPa 0,0 l/m 0,0 km/h (0 Bft) N 0 0 min 0,0 UV-I 0 W/m 0,0 km/h (0 Bft)
23.09.2019 03:26 16,2 C 16,2 C 16,2 C 92 % 1012,4 hPa 0,0 l/m 0,0 km/h (0 Bft) N 0 0 min 0,0 UV-I 0 W/m 0,0 km/h (0 Bft)
23.09.2019 03:25 16,2 C 16,2 C 16,3 C 92 % 1012,4 hPa 0,0 l/m 0,0 km/h (0 Bft) N 0 0 min 0,0 UV-I 0 W/m 0,0 km/h (0 Bft)
23.09.2019 03:24 16,3 C 16,2 C 16,3 C 92 % 1012,3 hPa 0,2 l/m 0,0 km/h (0 Bft) N 0 0 min 0,0 UV-I 0 W/m 0,0 km/h (0 Bft)
23.09.2019 03:23 16,3 C 16,3 C 16,3 C 92 % 1012,4 hPa 0,0 l/m 0,0 km/h (0 Bft) N 0 0 min 0,0 UV-I 0 W/m 0,0 km/h (0 Bft)
23.09.2019 03:22 16,3 C 16,3 C 16,3 C 92 % 1012,4 hPa 0,0 l/m 0,0 km/h (0 Bft) N 0 0 min 0,0 UV-I 0 W/m 0,0 km/h (0 Bft)
23.09.2019 03:21 16,3 C 16,3 C 16,3 C 92 % 1012,3 hPa 0,0 l/m 0,0 km/h (0 Bft) N 0 0 min 0,0 UV-I 0 W/m 0,0 km/h (0 Bft)
23.09.2019 03:20 16,3 C 16,3 C 16,3 C 92 % 1012,3 hPa 0,0 l/m 0,0 km/h (0 Bft) N 0 0 min 0,0 UV-I 0 W/m 0,0 km/h (0 Bft)
23.09.2019 03:19 16,3 C 16,3 C 16,3 C 92 % 1012,4 hPa 0,2 l/m 0,0 km/h (0 Bft) N 0 0 min 0,0 UV-I 0 W/m 0,0 km/h (0 Bft)
23.09.2019 03:18 16,3 C 16,3 C 16,3 C 92 % 1012,3 hPa 0,0 l/m 0,0 km/h (0 Bft) N 0 0 min 0,0 UV-I 0 W/m 0,0 km/h (0 Bft)
23.09.2019 03:17 16,3 C 16,2 C 16,3 C 92 % 1012,3 hPa 0,0 l/m 0,0 km/h (0 Bft) N 0 0 min 0,0 UV-I 0 W/m 0,0 km/h (0 Bft)
23.09.2019 03:16 16,3 C 16,3 C 16,3 C 92 % 1012,4 hPa 0,0 l/m 0,0 km/h (0 Bft) N 0 0 min 0,0 UV-I 0 W/m 0,0 km/h (0 Bft)
23.09.2019 03:15 16,3 C 16,3 C 16,3 C 92 % 1012,3 hPa 0,0 l/m 0,0 km/h (0 Bft) N 0 0 min 0,0 UV-I 0 W/m 0,0 km/h (0 Bft)
23.09.2019 03:14 16,2 C 16,2 C 16,3 C 92 % 1012,2 hPa 0,0 l/m 0,0 km/h (0 Bft) N 0 0 min 0,0 UV-I 0 W/m 0,0 km/h (0 Bft)
23.09.2019 03:13 16,3 C 16,3 C 16,3 C 92 % 1012,3 hPa 0,2 l/m 0,0 km/h (0 Bft) N 0 0 min 0,0 UV-I 0 W/m 0,0 km/h (0 Bft)
23.09.2019 03:12 16,3 C 16,3 C 16,3 C 92 % 1012,3 hPa 0,0 l/m 0,0 km/h (0 Bft) N 0 0 min 0,0 UV-I 0 W/m 0,0 km/h (0 Bft)
23.09.2019 03:11 16,3 C 16,3 C 16,3 C 92 % 1012,3 hPa 0,0 l/m 0,0 km/h (0 Bft) N 0 0 min 0,0 UV-I 0 W/m 0,0 km/h (0 Bft)
23.09.2019 03:10 16,3 C 16,3 C 16,3 C 92 % 1012,3 hPa 0,0 l/m 0,0 km/h (0 Bft) N 0 0 min 0,0 UV-I 0 W/m 0,0 km/h (0 Bft)
23.09.2019 03:09 16,3 C 16,2 C 16,3 C 92 % 1012,3 hPa 0,0 l/m 0,0 km/h (0 Bft) N 0 0 min 0,0 UV-I 0 W/m 0,0 km/h (0 Bft)
23.09.2019 03:08 16,3 C 16,3 C 16,3 C 92 % 1012,3 hPa 0,2 l/m 0,0 km/h (0 Bft) N 0 0 min 0,0 UV-I 0 W/m 0,0 km/h (0 Bft)
23.09.2019 03:07 16,3 C 16,3 C 16,3 C 92 % 1012,3 hPa 0,0 l/m 0,0 km/h (0 Bft) N 0 0 min 0,0 UV-I 0 W/m 0,0 km/h (0 Bft)
23.09.2019 03:06 16,3 C 16,3 C 16,3 C 92 % 1012,3 hPa 0,0 l/m 0,0 km/h (0 Bft) N 0 0 min 0,0 UV-I 0 W/m 0,0 km/h (0 Bft)
23.09.2019 03:05 16,3 C 16,3 C 16,3 C 92 % 1012,3 hPa 0,0 l/m 0,0 km/h (0 Bft) N 0 0 min 0,0 UV-I 0 W/m 0,0 km/h (0 Bft)
23.09.2019 03:04 16,3 C 16,3 C 16,3 C 92 % 1012,4 hPa 0,0 l/m 0,0 km/h (0 Bft) N 0 0 min 0,0 UV-I 0 W/m 0,0 km/h (0 Bft)
23.09.2019 03:03 16,3 C 16,2 C 16,3 C 92 % 1012,3 hPa 0,2 l/m 0,0 km/h (0 Bft) N 0 0 min 0,0 UV-I 0 W/m 0,0 km/h (0 Bft)
23.09.2019 03:02 16,3 C 16,2 C 16,3 C 92 % 1012,3 hPa 0,0 l/m 0,0 km/h (0 Bft) N 0 0 min 0,0 UV-I 0 W/m 0,0 km/h (0 Bft)
23.09.2019 03:01 16,3 C 16,2 C 16,3 C 92 % 1012,4 hPa 0,2 l/m 0,0 km/h (0 Bft) N 0 0 min 0,0 UV-I 0 W/m 0,0 km/h (0 Bft)
23.09.2019 03:00 16,3 C 16,2 C 16,3 C 92 % 1012,3 hPa 0,0 l/m 0,0 km/h (0 Bft) N 0 0 min 0,0 UV-I 0 W/m 0,0 km/h (0 Bft)
23.09.2019 02:59 16,2 C 16,2 C 16,2 C 92 % 1012,3 hPa 0,0 l/m 0,0 km/h (0 Bft) N 0 0 min 0,0 UV-I 0 W/m 0,0 km/h (0 Bft)
23.09.2019 02:58 16,2 C 16,2 C 16,2 C 92 % 1012,3 hPa 0,2 l/m 0,0 km/h (0 Bft) N 0 0 min 0,0 UV-I 0 W/m 0,0 km/h (0 Bft)
23.09.2019 02:57 16,2 C 16,2 C 16,2 C 92 % 1012,3 hPa 0,0 l/m 1,6 km/h (1 Bft) S-SW 202 0 min 0,0 UV-I 0 W/m 4,8 km/h (1 Bft)
23.09.2019 02:56 16,2 C 16,2 C 16,2 C 92 % 1012,3 hPa 0,0 l/m 3,2 km/h (1 Bft) S 180 0 min 0,0 UV-I 0 W/m 9,7 km/h (2 Bft)
23.09.2019 02:55 16,2 C 16,2 C 16,2 C 92 % 1012,3 hPa 0,0 l/m 3,2 km/h (1 Bft) W 270 0 min 0,0 UV-I 0 W/m 9,7 km/h (2 Bft)
23.09.2019 02:54 16,2 C 16,2 C 16,3 C 92 % 1012,3 hPa 0,2 l/m 3,2 km/h (1 Bft) W-SW 247 0 min 0,0 UV-I 0 W/m 9,7 km/h (2 Bft)
23.09.2019 02:53 16,2 C 16,2 C 16,3 C 92 % 1012,4 hPa 0,0 l/m 4,8 km/h (1 Bft) W 270 0 min 0,0 UV-I 0 W/m 9,7 km/h (2 Bft)
23.09.2019 02:52 16,2 C 16,2 C 16,2 C 92 % 1012,4 hPa 0,0 l/m 3,2 km/h (1 Bft) W 270 0 min 0,0 UV-I 0 W/m 6,4 km/h (2 Bft)
23.09.2019 02:51 16,2 C 16,2 C 16,2 C 92 % 1012,3 hPa 0,0 l/m 1,6 km/h (1 Bft) W-SW 247 0 min 0,0 UV-I 0 W/m 4,8 km/h (1 Bft)
23.09.2019 02:50 16,2 C 16,2 C 16,2 C 92 % 1012,4 hPa 0,0 l/m 4,8 km/h (1 Bft) SW 225 0 min 0,0 UV-I 0 W/m 6,4 km/h (2 Bft)
23.09.2019 02:49 16,2 C 16,2 C 16,2 C 92 % 1012,4 hPa 0,0 l/m 3,2 km/h (1 Bft) S-SW 202 0 min 0,0 UV-I 0 W/m 6,4 km/h (2 Bft)
23.09.2019 02:48 16,2 C 16,2 C 16,2 C 92 % 1012,4 hPa 0,0 l/m 4,8 km/h (1 Bft) SW 225 0 min 0,0 UV-I 0 W/m 9,7 km/h (2 Bft)
23.09.2019 02:47 16,2 C 16,2 C 16,2 C 92 % 1012,3 hPa 0,0 l/m 4,8 km/h (1 Bft) SW 225 0 min 0,0 UV-I 0 W/m 6,4 km/h (2 Bft)
23.09.2019 02:46 16,2 C 16,2 C 16,2 C 92 % 1012,4 hPa 0,0 l/m 3,2 km/h (1 Bft) W-SW 247 0 min 0,0 UV-I 0 W/m 4,8 km/h (1 Bft)
23.09.2019 02:45 16,2 C 16,2 C 16,2 C 92 % 1012,3 hPa 0,0 l/m 1,6 km/h (1 Bft) SW 225 0 min 0,0 UV-I 0 W/m 4,8 km/h (1 Bft)
23.09.2019 02:44 16,2 C 16,2 C 16,2 C 92 % 1012,3 hPa 0,2 l/m 3,2 km/h (1 Bft) SW 225 0 min 0,0 UV-I 0 W/m 4,8 km/h (1 Bft)
23.09.2019 02:43 16,2 C 16,2 C 16,3 C 92 % 1012,4 hPa 0,0 l/m 1,6 km/h (1 Bft) SW 225 0 min 0,0 UV-I 0 W/m 4,8 km/h (1 Bft)
23.09.2019 02:42 16,3 C 16,2 C 16,3 C 92 % 1012,4 hPa 0,0 l/m 3,2 km/h (1 Bft) S-SW 202 0 min 0,0 UV-I 0 W/m 6,4 km/h (2 Bft)
23.09.2019 02:41 16,2 C 16,2 C 16,3 C 92 % 1012,4 hPa 0,0 l/m 4,8 km/h (1 Bft) S-SW 202 0 min 0,0 UV-I 0 W/m 6,4 km/h (2 Bft)
23.09.2019 02:40 16,3 C 16,2 C 16,3 C 92 % 1012,4 hPa 0,0 l/m 3,2 km/h (1 Bft) S-SW 202 0 min 0,0 UV-I 0 W/m 4,8 km/h (1 Bft)
23.09.2019 02:39 16,2 C 16,2 C 16,2 C 92 % 1012,4 hPa 0,0 l/m 3,2 km/h (1 Bft) S-SW 202 0 min 0,0 UV-I 0 W/m 6,4 km/h (2 Bft)
23.09.2019 02:38 16,2 C 16,2 C 16,2 C 92 % 1012,4 hPa 0,0 l/m 3,2 km/h (1 Bft) S 180 0 min 0,0 UV-I 0 W/m 4,8 km/h (1 Bft)
23.09.2019 02:37 16,2 C 16,2 C 16,2 C 92 % 1012,4 hPa 0,0 l/m 3,2 km/h (1 Bft) SW 225 0 min 0,0 UV-I 0 W/m 6,4 km/h (2 Bft)
23.09.2019 02:36 16,2 C 16,2 C 16,2 C 92 % 1012,3 hPa 0,2 l/m 4,8 km/h (1 Bft) S-SW 202 0 min 0,0 UV-I 0 W/m 6,4 km/h (2 Bft)
23.09.2019 02:35 16,2 C 16,2 C 16,2 C 92 % 1012,3 hPa 0,0 l/m 3,2 km/h (1 Bft) SW 225 0 min 0,0 UV-I 0 W/m 4,8 km/h (1 Bft)
23.09.2019 02:34 16,2 C 16,2 C 16,2 C 92 % 1012,3 hPa 0,0 l/m 3,2 km/h (1 Bft) SW 225 0 min 0,0 UV-I 0 W/m 4,8 km/h (1 Bft)
23.09.2019 02:33 16,2 C 16,2 C 16,2 C 92 % 1012,3 hPa 0,0 l/m 4,8 km/h (1 Bft) S-SW 202 0 min 0,0 UV-I 0 W/m 8,0 km/h (2 Bft)
23.09.2019 02:32 16,2 C 16,2 C 16,2 C 92 % 1012,3 hPa 0,2 l/m 3,2 km/h (1 Bft) S-SW 202 0 min 0,0 UV-I 0 W/m 4,8 km/h (1 Bft)
23.09.2019 02:31 16,2 C 16,2 C 16,2 C 92 % 1012,3 hPa 0,0 l/m 4,8 km/h (1 Bft) SW 225 0 min 0,0 UV-I 0 W/m 6,4 km/h (2 Bft)
23.09.2019 02:30 16,2 C 16,2 C 16,2 C 92 % 1012,3 hPa 0,2 l/m 3,2 km/h (1 Bft) SW 225 0 min 0,0 UV-I 0 W/m 4,8 km/h (1 Bft)
23.09.2019 02:29 16,2 C 16,2 C 16,2 C 92 % 1012,3 hPa 0,0 l/m 3,2 km/h (1 Bft) S-SW 202 0 min 0,0 UV-I 0 W/m 6,4 km/h (2 Bft)
23.09.2019 02:28 16,2 C 16,2 C 16,2 C 92 % 1012,3 hPa 0,0 l/m 3,2 km/h (1 Bft) S-SW 202 0 min 0,0 UV-I 0 W/m 6,4 km/h (2 Bft)
23.09.2019 02:27 16,2 C 16,2 C 16,2 C 92 % 1012,3 hPa 0,0 l/m 3,2 km/h (1 Bft) SW 225 0 min 0,0 UV-I 0 W/m 4,8 km/h (1 Bft)
23.09.2019 02:26 16,2 C 16,2 C 16,2 C 92 % 1012,3 hPa 0,0 l/m 1,6 km/h (1 Bft) S 180 0 min 0,0 UV-I 0 W/m 3,2 km/h (1 Bft)
23.09.2019 02:25 16,2 C 16,2 C 16,2 C 92 % 1012,4 hPa 0,0 l/m 4,8 km/h (1 Bft) S-SW 202 0 min 0,0 UV-I 0 W/m 6,4 km/h (2 Bft)
23.09.2019 02:24 16,2 C 16,2 C 16,2 C 92 % 1012,4 hPa 0,2 l/m 3,2 km/h (1 Bft) S 180 0 min 0,0 UV-I 0 W/m 6,4 km/h (2 Bft)
23.09.2019 02:23 16,2 C 16,2 C 16,2 C 92 % 1012,4 hPa 0,0 l/m 1,6 km/h (1 Bft) S 180 0 min 0,0 UV-I 0 W/m 3,2 km/h (1 Bft)
23.09.2019 02:22 16,2 C 16,2 C 16,2 C 92 % 1012,3 hPa 0,0 l/m 0,0 km/h (0 Bft) S 180 0 min 0,0 UV-I 0 W/m 1,6 km/h (1 Bft)
23.09.2019 02:21 16,2 C 16,2 C 16,2 C 92 % 1012,4 hPa 0,0 l/m 1,6 km/h (1 Bft) S 180 0 min 0,0 UV-I 0 W/m 3,2 km/h (1 Bft)
23.09.2019 02:20 16,1 C 16,1 C 16,2 C 92 % 1012,4 hPa 0,2 l/m 0,0 km/h (0 Bft) S 180 0 min 0,0 UV-I 0 W/m 4,8 km/h (1 Bft)
23.09.2019 02:19 16,1 C 16,1 C 16,2 C 92 % 1012,4 hPa 0,0 l/m 1,6 km/h (1 Bft) SW 225 0 min 0,0 UV-I 0 W/m 3,2 km/h (1 Bft)
23.09.2019 02:18 16,1 C 16,1 C 16,2 C 92 % 1012,3 hPa 0,0 l/m 0,0 km/h (0 Bft) SW 225 0 min 0,0 UV-I 0 W/m 1,6 km/h (1 Bft)
23.09.2019 02:17 16,1 C 16,1 C 16,2 C 92 % 1012,4 hPa 0,0 l/m 3,2 km/h (1 Bft) S-SW 202 0 min 0,0 UV-I 0 W/m 4,8 km/h (1 Bft)
23.09.2019 02:16 16,2 C 16,1 C 16,2 C 92 % 1012,4 hPa 0,0 l/m 1,6 km/h (1 Bft) S-SW 202 0 min 0,0 UV-I 0 W/m 6,4 km/h (2 Bft)
23.09.2019 02:15 16,1 C 16,1 C 16,2 C 92 % 1012,3 hPa 0,2 l/m 1,6 km/h (1 Bft) SW 225 0 min 0,0 UV-I 0 W/m 3,2 km/h (1 Bft)
23.09.2019 02:14 16,2 C 16,1 C 16,2 C 92 % 1012,3 hPa 0,0 l/m 3,2 km/h (1 Bft) SW 225 0 min 0,0 UV-I 0 W/m 4,8 km/h (1 Bft)
23.09.2019 02:13 16,1 C 16,1 C 16,1 C 92 % 1012,3 hPa 0,0 l/m 4,8 km/h (1 Bft) SW 225 0 min 0,0 UV-I 0 W/m 8,0 km/h (2 Bft)
23.09.2019 02:12 16,2 C 16,1 C 16,2 C 91 % 1012,3 hPa 0,0 l/m 0,0 km/h (0 Bft) S 180 0 min 0,0 UV-I 0 W/m 3,2 km/h (1 Bft)
23.09.2019 02:11 16,1 C 16,1 C 16,2 C 91 % 1012,3 hPa 0,0 l/m 1,6 km/h (1 Bft) S 180 0 min 0,0 UV-I 0 W/m 3,2 km/h (1 Bft)
23.09.2019 02:10 16,1 C 16,1 C 16,1 C 91 % 1012,3 hPa 0,0 l/m 3,2 km/h (1 Bft) S-SW 202 0 min 0,0 UV-I 0 W/m 4,8 km/h (1 Bft)
23.09.2019 02:09 16,1 C 16,1 C 16,1 C 91 % 1012,4 hPa 0,2 l/m 0,0 km/h (0 Bft) N 0 0 min 0,0 UV-I 0 W/m 0,0 km/h (0 Bft)
23.09.2019 02:08 16,1 C 16,1 C 16,1 C 91 % 1012,3 hPa 0,0 l/m 3,2 km/h (1 Bft) S-SW 202 0 min 0,0 UV-I 0 W/m 4,8 km/h (1 Bft)
23.09.2019 02:07 16,1 C 16,1 C 16,1 C 91 % 1012,2 hPa 0,0 l/m 3,2 km/h (1 Bft) S-SW 202 0 min 0,0 UV-I 0 W/m 4,8 km/h (1 Bft)
23.09.2019 02:06 16,1 C 16,1 C 16,1 C 91 % 1012,2 hPa 0,0 l/m 3,2 km/h (1 Bft) S-SW 202 0 min 0,0 UV-I 0 W/m 6,4 km/h (2 Bft)
23.09.2019 02:05 16,1 C 16,1 C 16,1 C 91 % 1012,2 hPa 0,0 l/m 1,6 km/h (1 Bft) S-SW 202 0 min 0,0 UV-I 0 W/m 3,2 km/h (1 Bft)
23.09.2019 02:04 16,1 C 16,1 C 16,1 C 91 % 1012,2 hPa 0,0 l/m 0,0 km/h (0 Bft) S-SW 202 0 min 0,0 UV-I 0 W/m 1,6 km/h (1 Bft)
23.09.2019 02:03 16,1 C 16,1 C 16,2 C 91 % 1012,2 hPa 0,0 l/m 0,0 km/h (0 Bft) N 0 0 min 0,0 UV-I 0 W/m 0,0 km/h (0 Bft)
23.09.2019 02:02 16,1 C 16,1 C 16,1 C 91 % 1012,2 hPa 0,0 l/m 0,0 km/h (0 Bft) W-SW 247 0 min 0,0 UV-I 0 W/m 1,6 km/h (1 Bft)
23.09.2019 02:01 16,1 C 16,1 C 16,1 C 91 % 1012,1 hPa 0,0 l/m 1,6 km/h (1 Bft) SW 225 0 min 0,0 UV-I 0 W/m 6,4 km/h (2 Bft)
23.09.2019 02:00 16,1 C 16,1 C 16,1 C 91 % 1012,2 hPa 0,0 l/m 1,6 km/h (1 Bft) W 270 0 min 0,0 UV-I 0 W/m 1,6 km/h (1 Bft)
23.09.2019 01:59 16,1 C 16,1 C 16,1 C 91 % 1012,2 hPa 0,0 l/m 0,0 km/h (0 Bft) W-SW 247 0 min 0,0 UV-I 0 W/m 1,6 km/h (1 Bft)
23.09.2019 01:58 16,1 C 16,1 C 16,1 C 91 % 1012,2 hPa 0,2 l/m 0,0 km/h (0 Bft) W-SW 247 0 min 0,0 UV-I 0 W/m 1,6 km/h (1 Bft)
23.09.2019 01:57 16,1 C 16,1 C 16,1 C 90 % 1012,2 hPa 0,0 l/m 1,6 km/h (1 Bft) W-SW 247 0 min 0,0 UV-I 0 W/m 3,2 km/h (1 Bft)
23.09.2019 01:56 16,1 C 16,1 C 16,1 C 90 % 1012,2 hPa 0,0 l/m 1,6 km/h (1 Bft) S-SW 202 0 min 0,0 UV-I 0 W/m 3,2 km/h (1 Bft)
23.09.2019 01:55 16,1 C 16,1 C 16,1 C 90 % 1012,2 hPa 0,0 l/m 0,0 km/h (0 Bft) N 0 0 min 0,0 UV-I 0 W/m 0,0 km/h (0 Bft)
23.09.2019 01:54 16,1 C 16,1 C 16,1 C 90 % 1012,1 hPa 0,2 l/m 1,6 km/h (1 Bft) SW 225 0 min 0,0 UV-I 0 W/m 4,8 km/h (1 Bft)
23.09.2019 01:53 16,1 C 16,1 C 16,1 C 90 % 1012,2 hPa 0,0 l/m 0,0 km/h (0 Bft) W 270 0 min 0,0 UV-I 0 W/m 1,6 km/h (1 Bft)
23.09.2019 01:52 16,1 C 16,1 C 16,1 C 90 % 1012,2 hPa 0,0 l/m 1,6 km/h (1 Bft) W 270 0 min 0,0 UV-I 0 W/m 1,6 km/h (1 Bft)
23.09.2019 01:51 16,1 C 16,1 C 16,1 C 90 % 1012,2 hPa 0,2 l/m 3,2 km/h (1 Bft) SW 225 0 min 0,0 UV-I 0 W/m 6,4 km/h (2 Bft)
23.09.2019 01:50 16,1 C 16,1 C 16,1 C 90 % 1012,2 hPa 0,2 l/m 1,6 km/h (1 Bft) S-SW 202 0 min 0,0 UV-I 0 W/m 4,8 km/h (1 Bft)
23.09.2019 01:49 16,1 C 16,1 C 16,1 C 90 % 1012,2 hPa 0,0 l/m 1,6 km/h (1 Bft) W-SW 247 0 min 0,0 UV-I 0 W/m 4,8 km/h (1 Bft)
23.09.2019 01:48 16,1 C 16,1 C 16,1 C 90 % 1012,2 hPa 0,2 l/m 0,0 km/h (0 Bft) SW 225 0 min 0,0 UV-I 0 W/m 3,2 km/h (1 Bft)
23.09.2019 01:47 16,1 C 16,1 C 16,1 C 89 % 1012,1 hPa 0,2 l/m 1,6 km/h (1 Bft) W 270 0 min 0,0 UV-I 0 W/m 4,8 km/h (1 Bft)
23.09.2019 01:46 16,1 C 16,1 C 16,1 C 89 % 1012,1 hPa 0,2 l/m 3,2 km/h (1 Bft) W-SW 247 0 min 0,0 UV-I 0 W/m 6,4 km/h (2 Bft)
23.09.2019 01:45 16,1 C 16,1 C 16,2 C 90 % 1012,1 hPa 0,0 l/m 3,2 km/h (1 Bft) S-SW 202 0 min 0,0 UV-I 0 W/m 4,8 km/h (1 Bft)
23.09.2019 01:44 16,1 C 16,1 C 16,1 C 90 % 1012,1 hPa 0,0 l/m 0,0 km/h (0 Bft) S-SW 202 0 min 0,0 UV-I 0 W/m 1,6 km/h (1 Bft)
23.09.2019 01:43 16,1 C 16,1 C 16,1 C 89 % 1012,1 hPa 0,0 l/m 3,2 km/h (1 Bft) SW 225 0 min 0,0 UV-I 0 W/m 6,4 km/h (2 Bft)
23.09.2019 01:42 16,1 C 16,1 C 16,2 C 90 % 1012,0 hPa 0,0 l/m 3,2 km/h (1 Bft) SW 225 0 min 0,0 UV-I 0 W/m 8,0 km/h (2 Bft)
23.09.2019 01:41 16,1 C 16,1 C 16,2 C 89 % 1012,0 hPa 0,0 l/m 3,2 km/h (1 Bft) S-SW 202 0 min 0,0 UV-I 0 W/m 6,4 km/h (2 Bft)
23.09.2019 01:40 16,1 C 16,1 C 16,2 C 90 % 1012,0 hPa 0,0 l/m 4,8 km/h (1 Bft) SW 225 0 min 0,0 UV-I 0 W/m 9,7 km/h (2 Bft)
23.09.2019 01:39 16,2 C 16,2 C 16,2 C 90 % 1012,0 hPa 0,0 l/m 3,2 km/h (1 Bft) W-SW 247 0 min 0,0 UV-I 0 W/m 8,0 km/h (2 Bft)
23.09.2019 01:38 16,2 C 16,2 C 16,2 C 90 % 1012,0 hPa 0,0 l/m 3,2 km/h (1 Bft) SW 225 0 min 0,0 UV-I 0 W/m 6,4 km/h (2 Bft)
23.09.2019 01:37 16,2 C 16,2 C 16,2 C 90 % 1011,9 hPa 0,0 l/m 1,6 km/h (1 Bft) SW 225 0 min 0,0 UV-I 0 W/m 6,4 km/h (2 Bft)
23.09.2019 01:36 16,2 C 16,2 C 16,2 C 90 % 1011,9 hPa 0,0 l/m 3,2 km/h (1 Bft) W-SW 247 0 min 0,0 UV-I 0 W/m 4,8 km/h (1 Bft)
23.09.2019 01:35 16,2 C 16,2 C 16,2 C 90 % 1011,9 hPa 0,0 l/m 4,8 km/h (1 Bft) S 180 0 min 0,0 UV-I 0 W/m 8,0 km/h (2 Bft)
23.09.2019 01:34 16,2 C 16,2 C 16,2 C 90 % 1011,8 hPa 0,0 l/m 3,2 km/h (1 Bft) SW 225 0 min 0,0 UV-I 0 W/m 4,8 km/h (1 Bft)
23.09.2019 01:33 16,2 C 16,2 C 16,2 C 90 % 1011,7 hPa 0,0 l/m 1,6 km/h (1 Bft) W-SW 247 0 min 0,0 UV-I 0 W/m 3,2 km/h (1 Bft)
23.09.2019 01:32 16,2 C 16,2 C 16,2 C 90 % 1011,7 hPa 0,0 l/m 1,6 km/h (1 Bft) S-SW 202 0 min 0,0 UV-I 0 W/m 4,8 km/h (1 Bft)
23.09.2019 01:31 16,2 C 16,2 C 16,2 C 90 % 1011,7 hPa 0,0 l/m 6,4 km/h (2 Bft) W 270 0 min 0,0 UV-I 0 W/m 12,9 km/h (3 Bft)
23.09.2019 01:30 16,2 C 16,2 C 16,2 C 90 % 1011,7 hPa 0,0 l/m 4,8 km/h (1 Bft) W-SW 247 0 min 0,0 UV-I 0 W/m 11,3 km/h (2 Bft)
23.09.2019 01:29 16,2 C 16,2 C 16,2 C 90 % 1011,6 hPa 0,0 l/m 3,2 km/h (1 Bft) W-SW 247 0 min 0,0 UV-I 0 W/m 9,7 km/h (2 Bft)
23.09.2019 01:28 16,2 C 16,2 C 16,2 C 90 % 1011,6 hPa 0,0 l/m 3,2 km/h (1 Bft) SW 225 0 min 0,0 UV-I 0 W/m 9,7 km/h (2 Bft)
23.09.2019 01:27 16,2 C 16,2 C 16,3 C 90 % 1011,6 hPa 0,0 l/m 6,4 km/h (2 Bft) W 270 0 min 0,0 UV-I 0 W/m 12,9 km/h (3 Bft)
23.09.2019 01:26 16,2 C 16,2 C 16,3 C 90 % 1011,5 hPa 0,0 l/m 4,8 km/h (1 Bft) W 270 0 min 0,0 UV-I 0 W/m 6,4 km/h (2 Bft)
23.09.2019 01:25 16,2 C 16,2 C 16,3 C 90 % 1011,5 hPa 0,0 l/m 3,2 km/h (1 Bft) W 270 0 min 0,0 UV-I 0 W/m 6,4 km/h (2 Bft)
23.09.2019 01:24 16,2 C 16,2 C 16,3 C 89 % 1011,5 hPa 0,0 l/m 4,8 km/h (1 Bft) W 270 0 min 0,0 UV-I 0 W/m 9,7 km/h (2 Bft)
23.09.2019 01:23 16,3 C 16,2 C 16,3 C 89 % 1011,4 hPa 0,0 l/m 8,0 km/h (2 Bft) W 270 0 min 0,0 UV-I 0 W/m 12,9 km/h (3 Bft)
23.09.2019 01:22 16,3 C 16,2 C 16,3 C 89 % 1011,4 hPa 0,0 l/m 8,0 km/h (2 Bft) W 270 0 min 0,0 UV-I 0 W/m 14,5 km/h (3 Bft)
23.09.2019 01:21 16,3 C 16,2 C 16,3 C 89 % 1011,3 hPa 0,0 l/m 4,8 km/h (1 Bft) W 270 0 min 0,0 UV-I 0 W/m 12,9 km/h (3 Bft)
23.09.2019 01:20 16,3 C 16,2 C 16,3 C 89 % 1011,3 hPa 0,0 l/m 6,4 km/h (2 Bft) W 270 0 min 0,0 UV-I 0 W/m 16,1 km/h (3 Bft)
23.09.2019 01:19 16,3 C 16,3 C 16,3 C 89 % 1011,3 hPa 0,2 l/m 8,0 km/h (2 Bft) W 270 0 min 0,0 UV-I 0 W/m 16,1 km/h (3 Bft)
23.09.2019 01:18 16,3 C 16,3 C 16,3 C 89 % 1011,3 hPa 0,0 l/m 6,4 km/h (2 Bft) SW 225 0 min 0,0 UV-I 0 W/m 16,1 km/h (3 Bft)
23.09.2019 01:17 16,3 C 16,3 C 16,3 C 89 % 1011,3 hPa 0,0 l/m 8,0 km/h (2 Bft) W 270 0 min 0,0 UV-I 0 W/m 16,1 km/h (3 Bft)
23.09.2019 01:16 16,3 C 16,3 C 16,4 C 89 % 1011,3 hPa 0,0 l/m 8,0 km/h (2 Bft) W 270 0 min 0,0 UV-I 0 W/m 16,1 km/h (3 Bft)
23.09.2019 01:15 16,4 C 16,4 C 16,4 C 89 % 1011,2 hPa 0,0 l/m 6,4 km/h (2 Bft) S-SW 202 0 min 0,0 UV-I 0 W/m 11,3 km/h (2 Bft)
23.09.2019 01:14 16,4 C 16,4 C 16,4 C 89 % 1011,2 hPa 0,0 l/m 8,0 km/h (2 Bft) W 270 0 min 0,0 UV-I 0 W/m 12,9 km/h (3 Bft)
23.09.2019 01:13 16,4 C 16,4 C 16,4 C 89 % 1011,2 hPa 0,0 l/m 6,4 km/h (2 Bft) W-SW 247 0 min 0,0 UV-I 0 W/m 11,3 km/h (2 Bft)
23.09.2019 01:12 16,4 C 16,4 C 16,4 C 89 % 1011,2 hPa 0,0 l/m 8,0 km/h (2 Bft) W 270 0 min 0,0 UV-I 0 W/m 14,5 km/h (3 Bft)
23.09.2019 01:11 16,4 C 16,4 C 16,5 C 89 % 1011,2 hPa 0,0 l/m 8,0 km/h (2 Bft) W 270 0 min 0,0 UV-I 0 W/m 16,1 km/h (3 Bft)
23.09.2019 01:10 16,4 C 16,4 C 16,5 C 89 % 1011,2 hPa 0,0 l/m 6,4 km/h (2 Bft) W 270 0 min 0,0 UV-I 0 W/m 12,9 km/h (3 Bft)
23.09.2019 01:09 16,4 C 16,4 C 16,5 C 89 % 1011,2 hPa 0,0 l/m 8,0 km/h (2 Bft) W 270 0 min 0,0 UV-I 0 W/m 16,1 km/h (3 Bft)
23.09.2019 01:08 16,5 C 16,5 C 16,6 C 89 % 1011,2 hPa 0,0 l/m 6,4 km/h (2 Bft) SW 225 0 min 0,0 UV-I 0 W/m 14,5 km/h (3 Bft)
23.09.2019 01:07 16,5 C 16,5 C 16,6 C 89 % 1011,2 hPa 0,0 l/m 9,7 km/h (2 Bft) W 270 0 min 0,0 UV-I 0 W/m 17,7 km/h (3 Bft)
23.09.2019 01:06 16,6 C 16,5 C 16,6 C 89 % 1011,2 hPa 0,0 l/m 11,3 km/h (2 Bft) W 270 0 min 0,0 UV-I 0 W/m 19,3 km/h (3 Bft)
23.09.2019 01:05 16,6 C 16,6 C 16,6 C 89 % 1011,1 hPa 0,0 l/m 11,3 km/h (2 Bft) W 270 0 min 0,0 UV-I 0 W/m 17,7 km/h (3 Bft)
23.09.2019 01:04 16,6 C 16,6 C 16,6 C 89 % 1011,1 hPa 0,2 l/m 11,3 km/h (2 Bft) W 270 0 min 0,0 UV-I 0 W/m 16,1 km/h (3 Bft)
23.09.2019 01:03 16,6 C 16,6 C 16,6 C 89 % 1011,1 hPa 0,0 l/m 11,3 km/h (2 Bft) W-SW 247 0 min 0,0 UV-I 0 W/m 19,3 km/h (3 Bft)
23.09.2019 01:02 16,6 C 16,6 C 16,6 C 89 % 1011,0 hPa 0,0 l/m 11,3 km/h (2 Bft) W 270 0 min 0,0 UV-I 0 W/m 20,9 km/h (4 Bft)
23.09.2019 01:01 16,7 C 16,6 C 16,7 C 89 % 1011,1 hPa 0,0 l/m 9,7 km/h (2 Bft) W 270 0 min 0,0 UV-I 0 W/m 14,5 km/h (3 Bft)
23.09.2019 01:00 16,7 C 16,7 C 16,7 C 89 % 1011,2 hPa 0,0 l/m 11,3 km/h (2 Bft) W 270 0 min 0,0 UV-I 0 W/m 19,3 km/h (3 Bft)
23.09.2019 00:59 16,7 C 16,7 C 16,7 C 89 % 1011,1 hPa 0,0 l/m 6,4 km/h (2 Bft) W-SW 247 0 min 0,0 UV-I 0 W/m 11,3 km/h (2 Bft)
23.09.2019 00:58 16,7 C 16,7 C 16,7 C 89 % 1011,1 hPa 0,0 l/m 16,1 km/h (3 Bft) W 270 0 min 0,0 UV-I 0 W/m 25,7 km/h (4 Bft)
23.09.2019 00:57 16,7 C 16,7 C 16,8 C 89 % 1011,1 hPa 0,0 l/m 14,5 km/h (3 Bft) W 270 0 min 0,0 UV-I 0 W/m 25,7 km/h (4 Bft)
23.09.2019 00:56 16,8 C 16,8 C 16,8 C 89 % 1011,1 hPa 0,0 l/m 14,5 km/h (3 Bft) W 270 0 min 0,0 UV-I 0 W/m 25,7 km/h (4 Bft)
23.09.2019 00:55 16,8 C 16,8 C 16,8 C 89 % 1011,1 hPa 0,0 l/m 9,7 km/h (2 Bft) W 270 0 min 0,0 UV-I 0 W/m 17,7 km/h (3 Bft)
23.09.2019 00:54 16,8 C 16,8 C 16,8 C 89 % 1011,1 hPa 0,0 l/m 11,3 km/h (2 Bft) W 270 0 min 0,0 UV-I 0 W/m 20,9 km/h (4 Bft)
23.09.2019 00:53 16,8 C 16,8 C 16,9 C 89 % 1011,1 hPa 0,2 l/m 14,5 km/h (3 Bft) W 270 0 min 0,0 UV-I 0 W/m 22,5 km/h (4 Bft)
23.09.2019 00:52 16,9 C 16,9 C 17,0 C 88 % 1011,1 hPa 0,0 l/m 11,3 km/h (2 Bft) W 270 0 min 0,0 UV-I 0 W/m 19,3 km/h (3 Bft)
23.09.2019 00:51 17,0 C 17,0 C 17,1 C 88 % 1011,1 hPa 0,0 l/m 12,9 km/h (3 Bft) W 270 0 min 0,0 UV-I 0 W/m 24,1 km/h (4 Bft)
23.09.2019 00:50 17,1 C 17,1 C 17,1 C 89 % 1011,1 hPa 0,0 l/m 14,5 km/h (3 Bft) W 270 0 min 0,0 UV-I 0 W/m 20,9 km/h (4 Bft)
23.09.2019 00:49 17,2 C 17,2 C 17,2 C 89 % 1011,0 hPa 0,2 l/m 11,3 km/h (2 Bft) W 270 0 min 0,0 UV-I 0 W/m 24,1 km/h (4 Bft)
23.09.2019 00:48 17,2 C 17,2 C 17,2 C 89 % 1011,1 hPa 0,0 l/m 8,0 km/h (2 Bft) W 270 0 min 0,0 UV-I 0 W/m 14,5 km/h (3 Bft)
23.09.2019 00:47 17,2 C 17,2 C 17,3 C 89 % 1011,0 hPa 0,0 l/m 11,3 km/h (2 Bft) SW 225 0 min 0,0 UV-I 0 W/m 19,3 km/h (3 Bft)
23.09.2019 00:46 17,3 C 17,3 C 17,3 C 89 % 1011,0 hPa 0,0 l/m 9,7 km/h (2 Bft) W 270 0 min 0,0 UV-I 0 W/m 14,5 km/h (3 Bft)
23.09.2019 00:45 17,3 C 17,3 C 17,3 C 89 % 1011,0 hPa 0,2 l/m 11,3 km/h (2 Bft) W 270 0 min 0,0 UV-I 0 W/m 19,3 km/h (3 Bft)
23.09.2019 00:44 17,3 C 17,3 C 17,4 C 90 % 1011,0 hPa 0,0 l/m 14,5 km/h (3 Bft) W 270 0 min 0,0 UV-I 0 W/m 22,5 km/h (4 Bft)
23.09.2019 00:43 17,4 C 17,4 C 17,4 C 90 % 1011,0 hPa 0,0 l/m 9,7 km/h (2 Bft) W 270 0 min 0,0 UV-I 0 W/m 16,1 km/h (3 Bft)
23.09.2019 00:42 17,4 C 17,4 C 17,4 C 90 % 1011,0 hPa 0,0 l/m 8,0 km/h (2 Bft) W 270 0 min 0,0 UV-I 0 W/m 12,9 km/h (3 Bft)
23.09.2019 00:41 17,4 C 17,4 C 17,5 C 89 % 1011,0 hPa 0,0 l/m 4,8 km/h (1 Bft) W 270 0 min 0,0 UV-I 0 W/m 8,0 km/h (2 Bft)
23.09.2019 00:40 17,5 C 17,5 C 17,6 C 89 % 1010,9 hPa 0,0 l/m 6,4 km/h (2 Bft) W-SW 247 0 min 0,0 UV-I 0 W/m 9,7 km/h (2 Bft)
23.09.2019 00:39 17,6 C 17,6 C 17,6 C 89 % 1010,9 hPa 0,0 l/m 4,8 km/h (1 Bft) SW 225 0 min 0,0 UV-I 0 W/m 8,0 km/h (2 Bft)
23.09.2019 00:38 17,6 C 17,6 C 17,6 C 89 % 1010,9 hPa 0,0 l/m 6,4 km/h (2 Bft) SW 225 0 min 0,0 UV-I 0 W/m 9,7 km/h (2 Bft)
23.09.2019 00:37 17,6 C 17,6 C 17,6 C 89 % 1010,9 hPa 0,2 l/m 9,7 km/h (2 Bft) W-SW 247 0 min 0,0 UV-I 0 W/m 16,1 km/h (3 Bft)
23.09.2019 00:36 17,6 C 17,6 C 17,6 C 89 % 1010,9 hPa 0,0 l/m 9,7 km/h (2 Bft) W 270 0 min 0,0 UV-I 0 W/m 14,5 km/h (3 Bft)
23.09.2019 00:35 17,6 C 17,6 C 17,7 C 88 % 1010,8 hPa 0,0 l/m 8,0 km/h (2 Bft) W 270 0 min 0,0 UV-I 0 W/m 17,7 km/h (3 Bft)
23.09.2019 00:34 17,6 C 17,6 C 17,7 C 88 % 1010,8 hPa 0,0 l/m 9,7 km/h (2 Bft) W-SW 247 0 min 0,0 UV-I 0 W/m 17,7 km/h (3 Bft)
23.09.2019 00:33 17,7 C 17,7 C 17,8 C 88 % 1010,8 hPa 0,0 l/m 9,7 km/h (2 Bft) W-NW 292 0 min 0,0 UV-I 0 W/m 16,1 km/h (3 Bft)
23.09.2019 00:32 17,8 C 17,7 C 17,8 C 88 % 1010,8 hPa 0,2 l/m 4,8 km/h (1 Bft) SW 225 0 min 0,0 UV-I 0 W/m 6,4 km/h (2 Bft)
23.09.2019 00:31 17,8 C 17,8 C 17,8 C 88 % 1010,8 hPa 0,0 l/m 8,0 km/h (2 Bft) W-SW 247 0 min 0,0 UV-I 0 W/m 16,1 km/h (3 Bft)
23.09.2019 00:30 17,8 C 17,8 C 17,8 C 87 % 1010,8 hPa 0,0 l/m 8,0 km/h (2 Bft) W 270 0 min 0,0 UV-I 0 W/m 16,1 km/h (3 Bft)
23.09.2019 00:29 17,8 C 17,8 C 17,8 C 87 % 1010,7 hPa 0,0 l/m 8,0 km/h (2 Bft) W-SW 247 0 min 0,0 UV-I 0 W/m 14,5 km/h (3 Bft)
23.09.2019 00:28 17,8 C 17,8 C 17,9 C 87 % 1010,7 hPa 0,0 l/m 12,9 km/h (3 Bft) W 270 0 min 0,0 UV-I 0 W/m 24,1 km/h (4 Bft)
23.09.2019 00:27 17,9 C 17,9 C 17,9 C 87 % 1010,7 hPa 0,0 l/m 14,5 km/h (3 Bft) W 270 0 min 0,0 UV-I 0 W/m 25,7 km/h (4 Bft)
23.09.2019 00:26 17,9 C 17,9 C 18,0 C 86 % 1010,7 hPa 0,0 l/m 12,9 km/h (3 Bft) W 270 0 min 0,0 UV-I 0 W/m 19,3 km/h (3 Bft)
23.09.2019 00:25 18,0 C 18,0 C 18,1 C 87 % 1010,8 hPa 0,0 l/m 16,1 km/h (3 Bft) W 270 0 min 0,0 UV-I 0 W/m 25,7 km/h (4 Bft)
23.09.2019 00:24 18,1 C 18,1 C 18,1 C 87 % 1010,7 hPa 0,0 l/m 11,3 km/h (2 Bft) W 270 0 min 0,0 UV-I 0 W/m 17,7 km/h (3 Bft)
23.09.2019 00:23 18,1 C 18,1 C 18,2 C 87 % 1010,7 hPa 0,0 l/m 14,5 km/h (3 Bft) W 270 0 min 0,0 UV-I 0 W/m 20,9 km/h (4 Bft)
23.09.2019 00:22 18,2 C 18,2 C 18,2 C 88 % 1010,7 hPa 0,0 l/m 12,9 km/h (3 Bft) W 270 0 min 0,0 UV-I 0 W/m 20,9 km/h (4 Bft)
23.09.2019 00:21 18,2 C 18,2 C 18,3 C 88 % 1010,7 hPa 0,0 l/m 9,7 km/h (2 Bft) W 270 0 min 0,0 UV-I 0 W/m 20,9 km/h (4 Bft)
23.09.2019 00:20 18,2 C 18,2 C 18,3 C 89 % 1010,8 hPa 0,0 l/m 11,3 km/h (2 Bft) W 270 0 min 0,0 UV-I 0 W/m 19,3 km/h (3 Bft)
23.09.2019 00:19 18,3 C 18,3 C 18,3 C 88 % 1010,7 hPa 0,0 l/m 8,0 km/h (2 Bft) W 270 0 min 0,0 UV-I 0 W/m 20,9 km/h (4 Bft)
23.09.2019 00:18 18,3 C 18,3 C 18,3 C 88 % 1010,7 hPa 0,0 l/m 9,7 km/h (2 Bft) W 270 0 min 0,0 UV-I 0 W/m 20,9 km/h (4 Bft)
23.09.2019 00:17 18,3 C 18,3 C 18,3 C 89 % 1010,8 hPa 0,0 l/m 11,3 km/h (2 Bft) W 270 0 min 0,0 UV-I 0 W/m 16,1 km/h (3 Bft)
23.09.2019 00:16 18,3 C 18,3 C 18,4 C 89 % 1010,7 hPa 0,0 l/m 8,0 km/h (2 Bft) SW 225 0 min 0,0 UV-I 0 W/m 12,9 km/h (3 Bft)
23.09.2019 00:15 18,3 C 18,3 C 18,4 C 89 % 1010,7 hPa 0,0 l/m 4,8 km/h (1 Bft) W 270 0 min 0,0 UV-I 0 W/m 6,4 km/h (2 Bft)
23.09.2019 00:14 18,4 C 18,3 C 18,4 C 89 % 1010,7 hPa 0,0 l/m 8,0 km/h (2 Bft) SW 225 0 min 0,0 UV-I 0 W/m 11,3 km/h (2 Bft)
23.09.2019 00:13 18,4 C 18,3 C 18,4 C 89 % 1010,6 hPa 0,0 l/m 4,8 km/h (1 Bft) W-SW 247 0 min 0,0 UV-I 0 W/m 6,4 km/h (2 Bft)
23.09.2019 00:12 18,4 C 18,4 C 18,4 C 89 % 1010,6 hPa 0,0 l/m 6,4 km/h (2 Bft) W-SW 247 0 min 0,0 UV-I 0 W/m 9,7 km/h (2 Bft)
23.09.2019 00:11 18,4 C 18,4 C 18,4 C 89 % 1010,6 hPa 0,0 l/m 4,8 km/h (1 Bft) W 270 0 min 0,0 UV-I 0 W/m 9,7 km/h (2 Bft)
23.09.2019 00:10 18,4 C 18,4 C 18,4 C 89 % 1010,6 hPa 0,0 l/m 6,4 km/h (2 Bft) W-SW 247 0 min 0,0 UV-I 0 W/m 8,0 km/h (2 Bft)
23.09.2019 00:09 18,4 C 18,4 C 18,4 C 89 % 1010,6 hPa 0,0 l/m 4,8 km/h (1 Bft) S-SW 202 0 min 0,0 UV-I 0 W/m 8,0 km/h (2 Bft)
23.09.2019 00:08 18,4 C 18,4 C 18,4 C 89 % 1010,6 hPa 0,0 l/m 6,4 km/h (2 Bft) SW 225 0 min 0,0 UV-I 0 W/m 11,3 km/h (2 Bft)
23.09.2019 00:07 18,4 C 18,4 C 18,5 C 89 % 1010,5 hPa 0,0 l/m 6,4 km/h (2 Bft) SW 225 0 min 0,0 UV-I 0 W/m 11,3 km/h (2 Bft)
23.09.2019 00:06 18,4 C 18,4 C 18,5 C 89 % 1010,6 hPa 0,0 l/m 6,4 km/h (2 Bft) W 270 0 min 0,0 UV-I 0 W/m 12,9 km/h (3 Bft)
23.09.2019 00:05 18,4 C 18,4 C 18,5 C 89 % 1010,6 hPa 0,0 l/m 4,8 km/h (1 Bft) SW 225 0 min 0,0 UV-I 0 W/m 8,0 km/h (2 Bft)
23.09.2019 00:04 18,5 C 18,5 C 18,6 C 89 % 1010,5 hPa 0,0 l/m 4,8 km/h (1 Bft) W-SW 247 0 min 0,0 UV-I 0 W/m 8,0 km/h (2 Bft)
23.09.2019 00:03 18,5 C 18,5 C 18,6 C 89 % 1010,6 hPa 0,0 l/m 4,8 km/h (1 Bft) SW 225 0 min 0,0 UV-I 0 W/m 6,4 km/h (2 Bft)
23.09.2019 00:02 18,6 C 18,6 C 18,6 C 89 % 1010,5 hPa 0,0 l/m 6,4 km/h (2 Bft) W 270 0 min 0,0 UV-I 0 W/m 9,7 km/h (2 Bft)
23.09.2019 00:01 18,6 C 18,6 C 18,6 C 89 % 1010,5 hPa 0,0 l/m 6,4 km/h (2 Bft) W-SW 247 0 min 0,0 UV-I 0 W/m 12,9 km/h (3 Bft)
23.09.2019 00:00 18,6 C 18,6 C 18,6 C 89 % 1010,6 hPa 0,0 l/m 9,7 km/h (2 Bft) S 180 0 min 0,0 UV-I 0 W/m 14,5 km/h (3 Bft)
_ Min-Zeit 08:10 08:10 08:16 17:02 00:01 - 01:44 - - - - - 01:55
Minimum _ 15,1 C 15,1 C 15,1 C 63 % 1010,5 hPa - 0,0 km/h (0 Bft) - - - - - 0,0 km/h (0 Bft)
_ Max-Zeit 15:20 15:21 15:20 03:40 18:49 00:32 00:25 - - 14:27 14:25 15:05 00:25
Maximum _ 20,3 C 20,3 C 20,3 C 93 % 1016,2 hPa 0,2 l/m 16,1 km/h
W (3 Bft)
- - 1 min 3,2 UV-I 645 W/m 25,7 km/h
W-NW (4 Bft)
Durchschnitt _ 17,0 C 17,0 C 17,0 C 86 % 1014,1 hPa #9,6 l/m 4,5 km/h (1 Bft) SW - #1:05 h 1,4 UV-I 144 W/m 7,9 km/h (2 Bft)